<?xml version='1.0' encoding='UTF-8'?><gpx version="1.1" creator="JPX - https://github.com/jenetics/jpx" xmlns="http://www.topografix.com/GPX/1/1"><trk><trkseg><trkpt lat="40.30643087935264" lon="17.57122927540952"><ele>12.999999999999998</ele><time>2026-04-08T14:50:15Z</time></trkpt><trkpt lat="40.306422250448755" lon="17.57133228109316"><ele>13.0</ele><time>2026-04-08T14:50:18Z</time></trkpt><trkpt lat="40.30642707779212" lon="17.571457053331823"><ele>13.0</ele><time>2026-04-08T14:50:21Z</time></trkpt><trkpt lat="40.30642763703006" lon="17.571550540952387"><ele>13.0</ele><time>2026-04-08T14:50:23Z</time></trkpt><trkpt lat="40.306419353854295" lon="17.57167504211458"><ele>12.999999999999998</ele><time>2026-04-08T14:50:26Z</time></trkpt><trkpt lat="40.30641674938103" lon="17.571783539634716"><ele>13.0</ele><time>2026-04-08T14:50:28Z</time></trkpt><trkpt lat="40.30641060662505" lon="17.5718726970429"><ele>12.999999999999998</ele><time>2026-04-08T14:50:30Z</time></trkpt><trkpt lat="40.30639980987511" lon="17.57197650216412"><ele>13.0</ele><time>2026-04-08T14:50:32Z</time></trkpt><trkpt lat="40.306391468182554" lon="17.572078785727037"><ele>13.0</ele><time>2026-04-08T14:50:34Z</time></trkpt><trkpt lat="40.30631285414007" lon="17.572108070843782"><ele>13.0</ele><time>2026-04-08T14:50:36Z</time></trkpt><trkpt lat="40.30622679666772" lon="17.572087054566527"><ele>12.999999999999998</ele><time>2026-04-08T14:50:38Z</time></trkpt><trkpt lat="40.306134055457406" lon="17.572081396987052"><ele>13.0</ele><time>2026-04-08T14:50:40Z</time></trkpt><trkpt lat="40.30605274242084" lon="17.572069593404358"><ele>13.0</ele><time>2026-04-08T14:50:42Z</time></trkpt><trkpt lat="40.30592654841177" lon="17.57208823343321"><ele>13.0</ele><time>2026-04-08T14:50:44Z</time></trkpt><trkpt lat="40.30586261847506" lon="17.572095295377387"><ele>13.0</ele><time>2026-04-08T14:50:45Z</time></trkpt><trkpt lat="40.30576947005088" lon="17.572068783376846"><ele>13.0</ele><time>2026-04-08T14:50:47Z</time></trkpt><trkpt lat="40.305678501222715" lon="17.57206490748675"><ele>13.0</ele><time>2026-04-08T14:50:49Z</time></trkpt><trkpt lat="40.30556880463947" lon="17.572069151110878"><ele>12.600000000000001</ele><time>2026-04-08T14:50:51Z</time></trkpt><trkpt lat="40.30544889170313" lon="17.572076943272982"><ele>12.200000000000001</ele><time>2026-04-08T14:50:53.001Z</time></trkpt><trkpt lat="40.30532870298899" lon="17.5720761019621"><ele>11.8</ele><time>2026-04-08T14:50:55.001Z</time></trkpt><trkpt lat="40.30526164210046" lon="17.57207823783419"><ele>11.4</ele><time>2026-04-08T14:50:56.001Z</time></trkpt><trkpt lat="40.30513482699745" lon="17.572091660762812"><ele>11.0</ele><time>2026-04-08T14:50:58.001Z</time></trkpt><trkpt lat="40.305068915060446" lon="17.572096516940206"><ele>11.0</ele><time>2026-04-08T14:50:59.001Z</time></trkpt><trkpt lat="40.30500474336551" lon="17.572109050585574"><ele>11.0</ele><time>2026-04-08T14:51:00.001Z</time></trkpt><trkpt lat="40.30494212375547" lon="17.57212738573485"><ele>11.0</ele><time>2026-04-08T14:51:01.001Z</time></trkpt><trkpt lat="40.304876667336686" lon="17.57213748187592"><ele>11.0</ele><time>2026-04-08T14:51:02.001Z</time></trkpt><trkpt lat="40.304811786323974" lon="17.572141745031047"><ele>11.0</ele><time>2026-04-08T14:51:03.001Z</time></trkpt><trkpt lat="40.30474696046148" lon="17.572143750177286"><ele>11.0</ele><time>2026-04-08T14:51:04.001Z</time></trkpt><trkpt lat="40.3046246122333" lon="17.572125633305664"><ele>11.0</ele><time>2026-04-08T14:51:06.001Z</time></trkpt><trkpt lat="40.304558324476766" lon="17.57213036144735"><ele>10.75</ele><time>2026-04-08T14:51:07.001Z</time></trkpt><trkpt lat="40.30444074337814" lon="17.572147934102784"><ele>10.5</ele><time>2026-04-08T14:51:09.001Z</time></trkpt><trkpt lat="40.30431551242916" lon="17.572154069621593"><ele>10.25</ele><time>2026-04-08T14:51:11.001Z</time></trkpt><trkpt lat="40.30420772661726" lon="17.572169695669416"><ele>10.0</ele><time>2026-04-08T14:51:13.001Z</time></trkpt><trkpt lat="40.30410788463208" lon="17.572186378158605"><ele>10.0</ele><time>2026-04-08T14:51:15.001Z</time></trkpt><trkpt lat="40.304058792776715" lon="17.572313216772283"><ele>10.0</ele><time>2026-04-08T14:51:18.001Z</time></trkpt><trkpt lat="40.30405973009529" lon="17.572448735886553"><ele>10.0</ele><time>2026-04-08T14:51:20.001Z</time></trkpt><trkpt lat="40.30406014835107" lon="17.572587230228194"><ele>10.0</ele><time>2026-04-08T14:51:22.001Z</time></trkpt><trkpt lat="40.30405388311604" lon="17.572726369244155"><ele>10.0</ele><time>2026-04-08T14:51:24.001Z</time></trkpt><trkpt lat="40.30405649208355" lon="17.572866932537757"><ele>10.0</ele><time>2026-04-08T14:51:26.001Z</time></trkpt><trkpt lat="40.30405339448204" lon="17.57301750234866"><ele>10.0</ele><time>2026-04-08T14:51:28.001Z</time></trkpt><trkpt lat="40.30405283910889" lon="17.573172346716397"><ele>10.0</ele><time>2026-04-08T14:51:30.001Z</time></trkpt><trkpt lat="40.30404133992765" lon="17.573324733515395"><ele>10.0</ele><time>2026-04-08T14:51:32.001Z</time></trkpt><trkpt lat="40.3040367530583" lon="17.57341157114389"><ele>10.0</ele><time>2026-04-08T14:51:34.001Z</time></trkpt><trkpt lat="40.304054501754315" lon="17.573540937495665"><ele>10.0</ele><time>2026-04-08T14:51:37.001Z</time></trkpt><trkpt lat="40.30405343170549" lon="17.573657365810085"><ele>10.0</ele><time>2026-04-08T14:51:39.001Z</time></trkpt><trkpt lat="40.3040623098761" lon="17.573791923571836"><ele>10.0</ele><time>2026-04-08T14:51:41.001Z</time></trkpt><trkpt lat="40.30406939875348" lon="17.57390674146187"><ele>10.0</ele><time>2026-04-08T14:51:43.001Z</time></trkpt><trkpt lat="40.3040572294436" lon="17.574002893934484"><ele>10.0</ele><time>2026-04-08T14:51:45.001Z</time></trkpt><trkpt lat="40.304045205104" lon="17.574122606628823"><ele>10.0</ele><time>2026-04-08T14:51:47.001Z</time></trkpt><trkpt lat="40.3040425708159" lon="17.57424688441838"><ele>9.6</ele><time>2026-04-08T14:51:49.001Z</time></trkpt><trkpt lat="40.3040316399837" lon="17.57438776950666"><ele>9.2</ele><time>2026-04-08T14:51:51.001Z</time></trkpt><trkpt lat="40.30402560201127" lon="17.57452682366487"><ele>8.8</ele><time>2026-04-08T14:51:53.001Z</time></trkpt><trkpt lat="40.30400534913432" lon="17.574652918789816"><ele>8.4</ele><time>2026-04-08T14:51:55.001Z</time></trkpt><trkpt lat="40.30401137402535" lon="17.574768184029814"><ele>8.0</ele><time>2026-04-08T14:51:57.001Z</time></trkpt><trkpt lat="40.30401391833162" lon="17.57490067598366"><ele>7.75</ele><time>2026-04-08T14:51:59.001Z</time></trkpt><trkpt lat="40.30400430396533" lon="17.575040939575565"><ele>7.5</ele><time>2026-04-08T14:52:01.002Z</time></trkpt><trkpt lat="40.3040039610599" lon="17.575200652393722"><ele>7.25</ele><time>2026-04-08T14:52:03.002Z</time></trkpt><trkpt lat="40.30398975414169" lon="17.575362988041345"><ele>7.0</ele><time>2026-04-08T14:52:05.002Z</time></trkpt><trkpt lat="40.303980529808044" lon="17.575510391227947"><ele>7.0</ele><time>2026-04-08T14:52:07Z</time></trkpt><trkpt lat="40.30397773753981" lon="17.57559298866054"><ele>6.999999999999999</ele><time>2026-04-08T14:52:08Z</time></trkpt><trkpt lat="40.30397541129124" lon="17.575745337760683"><ele>6.999999999999999</ele><time>2026-04-08T14:52:10Z</time></trkpt><trkpt lat="40.303964228752356" lon="17.57589815229809"><ele>7.0</ele><time>2026-04-08T14:52:12Z</time></trkpt><trkpt lat="40.303962056019905" lon="17.576046828751167"><ele>7.0</ele><time>2026-04-08T14:52:14Z</time></trkpt><trkpt lat="40.30396074621959" lon="17.576199650265234"><ele>7.199999999999999</ele><time>2026-04-08T14:52:16Z</time></trkpt><trkpt lat="40.30393993561243" lon="17.57635116116346"><ele>7.3999999999999995</ele><time>2026-04-08T14:52:18Z</time></trkpt><trkpt lat="40.30393881222223" lon="17.57650939646761"><ele>7.6000000000000005</ele><time>2026-04-08T14:52:20Z</time></trkpt><trkpt lat="40.30394063516281" lon="17.57666370296394"><ele>7.800000000000001</ele><time>2026-04-08T14:52:22Z</time></trkpt><trkpt lat="40.30393479170176" lon="17.576747442498863"><ele>8.0</ele><time>2026-04-08T14:52:23Z</time></trkpt><trkpt lat="40.30392956007703" lon="17.57690319321796"><ele>8.0</ele><time>2026-04-08T14:52:25Z</time></trkpt><trkpt lat="40.30393396814194" lon="17.57706562208275"><ele>8.0</ele><time>2026-04-08T14:52:27Z</time></trkpt><trkpt lat="40.30392427103626" lon="17.57723296381619"><ele>8.0</ele><time>2026-04-08T14:52:29Z</time></trkpt><trkpt lat="40.30392305290617" lon="17.577397696047242"><ele>8.0</ele><time>2026-04-08T14:52:31Z</time></trkpt><trkpt lat="40.30390960196308" lon="17.57751428909737"><ele>8.0</ele><time>2026-04-08T14:52:33Z</time></trkpt><trkpt lat="40.30383509776379" lon="17.57754021360622"><ele>8.0</ele><time>2026-04-08T14:52:36Z</time></trkpt><trkpt lat="40.30389935272129" lon="17.577485499974287"><ele>8.0</ele><time>2026-04-08T14:52:46.001Z</time></trkpt><trkpt lat="40.303937374710124" lon="17.577343427115423"><ele>8.0</ele><time>2026-04-08T14:52:48.001Z</time></trkpt><trkpt lat="40.30392798801526" lon="17.577218447785523"><ele>8.0</ele><time>2026-04-08T14:52:50.001Z</time></trkpt><trkpt lat="40.30392858832701" lon="17.577096234936096"><ele>7.999999999999999</ele><time>2026-04-08T14:52:52.001Z</time></trkpt><trkpt lat="40.30392869720694" lon="17.576979726191126"><ele>8.0</ele><time>2026-04-08T14:52:54.001Z</time></trkpt><trkpt lat="40.303930432094795" lon="17.5768727366134"><ele>8.0</ele><time>2026-04-08T14:52:56.001Z</time></trkpt><trkpt lat="40.30393118775622" lon="17.57676350398076"><ele>8.0</ele><time>2026-04-08T14:52:58.001Z</time></trkpt><trkpt lat="40.30393979064078" lon="17.576647531537734"><ele>7.999999999999999</ele><time>2026-04-08T14:53:00.001Z</time></trkpt><trkpt lat="40.303999456840195" lon="17.576609847896975"><ele>8.0</ele><time>2026-04-08T14:53:04.001Z</time></trkpt><trkpt lat="40.304002717709764" lon="17.576697116359014"><ele>8.0</ele><time>2026-04-08T14:53:06.001Z</time></trkpt><trkpt lat="40.30399413674134" lon="17.576818840871542"><ele>8.0</ele><time>2026-04-08T14:53:09.001Z</time></trkpt><trkpt lat="40.30399622509533" lon="17.576920913345084"><ele>8.0</ele><time>2026-04-08T14:53:11.001Z</time></trkpt><trkpt lat="40.30399536968819" lon="17.577040836197092"><ele>8.0</ele><time>2026-04-08T14:53:13.001Z</time></trkpt><trkpt lat="40.303992276755885" lon="17.577168092411245"><ele>8.0</ele><time>2026-04-08T14:53:15.001Z</time></trkpt><trkpt lat="40.30398737065503" lon="17.57730196322961"><ele>8.0</ele><time>2026-04-08T14:53:17.001Z</time></trkpt><trkpt lat="40.303984029193494" lon="17.577441424850107"><ele>8.0</ele><time>2026-04-08T14:53:19.001Z</time></trkpt><trkpt lat="40.30397807369081" lon="17.577576371796997"><ele>8.0</ele><time>2026-04-08T14:53:21.001Z</time></trkpt><trkpt lat="40.30397506118728" lon="17.57770568509071"><ele>8.0</ele><time>2026-04-08T14:53:23.001Z</time></trkpt><trkpt lat="40.30399853410282" lon="17.577832410161744"><ele>8.0</ele><time>2026-04-08T14:53:25.001Z</time></trkpt><trkpt lat="40.304025737684306" lon="17.577948067842637"><ele>7.800000000000001</ele><time>2026-04-08T14:53:27.001Z</time></trkpt><trkpt lat="40.30404244300359" lon="17.57807147200549"><ele>7.6000000000000005</ele><time>2026-04-08T14:53:29.001Z</time></trkpt><trkpt lat="40.30406252171547" lon="17.578192206026067"><ele>7.3999999999999995</ele><time>2026-04-08T14:53:31.001Z</time></trkpt><trkpt lat="40.30408430659378" lon="17.578307159346448"><ele>7.199999999999999</ele><time>2026-04-08T14:53:33.001Z</time></trkpt><trkpt lat="40.30410418772272" lon="17.57842181036659"><ele>7.0</ele><time>2026-04-08T14:53:35.001Z</time></trkpt><trkpt lat="40.304127166581814" lon="17.57853882127033"><ele>7.000000000000001</ele><time>2026-04-08T14:53:37.001Z</time></trkpt><trkpt lat="40.30414426603954" lon="17.578651832126095"><ele>7.0</ele><time>2026-04-08T14:53:39.001Z</time></trkpt><trkpt lat="40.30416235361928" lon="17.578755807839695"><ele>7.0</ele><time>2026-04-08T14:53:41.001Z</time></trkpt><trkpt lat="40.3041834570182" lon="17.57886339666015"><ele>7.0</ele><time>2026-04-08T14:53:43.001Z</time></trkpt><trkpt lat="40.304200744300566" lon="17.578966260005856"><ele>7.000000000000001</ele><time>2026-04-08T14:53:45.001Z</time></trkpt><trkpt lat="40.304219715145244" lon="17.579073140815694"><ele>7.0</ele><time>2026-04-08T14:53:47.001Z</time></trkpt><trkpt lat="40.30424014476224" lon="17.57917694960165"><ele>7.333333333333334</ele><time>2026-04-08T14:53:49.001Z</time></trkpt><trkpt lat="40.30425906308068" lon="17.57928150925645"><ele>7.666666666666667</ele><time>2026-04-08T14:53:51.001Z</time></trkpt><trkpt lat="40.30427595591911" lon="17.579387432323013"><ele>8.0</ele><time>2026-04-08T14:53:53.001Z</time></trkpt><trkpt lat="40.304296032128924" lon="17.5795048184668"><ele>8.333333333333334</ele><time>2026-04-08T14:53:55.001Z</time></trkpt><trkpt lat="40.30431837233746" lon="17.579621387661323"><ele>8.666666666666666</ele><time>2026-04-08T14:53:57.001Z</time></trkpt><trkpt lat="40.304337751653556" lon="17.57974288057121"><ele>9.0</ele><time>2026-04-08T14:53:59.002Z</time></trkpt><trkpt lat="40.30435874568548" lon="17.57986519877111"><ele>9.2</ele><time>2026-04-08T14:54:01.002Z</time></trkpt><trkpt lat="40.304394443145604" lon="17.57998389425756"><ele>9.4</ele><time>2026-04-08T14:54:03.002Z</time></trkpt><trkpt lat="40.30446151954531" lon="17.58006411898244"><ele>9.6</ele><time>2026-04-08T14:54:05.002Z</time></trkpt><trkpt lat="40.3045566350226" lon="17.580095232084684"><ele>9.8</ele><time>2026-04-08T14:54:07.002Z</time></trkpt><trkpt lat="40.30464993275029" lon="17.580110382225037"><ele>10.0</ele><time>2026-04-08T14:54:09.002Z</time></trkpt><trkpt lat="40.304733388839644" lon="17.580156272804444"><ele>10.333333333333334</ele><time>2026-04-08T14:54:11.002Z</time></trkpt><trkpt lat="40.30478377639802" lon="17.58024397748543"><ele>10.666666666666668</ele><time>2026-04-08T14:54:13.001Z</time></trkpt><trkpt lat="40.30485056078483" lon="17.58029533515527"><ele>11.0</ele><time>2026-04-08T14:54:15.001Z</time></trkpt><trkpt lat="40.30492951478666" lon="17.58027578730986"><ele>11.333333333333334</ele><time>2026-04-08T14:54:17.001Z</time></trkpt><trkpt lat="40.30500551266623" lon="17.580280932464444"><ele>11.666666666666666</ele><time>2026-04-08T14:54:19.001Z</time></trkpt><trkpt lat="40.30508985055095" lon="17.580285322649093"><ele>12.0</ele><time>2026-04-08T14:54:22.001Z</time></trkpt><trkpt lat="40.30515782460194" lon="17.580277536416197"><ele>12.0</ele><time>2026-04-08T14:54:24.001Z</time></trkpt><trkpt lat="40.30522697662253" lon="17.580283912997515"><ele>12.0</ele><time>2026-04-08T14:54:26.001Z</time></trkpt><trkpt lat="40.305291550760174" lon="17.580282581299716"><ele>12.0</ele><time>2026-04-08T14:54:28.001Z</time></trkpt><trkpt lat="40.30536036699229" lon="17.580290969686743"><ele>12.0</ele><time>2026-04-08T14:54:30.001Z</time></trkpt><trkpt lat="40.305454423100315" lon="17.58028838500237"><ele>12.0</ele><time>2026-04-08T14:54:33.001Z</time></trkpt><trkpt lat="40.30553619496059" lon="17.580289034899938"><ele>12.0</ele><time>2026-04-08T14:54:36.001Z</time></trkpt><trkpt lat="40.30561282267574" lon="17.58027528826571"><ele>12.5</ele><time>2026-04-08T14:54:39.001Z</time></trkpt><trkpt lat="40.305698684742275" lon="17.580279506781824"><ele>13.0</ele><time>2026-04-08T14:54:42.001Z</time></trkpt><trkpt lat="40.30577107358276" lon="17.58031789061486"><ele>13.5</ele><time>2026-04-08T14:54:45.001Z</time></trkpt><trkpt lat="40.30582618130193" lon="17.580253273674778"><ele>14.0</ele><time>2026-04-08T14:54:49.001Z</time></trkpt><trkpt lat="40.305811019365855" lon="17.580133073567907"><ele>14.5</ele><time>2026-04-08T14:54:52.001Z</time></trkpt><trkpt lat="40.30580461600566" lon="17.580002798840624"><ele>15.0</ele><time>2026-04-08T14:54:55.001Z</time></trkpt><trkpt lat="40.30584802875942" lon="17.579907167016074"><ele>15.0</ele><time>2026-04-08T14:54:57.001Z</time></trkpt><trkpt lat="40.30587724692141" lon="17.5798033667219"><ele>15.0</ele><time>2026-04-08T14:54:59.001Z</time></trkpt><trkpt lat="40.30591401421541" lon="17.579729072479054"><ele>15.0</ele><time>2026-04-08T14:55:01.001Z</time></trkpt><trkpt lat="40.30592337733368" lon="17.57963185791993"><ele>15.0</ele><time>2026-04-08T14:55:03.001Z</time></trkpt><trkpt lat="40.30597971564589" lon="17.57955779340194"><ele>15.0</ele><time>2026-04-08T14:55:05.001Z</time></trkpt><trkpt lat="40.30605742632812" lon="17.57952164093145"><ele>15.0</ele><time>2026-04-08T14:55:07.001Z</time></trkpt><trkpt lat="40.30612877924208" lon="17.579481462324008"><ele>14.833333333333334</ele><time>2026-04-08T14:55:09.001Z</time></trkpt><trkpt lat="40.306201357503554" lon="17.579445380076358"><ele>14.666666666666668</ele><time>2026-04-08T14:55:11.001Z</time></trkpt><trkpt lat="40.30627325929481" lon="17.579408320700725"><ele>14.5</ele><time>2026-04-08T14:55:13.001Z</time></trkpt><trkpt lat="40.30634351348958" lon="17.57936034068262"><ele>14.333333333333334</ele><time>2026-04-08T14:55:15.001Z</time></trkpt><trkpt lat="40.30641676948065" lon="17.57931416351463"><ele>14.166666666666668</ele><time>2026-04-08T14:55:17.001Z</time></trkpt><trkpt lat="40.306489177434806" lon="17.579263639896222"><ele>14.0</ele><time>2026-04-08T14:55:19.001Z</time></trkpt><trkpt lat="40.30656899568749" lon="17.57921910471808"><ele>14.0</ele><time>2026-04-08T14:55:21.001Z</time></trkpt><trkpt lat="40.3066506121392" lon="17.579187077838057"><ele>13.999999999999998</ele><time>2026-04-08T14:55:23.001Z</time></trkpt><trkpt lat="40.3067395896692" lon="17.579152029216196"><ele>13.999999999999998</ele><time>2026-04-08T14:55:25.001Z</time></trkpt><trkpt lat="40.306827250612066" lon="17.579111584939156"><ele>14.0</ele><time>2026-04-08T14:55:27.001Z</time></trkpt><trkpt lat="40.306917966491156" lon="17.579071181943192"><ele>14.0</ele><time>2026-04-08T14:55:29.001Z</time></trkpt><trkpt lat="40.307007115175296" lon="17.57903035460236"><ele>14.000000000000002</ele><time>2026-04-08T14:55:31.001Z</time></trkpt><trkpt lat="40.30709005957841" lon="17.578998942017723"><ele>14.0</ele><time>2026-04-08T14:55:33.001Z</time></trkpt><trkpt lat="40.30717480256404" lon="17.57896560765801"><ele>14.0</ele><time>2026-04-08T14:55:35.001Z</time></trkpt><trkpt lat="40.30725593896761" lon="17.57892020573292"><ele>14.0</ele><time>2026-04-08T14:55:37.001Z</time></trkpt><trkpt lat="40.30733464577865" lon="17.57888161474652"><ele>14.000000000000002</ele><time>2026-04-08T14:55:39.001Z</time></trkpt><trkpt lat="40.307416259027825" lon="17.578846930569426"><ele>14.0</ele><time>2026-04-08T14:55:41.001Z</time></trkpt><trkpt lat="40.30750285440908" lon="17.57881863507993"><ele>14.2</ele><time>2026-04-08T14:55:43.001Z</time></trkpt><trkpt lat="40.307589224461914" lon="17.578796967674595"><ele>14.399999999999999</ele><time>2026-04-08T14:55:45.001Z</time></trkpt><trkpt lat="40.30767571934532" lon="17.578758164840846"><ele>14.6</ele><time>2026-04-08T14:55:47.001Z</time></trkpt><trkpt lat="40.30776165613589" lon="17.578721869306325"><ele>14.8</ele><time>2026-04-08T14:55:49.001Z</time></trkpt><trkpt lat="40.30784932145726" lon="17.578677173797928"><ele>15.0</ele><time>2026-04-08T14:55:51.001Z</time></trkpt><trkpt lat="40.307939421881684" lon="17.578640119639907"><ele>15.0</ele><time>2026-04-08T14:55:53.001Z</time></trkpt><trkpt lat="40.308033578297625" lon="17.578606628365016"><ele>15.0</ele><time>2026-04-08T14:55:55.001Z</time></trkpt><trkpt lat="40.30813386463865" lon="17.57860582274931"><ele>15.0</ele><time>2026-04-08T14:55:57.001Z</time></trkpt><trkpt lat="40.30822266531563" lon="17.578670549497847"><ele>15.0</ele><time>2026-04-08T14:55:59.001Z</time></trkpt><trkpt lat="40.308309060678" lon="17.57876399065269"><ele>15.0</ele><time>2026-04-08T14:56:01.001Z</time></trkpt><trkpt lat="40.30833066889922" lon="17.578869306697342"><ele>15.0</ele><time>2026-04-08T14:56:03.001Z</time></trkpt><trkpt lat="40.3082626398268" lon="17.578984516745003"><ele>15.0</ele><time>2026-04-08T14:56:05.001Z</time></trkpt><trkpt lat="40.30818867026219" lon="17.579109815247435"><ele>15.0</ele><time>2026-04-08T14:56:07.002Z</time></trkpt><trkpt lat="40.30813110491798" lon="17.57925720490198"><ele>15.0</ele><time>2026-04-08T14:56:09.002Z</time></trkpt><trkpt lat="40.30810486764758" lon="17.57933548738398"><ele>15.0</ele><time>2026-04-08T14:56:10.002Z</time></trkpt><trkpt lat="40.30806614427567" lon="17.579408579544037"><ele>15.0</ele><time>2026-04-08T14:56:11.002Z</time></trkpt><trkpt lat="40.308020622762584" lon="17.57947510237819"><ele>15.0</ele><time>2026-04-08T14:56:12.002Z</time></trkpt><trkpt lat="40.307979104450325" lon="17.57954403086086"><ele>15.0</ele><time>2026-04-08T14:56:13.002Z</time></trkpt><trkpt lat="40.307938299116515" lon="17.57960942358869"><ele>15.0</ele><time>2026-04-08T14:56:14.002Z</time></trkpt><trkpt lat="40.30782820443191" lon="17.57967729698348"><ele>15.0</ele><time>2026-04-08T14:56:16.002Z</time></trkpt><trkpt lat="40.307724708125555" lon="17.579698423259323"><ele>15.0</ele><time>2026-04-08T14:56:18.002Z</time></trkpt><trkpt lat="40.3076401928629" lon="17.579746607873076"><ele>15.2</ele><time>2026-04-08T14:56:20.001Z</time></trkpt><trkpt lat="40.30755980000646" lon="17.579810001289427"><ele>15.4</ele><time>2026-04-08T14:56:22.001Z</time></trkpt><trkpt lat="40.30747600207369" lon="17.579881382044608"><ele>15.600000000000001</ele><time>2026-04-08T14:56:24.001Z</time></trkpt><trkpt lat="40.30739340287722" lon="17.579960001159808"><ele>15.8</ele><time>2026-04-08T14:56:26.001Z</time></trkpt><trkpt lat="40.30730903236408" lon="17.580047856216062"><ele>16.0</ele><time>2026-04-08T14:56:28.001Z</time></trkpt><trkpt lat="40.30722502779425" lon="17.580144338376524"><ele>16.0</ele><time>2026-04-08T14:56:30.001Z</time></trkpt><trkpt lat="40.30714932200804" lon="17.580250186594192"><ele>16.0</ele><time>2026-04-08T14:56:32.001Z</time></trkpt><trkpt lat="40.30708250457134" lon="17.580363041277163"><ele>16.0</ele><time>2026-04-08T14:56:34.001Z</time></trkpt><trkpt lat="40.307007420583155" lon="17.580463057241555"><ele>16.0</ele><time>2026-04-08T14:56:36.001Z</time></trkpt><trkpt lat="40.30694459021897" lon="17.580557886591443"><ele>16.0</ele><time>2026-04-08T14:56:38.001Z</time></trkpt><trkpt lat="40.30692239227199" lon="17.580677947957476"><ele>15.5</ele><time>2026-04-08T14:56:40.001Z</time></trkpt><trkpt lat="40.306911703639045" lon="17.58082047318504"><ele>15.0</ele><time>2026-04-08T14:56:42.001Z</time></trkpt><trkpt lat="40.30685054823088" lon="17.580937991609833"><ele>14.5</ele><time>2026-04-08T14:56:44.001Z</time></trkpt><trkpt lat="40.306784302286935" lon="17.581058448160405"><ele>14.0</ele><time>2026-04-08T14:56:46.001Z</time></trkpt><trkpt lat="40.306722902558164" lon="17.58119853046467"><ele>13.25</ele><time>2026-04-08T14:56:48.001Z</time></trkpt><trkpt lat="40.30665489824818" lon="17.581328958071225"><ele>12.5</ele><time>2026-04-08T14:56:50.001Z</time></trkpt><trkpt lat="40.30658427259751" lon="17.581463638130064"><ele>11.75</ele><time>2026-04-08T14:56:52.001Z</time></trkpt><trkpt lat="40.30651296698256" lon="17.58160058314101"><ele>11.0</ele><time>2026-04-08T14:56:54.001Z</time></trkpt><trkpt lat="40.306443462832036" lon="17.581737212089713"><ele>11.0</ele><time>2026-04-08T14:56:56.001Z</time></trkpt><trkpt lat="40.306371160407636" lon="17.58186571092566"><ele>11.0</ele><time>2026-04-08T14:56:58.001Z</time></trkpt><trkpt lat="40.306329858505286" lon="17.58193029508546"><ele>11.0</ele><time>2026-04-08T14:56:59.001Z</time></trkpt><trkpt lat="40.30625693480485" lon="17.582054178776016"><ele>11.0</ele><time>2026-04-08T14:57:01.001Z</time></trkpt><trkpt lat="40.306185657034014" lon="17.582171819092366"><ele>11.0</ele><time>2026-04-08T14:57:03.001Z</time></trkpt><trkpt lat="40.30611746106596" lon="17.582294397876137"><ele>11.0</ele><time>2026-04-08T14:57:05.001Z</time></trkpt><trkpt lat="40.306090820804044" lon="17.582435980119975"><ele>11.0</ele><time>2026-04-08T14:57:07.001Z</time></trkpt><trkpt lat="40.306135137136756" lon="17.58256922800482"><ele>11.0</ele><time>2026-04-08T14:57:09.001Z</time></trkpt><trkpt lat="40.30616920720819" lon="17.58270300036644"><ele>11.0</ele><time>2026-04-08T14:57:11.001Z</time></trkpt><trkpt lat="40.30620252886689" lon="17.582843164439463"><ele>11.0</ele><time>2026-04-08T14:57:13.001Z</time></trkpt><trkpt lat="40.30621727292654" lon="17.582998505072165"><ele>11.0</ele><time>2026-04-08T14:57:15.001Z</time></trkpt><trkpt lat="40.30622882919734" lon="17.583160678073394"><ele>11.0</ele><time>2026-04-08T14:57:17.001Z</time></trkpt><trkpt lat="40.30623336928729" lon="17.583318153658343"><ele>11.0</ele><time>2026-04-08T14:57:19.001Z</time></trkpt><trkpt lat="40.306252102373264" lon="17.583450725550346"><ele>11.0</ele><time>2026-04-08T14:57:21.001Z</time></trkpt><trkpt lat="40.30630839561215" lon="17.583514465596174"><ele>11.0</ele><time>2026-04-08T14:57:24.001Z</time></trkpt><trkpt lat="40.30639312625776" lon="17.58352584631872"><ele>10.4</ele><time>2026-04-08T14:57:27.001Z</time></trkpt><trkpt lat="40.30646861983585" lon="17.583495355654772"><ele>9.8</ele><time>2026-04-08T14:57:29.001Z</time></trkpt><trkpt lat="40.30654980612765" lon="17.583456183579322"><ele>9.200000000000001</ele><time>2026-04-08T14:57:31.001Z</time></trkpt><trkpt lat="40.306637963901096" lon="17.58341734771719"><ele>8.600000000000001</ele><time>2026-04-08T14:57:33.001Z</time></trkpt><trkpt lat="40.30673216338448" lon="17.583372875176103"><ele>8.0</ele><time>2026-04-08T14:57:35.001Z</time></trkpt><trkpt lat="40.306828975176046" lon="17.58332900529012"><ele>8.0</ele><time>2026-04-08T14:57:37.001Z</time></trkpt><trkpt lat="40.30692726908938" lon="17.583283660961275"><ele>8.0</ele><time>2026-04-08T14:57:39.001Z</time></trkpt><trkpt lat="40.30702788692412" lon="17.583233321246162"><ele>8.0</ele><time>2026-04-08T14:57:41.001Z</time></trkpt><trkpt lat="40.30713504474997" lon="17.58318568211217"><ele>8.0</ele><time>2026-04-08T14:57:43.001Z</time></trkpt><trkpt lat="40.307244532407374" lon="17.58313404089513"><ele>8.0</ele><time>2026-04-08T14:57:45.001Z</time></trkpt><trkpt lat="40.30735604002382" lon="17.5830818785049"><ele>7.75</ele><time>2026-04-08T14:57:47.001Z</time></trkpt><trkpt lat="40.307469988252606" lon="17.583024513759554"><ele>7.5</ele><time>2026-04-08T14:57:49.001Z</time></trkpt><trkpt lat="40.307587651583866" lon="17.582973136907366"><ele>7.25</ele><time>2026-04-08T14:57:51.001Z</time></trkpt><trkpt lat="40.307705629319045" lon="17.582917970123354"><ele>7.0</ele><time>2026-04-08T14:57:53.001Z</time></trkpt><trkpt lat="40.307821328334406" lon="17.582864637003826"><ele>7.25</ele><time>2026-04-08T14:57:55.001Z</time></trkpt><trkpt lat="40.30793821365413" lon="17.58281239631308"><ele>7.5</ele><time>2026-04-08T14:57:57.001Z</time></trkpt><trkpt lat="40.30805246386448" lon="17.582760801666062"><ele>7.75</ele><time>2026-04-08T14:57:59.001Z</time></trkpt><trkpt lat="40.30816931920747" lon="17.582705587034653"><ele>8.0</ele><time>2026-04-08T14:58:01.001Z</time></trkpt><trkpt lat="40.30828655951828" lon="17.582651398293176"><ele>8.25</ele><time>2026-04-08T14:58:03.001Z</time></trkpt><trkpt lat="40.30840395498504" lon="17.5826005028405"><ele>8.5</ele><time>2026-04-08T14:58:05.001Z</time></trkpt><trkpt lat="40.30851948377337" lon="17.58255124235719"><ele>8.75</ele><time>2026-04-08T14:58:07.001Z</time></trkpt><trkpt lat="40.30863208017286" lon="17.58250353514709"><ele>9.0</ele><time>2026-04-08T14:58:09.001Z</time></trkpt><trkpt lat="40.30874135387449" lon="17.58245808063995"><ele>9.0</ele><time>2026-04-08T14:58:11.001Z</time></trkpt><trkpt lat="40.30884570780893" lon="17.582409238306475"><ele>9.0</ele><time>2026-04-08T14:58:13.001Z</time></trkpt><trkpt lat="40.30895298685569" lon="17.58236589781271"><ele>9.0</ele><time>2026-04-08T14:58:15.001Z</time></trkpt><trkpt lat="40.30905854391086" lon="17.582323331929683"><ele>9.0</ele><time>2026-04-08T14:58:17.001Z</time></trkpt><trkpt lat="40.30916190299785" lon="17.582278873599773"><ele>9.0</ele><time>2026-04-08T14:58:19.001Z</time></trkpt><trkpt lat="40.30926601317214" lon="17.582232662767545"><ele>9.0</ele><time>2026-04-08T14:58:21.001Z</time></trkpt><trkpt lat="40.30937099747593" lon="17.582186644124068"><ele>9.0</ele><time>2026-04-08T14:58:23.001Z</time></trkpt><trkpt lat="40.309473368433544" lon="17.582139705771308"><ele>9.0</ele><time>2026-04-08T14:58:25.001Z</time></trkpt><trkpt lat="40.30958146951018" lon="17.582093350000005"><ele>9.0</ele><time>2026-04-08T14:58:27.001Z</time></trkpt><trkpt lat="40.30968409460532" lon="17.582051954060557"><ele>9.0</ele><time>2026-04-08T14:58:29.001Z</time></trkpt><trkpt lat="40.309786915224386" lon="17.581999460337308"><ele>9.5</ele><time>2026-04-08T14:58:31.001Z</time></trkpt><trkpt lat="40.30989483687765" lon="17.581950549989767"><ele>10.0</ele><time>2026-04-08T14:58:33.001Z</time></trkpt><trkpt lat="40.3099997664337" lon="17.58190722845145"><ele>10.5</ele><time>2026-04-08T14:58:35Z</time></trkpt><trkpt lat="40.31010779844761" lon="17.58185641402949"><ele>11.0</ele><time>2026-04-08T14:58:37Z</time></trkpt><trkpt lat="40.31021487879049" lon="17.58181653518636"><ele>11.0</ele><time>2026-04-08T14:58:39Z</time></trkpt><trkpt lat="40.310317039037784" lon="17.581802624704437"><ele>11.0</ele><time>2026-04-08T14:58:41Z</time></trkpt><trkpt lat="40.31041312561335" lon="17.58180294525915"><ele>11.0</ele><time>2026-04-08T14:58:43Z</time></trkpt><trkpt lat="40.31050782652442" lon="17.581811490275406"><ele>11.0</ele><time>2026-04-08T14:58:45Z</time></trkpt><trkpt lat="40.3106061310848" lon="17.58182339187511"><ele>11.0</ele><time>2026-04-08T14:58:47Z</time></trkpt><trkpt lat="40.31070050062423" lon="17.58183930483749"><ele>10.8</ele><time>2026-04-08T14:58:49Z</time></trkpt><trkpt lat="40.310797259040726" lon="17.581845021323176"><ele>10.600000000000001</ele><time>2026-04-08T14:58:51Z</time></trkpt><trkpt lat="40.310891477571275" lon="17.581855978283613"><ele>10.4</ele><time>2026-04-08T14:58:53Z</time></trkpt><trkpt lat="40.31098754643159" lon="17.5818733122533"><ele>10.2</ele><time>2026-04-08T14:58:55Z</time></trkpt><trkpt lat="40.31108178742035" lon="17.581881235283674"><ele>10.0</ele><time>2026-04-08T14:58:57Z</time></trkpt><trkpt lat="40.31118073863679" lon="17.58188585116607"><ele>10.0</ele><time>2026-04-08T14:58:59Z</time></trkpt><trkpt lat="40.31127915714598" lon="17.58186354690529"><ele>10.0</ele><time>2026-04-08T14:59:01Z</time></trkpt><trkpt lat="40.311377115132196" lon="17.581829238460802"><ele>10.0</ele><time>2026-04-08T14:59:03Z</time></trkpt><trkpt lat="40.31146705521924" lon="17.581768809578012"><ele>10.0</ele><time>2026-04-08T14:59:05Z</time></trkpt><trkpt lat="40.311544710496236" lon="17.581676401998504"><ele>10.0</ele><time>2026-04-08T14:59:07Z</time></trkpt><trkpt lat="40.31160942721117" lon="17.581568910634232"><ele>10.2</ele><time>2026-04-08T14:59:09.001Z</time></trkpt><trkpt lat="40.31167158904235" lon="17.5814555128925"><ele>10.4</ele><time>2026-04-08T14:59:11.001Z</time></trkpt><trkpt lat="40.311738182425024" lon="17.58134291058878"><ele>10.600000000000001</ele><time>2026-04-08T14:59:13.001Z</time></trkpt><trkpt lat="40.3118089456258" lon="17.581234932284996"><ele>10.8</ele><time>2026-04-08T14:59:15.001Z</time></trkpt><trkpt lat="40.31187396831889" lon="17.581123859486794"><ele>11.0</ele><time>2026-04-08T14:59:17.001Z</time></trkpt><trkpt lat="40.31193875751882" lon="17.581012427537548"><ele>11.0</ele><time>2026-04-08T14:59:19.001Z</time></trkpt><trkpt lat="40.31199973001932" lon="17.58089843001348"><ele>11.0</ele><time>2026-04-08T14:59:21.001Z</time></trkpt><trkpt lat="40.3120688421468" lon="17.580788393949348"><ele>11.0</ele><time>2026-04-08T14:59:23.001Z</time></trkpt><trkpt lat="40.31214250705205" lon="17.580686555784364"><ele>11.0</ele><time>2026-04-08T14:59:25.001Z</time></trkpt><trkpt lat="40.31222747093813" lon="17.58060577815668"><ele>11.0</ele><time>2026-04-08T14:59:27.001Z</time></trkpt><trkpt lat="40.31232354554665" lon="17.58059646182522"><ele>11.0</ele><time>2026-04-08T14:59:29.001Z</time></trkpt><trkpt lat="40.31225263132278" lon="17.58055688040037"><ele>11.0</ele><time>2026-04-08T14:59:34.001Z</time></trkpt><trkpt lat="40.31221758998301" lon="17.58065422611677"><ele>11.0</ele><time>2026-04-08T14:59:36.001Z</time></trkpt><trkpt lat="40.31223206150307" lon="17.580785476528902"><ele>11.0</ele><time>2026-04-08T14:59:46.001Z</time></trkpt><trkpt lat="40.31223181522942" lon="17.58091793847043"><ele>11.0</ele><time>2026-04-08T14:59:48.001Z</time></trkpt><trkpt lat="40.312232890257924" lon="17.58104599247342"><ele>10.8</ele><time>2026-04-08T14:59:50.001Z</time></trkpt><trkpt lat="40.312242185774515" lon="17.58118498409239"><ele>10.600000000000001</ele><time>2026-04-08T14:59:52.001Z</time></trkpt><trkpt lat="40.312249247763525" lon="17.581325418690692"><ele>10.4</ele><time>2026-04-08T14:59:54.001Z</time></trkpt><trkpt lat="40.312257460967565" lon="17.58146120749575"><ele>10.2</ele><time>2026-04-08T14:59:56.001Z</time></trkpt><trkpt lat="40.312268252866055" lon="17.581593945846496"><ele>10.0</ele><time>2026-04-08T14:59:58.001Z</time></trkpt><trkpt lat="40.31227378517616" lon="17.58173004700767"><ele>10.0</ele><time>2026-04-08T15:00:00.001Z</time></trkpt><trkpt lat="40.31228064477637" lon="17.581855027516987"><ele>10.0</ele><time>2026-04-08T15:00:02.001Z</time></trkpt><trkpt lat="40.31226808619269" lon="17.58198152620021"><ele>10.0</ele><time>2026-04-08T15:00:04.001Z</time></trkpt><trkpt lat="40.3122748147243" lon="17.58210306127701"><ele>10.0</ele><time>2026-04-08T15:00:06.001Z</time></trkpt><trkpt lat="40.312285068071354" lon="17.582240819207264"><ele>10.0</ele><time>2026-04-08T15:00:08.001Z</time></trkpt><trkpt lat="40.31228697194106" lon="17.58239326572795"><ele>9.8</ele><time>2026-04-08T15:00:10.001Z</time></trkpt><trkpt lat="40.31227826146785" lon="17.58252319967331"><ele>9.6</ele><time>2026-04-08T15:00:12.001Z</time></trkpt><trkpt lat="40.31228057038021" lon="17.582660048006467"><ele>9.4</ele><time>2026-04-08T15:00:14.001Z</time></trkpt><trkpt lat="40.31230836911552" lon="17.582783790739217"><ele>9.2</ele><time>2026-04-08T15:00:16.001Z</time></trkpt><trkpt lat="40.312395589774155" lon="17.582807395797882"><ele>9.0</ele><time>2026-04-08T15:00:18.001Z</time></trkpt><trkpt lat="40.312477158989836" lon="17.58274357078695"><ele>9.0</ele><time>2026-04-08T15:00:20.001Z</time></trkpt><trkpt lat="40.31255561601655" lon="17.582713228489844"><ele>9.0</ele><time>2026-04-08T15:00:22.001Z</time></trkpt><trkpt lat="40.31264042635869" lon="17.582680264699274"><ele>9.0</ele><time>2026-04-08T15:00:24.001Z</time></trkpt><trkpt lat="40.312738106057715" lon="17.58271842860758"><ele>9.0</ele><time>2026-04-08T15:00:26.001Z</time></trkpt><trkpt lat="40.31275592944901" lon="17.582853388250406"><ele>9.0</ele><time>2026-04-08T15:00:28.001Z</time></trkpt><trkpt lat="40.31279202718913" lon="17.582949417034435"><ele>9.0</ele><time>2026-04-08T15:00:30Z</time></trkpt><trkpt lat="40.312893395049954" lon="17.58299795573194"><ele>9.0</ele><time>2026-04-08T15:00:32Z</time></trkpt><trkpt lat="40.31298842214947" lon="17.583000218803523"><ele>9.0</ele><time>2026-04-08T15:00:34Z</time></trkpt><trkpt lat="40.313080609469445" lon="17.582955396525968"><ele>9.0</ele><time>2026-04-08T15:00:36Z</time></trkpt><trkpt lat="40.31316541022141" lon="17.58292285347044"><ele>9.0</ele><time>2026-04-08T15:00:38Z</time></trkpt><trkpt lat="40.31323704752732" lon="17.58290923633626"><ele>9.0</ele><time>2026-04-08T15:00:41Z</time></trkpt><trkpt lat="40.31331903555595" lon="17.582875004763462"><ele>9.0</ele><time>2026-04-08T15:00:50Z</time></trkpt><trkpt lat="40.3134014944333" lon="17.582836734147875"><ele>9.0</ele><time>2026-04-08T15:00:52Z</time></trkpt><trkpt lat="40.31350036755715" lon="17.582801945643947"><ele>9.0</ele><time>2026-04-08T15:00:54Z</time></trkpt><trkpt lat="40.313604377907794" lon="17.582763452492568"><ele>9.0</ele><time>2026-04-08T15:00:56Z</time></trkpt><trkpt lat="40.31370986565595" lon="17.582747997591014"><ele>9.0</ele><time>2026-04-08T15:00:58Z</time></trkpt><trkpt lat="40.31379101709192" lon="17.58282381079608"><ele>9.0</ele><time>2026-04-08T15:01:00Z</time></trkpt><trkpt lat="40.31382028913712" lon="17.58295057407683"><ele>9.0</ele><time>2026-04-08T15:01:02Z</time></trkpt><trkpt lat="40.31385018125653" lon="17.58306225545946"><ele>9.0</ele><time>2026-04-08T15:01:04Z</time></trkpt><trkpt lat="40.31386171997738" lon="17.583167901147768"><ele>9.0</ele><time>2026-04-08T15:01:06Z</time></trkpt><trkpt lat="40.31391638696418" lon="17.583248694680538"><ele>9.166666666666666</ele><time>2026-04-08T15:01:08Z</time></trkpt><trkpt lat="40.31400346457191" lon="17.58324481337527"><ele>9.333333333333334</ele><time>2026-04-08T15:01:10Z</time></trkpt><trkpt lat="40.31408079174056" lon="17.583226926577403"><ele>9.5</ele><time>2026-04-08T15:01:12Z</time></trkpt><trkpt lat="40.3141807742462" lon="17.583216038721577"><ele>9.666666666666668</ele><time>2026-04-08T15:01:15Z</time></trkpt><trkpt lat="40.31425537553794" lon="17.583208020909282"><ele>9.833333333333334</ele><time>2026-04-08T15:01:17Z</time></trkpt><trkpt lat="40.31434184624004" lon="17.58320257499674"><ele>10.0</ele><time>2026-04-08T15:01:20Z</time></trkpt><trkpt lat="40.314425651982944" lon="17.583210045274363"><ele>10.0</ele><time>2026-04-08T15:01:23Z</time></trkpt><trkpt lat="40.31450189330753" lon="17.583197590883252"><ele>10.0</ele><time>2026-04-08T15:01:26Z</time></trkpt><trkpt lat="40.31457406431773" lon="17.583179685060287"><ele>10.0</ele><time>2026-04-08T15:01:29Z</time></trkpt><trkpt lat="40.314639246155195" lon="17.58316045761477"><ele>10.0</ele><time>2026-04-08T15:01:32Z</time></trkpt><trkpt lat="40.31471047794611" lon="17.583113191336025"><ele>10.0</ele><time>2026-04-08T15:01:36Z</time></trkpt><trkpt lat="40.31480416879838" lon="17.583064298100773"><ele>10.0</ele><time>2026-04-08T15:01:39Z</time></trkpt><trkpt lat="40.31487415599519" lon="17.583037463113275"><ele>10.285714285714285</ele><time>2026-04-08T15:01:43Z</time></trkpt><trkpt lat="40.314929346417074" lon="17.582984615545087"><ele>10.571428571428571</ele><time>2026-04-08T15:01:46Z</time></trkpt><trkpt lat="40.31499227203016" lon="17.582933193801722"><ele>10.857142857142858</ele><time>2026-04-08T15:01:49.001Z</time></trkpt><trkpt lat="40.31507076742913" lon="17.582919778268142"><ele>11.142857142857142</ele><time>2026-04-08T15:01:53.001Z</time></trkpt><trkpt lat="40.31514190800886" lon="17.58295596981052"><ele>11.428571428571429</ele><time>2026-04-08T15:01:56.001Z</time></trkpt><trkpt lat="40.315210065285655" lon="17.582988164498488"><ele>11.714285714285714</ele><time>2026-04-08T15:01:59.001Z</time></trkpt><trkpt lat="40.31527757199185" lon="17.583006853128257"><ele>12.0</ele><time>2026-04-08T15:02:02.001Z</time></trkpt><trkpt lat="40.31532805373421" lon="17.58307433218356"><ele>12.0</ele><time>2026-04-08T15:02:05.001Z</time></trkpt><trkpt lat="40.31536292393047" lon="17.58316915941069"><ele>12.0</ele><time>2026-04-08T15:02:08.001Z</time></trkpt><trkpt lat="40.315366837118404" lon="17.583290810639586"><ele>12.0</ele><time>2026-04-08T15:02:11.001Z</time></trkpt><trkpt lat="40.315368536671" lon="17.58338243955721"><ele>12.0</ele><time>2026-04-08T15:02:13.001Z</time></trkpt><trkpt lat="40.315384521150165" lon="17.58347378254637"><ele>12.0</ele><time>2026-04-08T15:02:15.001Z</time></trkpt><trkpt lat="40.3154175285147" lon="17.583554217913495"><ele>12.0</ele><time>2026-04-08T15:02:17.001Z</time></trkpt><trkpt lat="40.31546770068675" lon="17.583619648764184"><ele>12.0</ele><time>2026-04-08T15:02:19.001Z</time></trkpt><trkpt lat="40.315494707830794" lon="17.58370563118876"><ele>12.0</ele><time>2026-04-08T15:02:21.001Z</time></trkpt><trkpt lat="40.31551884509698" lon="17.5838138803327"><ele>12.0</ele><time>2026-04-08T15:02:23.001Z</time></trkpt><trkpt lat="40.31552675774212" lon="17.58392009908353"><ele>12.0</ele><time>2026-04-08T15:02:25.001Z</time></trkpt><trkpt lat="40.31553797123921" lon="17.584031636652167"><ele>12.0</ele><time>2026-04-08T15:02:27.001Z</time></trkpt><trkpt lat="40.315529299741165" lon="17.584142939157935"><ele>12.0</ele><time>2026-04-08T15:02:29.001Z</time></trkpt><trkpt lat="40.315528723438845" lon="17.584250461307192"><ele>12.0</ele><time>2026-04-08T15:02:31.001Z</time></trkpt><trkpt lat="40.31554773479085" lon="17.58435946515098"><ele>12.0</ele><time>2026-04-08T15:02:33.001Z</time></trkpt><trkpt lat="40.31557683910585" lon="17.58446061098997"><ele>12.0</ele><time>2026-04-08T15:02:35.001Z</time></trkpt><trkpt lat="40.31563014326445" lon="17.584548366884455"><ele>12.0</ele><time>2026-04-08T15:02:37Z</time></trkpt><trkpt lat="40.3156761283592" lon="17.584637380339498"><ele>12.0</ele><time>2026-04-08T15:02:39Z</time></trkpt><trkpt lat="40.31568625450839" lon="17.584740038525002"><ele>12.0</ele><time>2026-04-08T15:02:41Z</time></trkpt><trkpt lat="40.31569342326722" lon="17.584854193878314"><ele>12.0</ele><time>2026-04-08T15:02:43Z</time></trkpt><trkpt lat="40.31568085827166" lon="17.584973964368682"><ele>12.0</ele><time>2026-04-08T15:02:45Z</time></trkpt><trkpt lat="40.31567931835209" lon="17.585088575472287"><ele>12.0</ele><time>2026-04-08T15:02:47Z</time></trkpt><trkpt lat="40.31568795050264" lon="17.585206370968095"><ele>12.0</ele><time>2026-04-08T15:02:49Z</time></trkpt><trkpt lat="40.31569855288068" lon="17.585328326547913"><ele>12.0</ele><time>2026-04-08T15:02:51Z</time></trkpt><trkpt lat="40.315711176266205" lon="17.585456180370677"><ele>12.0</ele><time>2026-04-08T15:02:53Z</time></trkpt><trkpt lat="40.31572323091356" lon="17.585575955846746"><ele>12.0</ele><time>2026-04-08T15:02:55Z</time></trkpt><trkpt lat="40.31572806116985" lon="17.585691295655536"><ele>12.0</ele><time>2026-04-08T15:02:57Z</time></trkpt><trkpt lat="40.31572955803706" lon="17.585819672488253"><ele>12.0</ele><time>2026-04-08T15:02:59Z</time></trkpt><trkpt lat="40.31573119932541" lon="17.585930921990393"><ele>12.0</ele><time>2026-04-08T15:03:01Z</time></trkpt><trkpt lat="40.315733166594896" lon="17.586048986817154"><ele>12.0</ele><time>2026-04-08T15:03:03Z</time></trkpt><trkpt lat="40.315741682545585" lon="17.586167562410694"><ele>12.0</ele><time>2026-04-08T15:03:05Z</time></trkpt><trkpt lat="40.315748814711334" lon="17.586292191837586"><ele>12.0</ele><time>2026-04-08T15:03:07Z</time></trkpt><trkpt lat="40.31575458414866" lon="17.58640131924541"><ele>12.0</ele><time>2026-04-08T15:03:09Z</time></trkpt><trkpt lat="40.315773830202744" lon="17.586501032224596"><ele>12.0</ele><time>2026-04-08T15:03:11Z</time></trkpt><trkpt lat="40.315816288284836" lon="17.586591469360062"><ele>12.0</ele><time>2026-04-08T15:03:14Z</time></trkpt><trkpt lat="40.31583360303033" lon="17.58668441805049"><ele>11.999999999999998</ele><time>2026-04-08T15:03:19Z</time></trkpt><trkpt lat="40.31583890724561" lon="17.58677518564537"><ele>12.0</ele><time>2026-04-08T15:03:23Z</time></trkpt><trkpt lat="40.31586329244428" lon="17.586880537707323"><ele>12.0</ele><time>2026-04-08T15:03:27Z</time></trkpt><trkpt lat="40.3158658331059" lon="17.586977394694436"><ele>12.0</ele><time>2026-04-08T15:03:30Z</time></trkpt><trkpt lat="40.31587539122159" lon="17.587073501073778"><ele>12.0</ele><time>2026-04-08T15:03:34Z</time></trkpt><trkpt lat="40.31589852100305" lon="17.587173163256832"><ele>11.999999999999998</ele><time>2026-04-08T15:03:39Z</time></trkpt><trkpt lat="40.31594912689847" lon="17.587223182101695"><ele>12.0</ele><time>2026-04-08T15:03:42Z</time></trkpt><trkpt lat="40.31601987810249" lon="17.587234025651345"><ele>12.0</ele><time>2026-04-08T15:03:45Z</time></trkpt><trkpt lat="40.31612273833522" lon="17.58721271393242"><ele>12.0</ele><time>2026-04-08T15:03:48Z</time></trkpt><trkpt lat="40.316187975050845" lon="17.58720296711652"><ele>12.0</ele><time>2026-04-08T15:03:50Z</time></trkpt><trkpt lat="40.3163087456327" lon="17.587210764158183"><ele>12.0</ele><time>2026-04-08T15:03:54Z</time></trkpt><trkpt lat="40.31637340998603" lon="17.587230053602326"><ele>12.0</ele><time>2026-04-08T15:03:56Z</time></trkpt><trkpt lat="40.31645863148499" lon="17.587235981384875"><ele>12.0</ele><time>2026-04-08T15:03:59Z</time></trkpt><trkpt lat="40.31654320906593" lon="17.587258208920417"><ele>12.333333333333334</ele><time>2026-04-08T15:04:02Z</time></trkpt><trkpt lat="40.31662416605275" lon="17.58724265462745"><ele>12.666666666666668</ele><time>2026-04-08T15:04:05Z</time></trkpt><trkpt lat="40.31670769848131" lon="17.587237106999726"><ele>13.0</ele><time>2026-04-08T15:04:08Z</time></trkpt><trkpt lat="40.31677819409714" lon="17.58725675053911"><ele>13.333333333333334</ele><time>2026-04-08T15:04:11Z</time></trkpt><trkpt lat="40.31685545695246" lon="17.587262412271105"><ele>13.666666666666668</ele><time>2026-04-08T15:04:14Z</time></trkpt><trkpt lat="40.31694329694914" lon="17.58727623518122"><ele>14.0</ele><time>2026-04-08T15:04:17.001Z</time></trkpt><trkpt lat="40.317011927688895" lon="17.587280278873273"><ele>14.0</ele><time>2026-04-08T15:04:19.001Z</time></trkpt><trkpt lat="40.31707847041403" lon="17.58728878162127"><ele>14.0</ele><time>2026-04-08T15:04:21.001Z</time></trkpt><trkpt lat="40.317146754255745" lon="17.587306736426093"><ele>14.0</ele><time>2026-04-08T15:04:23.001Z</time></trkpt><trkpt lat="40.317210771101706" lon="17.587308610928144"><ele>14.0</ele><time>2026-04-08T15:04:25.001Z</time></trkpt><trkpt lat="40.317258021020535" lon="17.58739069484894"><ele>14.0</ele><time>2026-04-08T15:04:28.001Z</time></trkpt><trkpt lat="40.31724946580304" lon="17.587480960534613"><ele>14.0</ele><time>2026-04-08T15:04:30.001Z</time></trkpt><trkpt lat="40.317245516390855" lon="17.5875638949669"><ele>14.0</ele><time>2026-04-08T15:04:32.001Z</time></trkpt><trkpt lat="40.317239161422414" lon="17.587658402563754"><ele>14.000000000000002</ele><time>2026-04-08T15:04:34.001Z</time></trkpt><trkpt lat="40.31723473535468" lon="17.587767142467122"><ele>14.0</ele><time>2026-04-08T15:04:36.001Z</time></trkpt><trkpt lat="40.31724240352405" lon="17.587857228362733"><ele>14.0</ele><time>2026-04-08T15:04:39.001Z</time></trkpt><trkpt lat="40.317242993842136" lon="17.587964563170594"><ele>14.0</ele><time>2026-04-08T15:04:40.001Z</time></trkpt><trkpt lat="40.31725215998506" lon="17.588085054434917"><ele>14.000000000000002</ele><time>2026-04-08T15:04:42Z</time></trkpt><trkpt lat="40.31725136967675" lon="17.588208135404777"><ele>14.0</ele><time>2026-04-08T15:04:44Z</time></trkpt><trkpt lat="40.31724551591431" lon="17.588293060213317"><ele>14.0</ele><time>2026-04-08T15:04:46Z</time></trkpt><trkpt lat="40.31723552381765" lon="17.588411020939514"><ele>14.0</ele><time>2026-04-08T15:04:48Z</time></trkpt><trkpt lat="40.317246387584845" lon="17.588603220137124"><ele>14.0</ele><time>2026-04-08T15:04:50Z</time></trkpt><trkpt lat="40.317245325232584" lon="17.588742645999673"><ele>14.0</ele><time>2026-04-08T15:04:52Z</time></trkpt><trkpt lat="40.31724097433586" lon="17.58888580417128"><ele>14.25</ele><time>2026-04-08T15:04:54Z</time></trkpt><trkpt lat="40.31724050016799" lon="17.589030586905075"><ele>14.5</ele><time>2026-04-08T15:04:56Z</time></trkpt><trkpt lat="40.3172469285621" lon="17.589183870001868"><ele>14.75</ele><time>2026-04-08T15:04:58Z</time></trkpt><trkpt lat="40.31724755020332" lon="17.58933360423212"><ele>15.0</ele><time>2026-04-08T15:05:00Z</time></trkpt><trkpt lat="40.31723732479277" lon="17.58949100083931"><ele>15.0</ele><time>2026-04-08T15:05:02Z</time></trkpt><trkpt lat="40.31722445868217" lon="17.58962911358436"><ele>15.0</ele><time>2026-04-08T15:05:04Z</time></trkpt><trkpt lat="40.317221537947745" lon="17.589783984259324"><ele>15.0</ele><time>2026-04-08T15:05:06Z</time></trkpt><trkpt lat="40.317213261761204" lon="17.589933558457748"><ele>15.0</ele><time>2026-04-08T15:05:08Z</time></trkpt><trkpt lat="40.31720702161404" lon="17.59009100404445"><ele>15.0</ele><time>2026-04-08T15:05:10Z</time></trkpt><trkpt lat="40.31718755959762" lon="17.590235434052833"><ele>15.0</ele><time>2026-04-08T15:05:12Z</time></trkpt><trkpt lat="40.317146709763776" lon="17.59038099909024"><ele>15.0</ele><time>2026-04-08T15:05:14Z</time></trkpt><trkpt lat="40.317111126612275" lon="17.59053152097864"><ele>15.0</ele><time>2026-04-08T15:05:16Z</time></trkpt><trkpt lat="40.317095808118566" lon="17.590697793711815"><ele>14.857142857142858</ele><time>2026-04-08T15:05:18Z</time></trkpt><trkpt lat="40.31708948759475" lon="17.590779967972434"><ele>14.714285714285714</ele><time>2026-04-08T15:05:19Z</time></trkpt><trkpt lat="40.31708152861662" lon="17.590943651011344"><ele>14.571428571428571</ele><time>2026-04-08T15:05:21Z</time></trkpt><trkpt lat="40.3170780494512" lon="17.591031614481604"><ele>14.428571428571429</ele><time>2026-04-08T15:05:22Z</time></trkpt><trkpt lat="40.31707249641095" lon="17.59111549591679"><ele>14.285714285714285</ele><time>2026-04-08T15:05:23Z</time></trkpt><trkpt lat="40.31706567769626" lon="17.591200841747508"><ele>14.142857142857142</ele><time>2026-04-08T15:05:24Z</time></trkpt><trkpt lat="40.31706445833027" lon="17.591283865376187"><ele>14.0</ele><time>2026-04-08T15:05:25Z</time></trkpt><trkpt lat="40.31705656348299" lon="17.59144735986731"><ele>13.571428571428571</ele><time>2026-04-08T15:05:27Z</time></trkpt><trkpt lat="40.31705060214554" lon="17.59153093652251"><ele>13.142857142857142</ele><time>2026-04-08T15:05:28Z</time></trkpt><trkpt lat="40.317035402809765" lon="17.59162021238588"><ele>12.714285714285715</ele><time>2026-04-08T15:05:29Z</time></trkpt><trkpt lat="40.31702880231602" lon="17.59170836207433"><ele>12.285714285714285</ele><time>2026-04-08T15:05:30Z</time></trkpt><trkpt lat="40.31702362175843" lon="17.591794063540256"><ele>11.857142857142858</ele><time>2026-04-08T15:05:31Z</time></trkpt><trkpt lat="40.317017762682795" lon="17.59188208413155"><ele>11.428571428571429</ele><time>2026-04-08T15:05:32Z</time></trkpt><trkpt lat="40.31701236409303" lon="17.591974774703317"><ele>11.0</ele><time>2026-04-08T15:05:33Z</time></trkpt><trkpt lat="40.31701040897219" lon="17.592066534788238"><ele>10.857142857142858</ele><time>2026-04-08T15:05:34Z</time></trkpt><trkpt lat="40.31700050673352" lon="17.59215542909995"><ele>10.714285714285714</ele><time>2026-04-08T15:05:35Z</time></trkpt><trkpt lat="40.316992286533655" lon="17.592246405015974"><ele>10.571428571428571</ele><time>2026-04-08T15:05:36Z</time></trkpt><trkpt lat="40.31697907661687" lon="17.59233845325582"><ele>10.428571428571429</ele><time>2026-04-08T15:05:37Z</time></trkpt><trkpt lat="40.31695832991339" lon="17.592426438451184"><ele>10.285714285714286</ele><time>2026-04-08T15:05:38Z</time></trkpt><trkpt lat="40.31693514813235" lon="17.592515838871424"><ele>10.142857142857142</ele><time>2026-04-08T15:05:39Z</time></trkpt><trkpt lat="40.31691543343242" lon="17.592605484880714"><ele>10.0</ele><time>2026-04-08T15:05:40Z</time></trkpt><trkpt lat="40.31689264039264" lon="17.59269593219964"><ele>10.0</ele><time>2026-04-08T15:05:41Z</time></trkpt><trkpt lat="40.31687992520699" lon="17.59278441090679"><ele>10.0</ele><time>2026-04-08T15:05:42Z</time></trkpt><trkpt lat="40.316863127885185" lon="17.592874543110266"><ele>10.0</ele><time>2026-04-08T15:05:43Z</time></trkpt><trkpt lat="40.31684785614403" lon="17.592965265284256"><ele>10.0</ele><time>2026-04-08T15:05:44Z</time></trkpt><trkpt lat="40.31682707129075" lon="17.59305009641515"><ele>10.0</ele><time>2026-04-08T15:05:45Z</time></trkpt><trkpt lat="40.31681219473107" lon="17.593138509082664"><ele>10.0</ele><time>2026-04-08T15:05:46Z</time></trkpt><trkpt lat="40.31679563806435" lon="17.593223892728528"><ele>10.0</ele><time>2026-04-08T15:05:47Z</time></trkpt><trkpt lat="40.31678088279666" lon="17.593307669989283"><ele>10.0</ele><time>2026-04-08T15:05:48Z</time></trkpt><trkpt lat="40.31677495406542" lon="17.59339404745125"><ele>10.0</ele><time>2026-04-08T15:05:49Z</time></trkpt><trkpt lat="40.31676327842211" lon="17.593481444518726"><ele>10.0</ele><time>2026-04-08T15:05:50Z</time></trkpt><trkpt lat="40.31671952019722" lon="17.59355690446041"><ele>10.0</ele><time>2026-04-08T15:05:51Z</time></trkpt><trkpt lat="40.31668666452627" lon="17.593723126607273"><ele>10.0</ele><time>2026-04-08T15:05:53Z</time></trkpt><trkpt lat="40.31666772571368" lon="17.593804640405303"><ele>10.0</ele><time>2026-04-08T15:05:54Z</time></trkpt><trkpt lat="40.31666213353586" lon="17.593894305784183"><ele>10.0</ele><time>2026-04-08T15:05:55Z</time></trkpt><trkpt lat="40.3166397053312" lon="17.593972719013877"><ele>10.0</ele><time>2026-04-08T15:05:56Z</time></trkpt><trkpt lat="40.31661506482588" lon="17.59405102804018"><ele>10.0</ele><time>2026-04-08T15:05:57Z</time></trkpt><trkpt lat="40.31658918586648" lon="17.59413008954655"><ele>10.0</ele><time>2026-04-08T15:05:58Z</time></trkpt><trkpt lat="40.31657161779599" lon="17.594211136031827"><ele>10.0</ele><time>2026-04-08T15:05:59Z</time></trkpt><trkpt lat="40.31652770367958" lon="17.594371477571784"><ele>10.0</ele><time>2026-04-08T15:06:01Z</time></trkpt><trkpt lat="40.31648328627763" lon="17.594531987256165"><ele>10.2</ele><time>2026-04-08T15:06:03Z</time></trkpt><trkpt lat="40.31643847662249" lon="17.594676610148294"><ele>10.4</ele><time>2026-04-08T15:06:05Z</time></trkpt><trkpt lat="40.316418281914004" lon="17.594756457485722"><ele>10.600000000000001</ele><time>2026-04-08T15:06:06Z</time></trkpt><trkpt lat="40.31639493531174" lon="17.594836342825296"><ele>10.8</ele><time>2026-04-08T15:06:07Z</time></trkpt><trkpt lat="40.316371222518676" lon="17.59500479964775"><ele>11.0</ele><time>2026-04-08T15:06:09Z</time></trkpt><trkpt lat="40.31633226064253" lon="17.595157651933757"><ele>10.714285714285715</ele><time>2026-04-08T15:06:11Z</time></trkpt><trkpt lat="40.31633281811226" lon="17.595242019213007"><ele>10.428571428571429</ele><time>2026-04-08T15:06:12Z</time></trkpt><trkpt lat="40.31631379554842" lon="17.59532556079044"><ele>10.142857142857142</ele><time>2026-04-08T15:06:13Z</time></trkpt><trkpt lat="40.31630303546212" lon="17.595408540823836"><ele>9.857142857142858</ele><time>2026-04-08T15:06:14Z</time></trkpt><trkpt lat="40.316274345757" lon="17.59556780921706"><ele>9.571428571428571</ele><time>2026-04-08T15:06:16Z</time></trkpt><trkpt lat="40.31625973606823" lon="17.595649872453766"><ele>9.285714285714286</ele><time>2026-04-08T15:06:17Z</time></trkpt><trkpt lat="40.316243659718715" lon="17.59573109934213"><ele>9.0</ele><time>2026-04-08T15:06:18Z</time></trkpt><trkpt lat="40.31622192784212" lon="17.59589002861639"><ele>9.0</ele><time>2026-04-08T15:06:20Z</time></trkpt><trkpt lat="40.316194030673394" lon="17.59604350588563"><ele>9.0</ele><time>2026-04-08T15:06:22Z</time></trkpt><trkpt lat="40.31615183313831" lon="17.596196227993318"><ele>9.0</ele><time>2026-04-08T15:06:24Z</time></trkpt><trkpt lat="40.31613617999126" lon="17.59635719350546"><ele>9.0</ele><time>2026-04-08T15:06:26Z</time></trkpt><trkpt lat="40.31611950718508" lon="17.596438308066283"><ele>9.0</ele><time>2026-04-08T15:06:27Z</time></trkpt><trkpt lat="40.316096295084414" lon="17.59658963640259"><ele>9.5</ele><time>2026-04-08T15:06:29Z</time></trkpt><trkpt lat="40.316065791035065" lon="17.596745130381187"><ele>10.0</ele><time>2026-04-08T15:06:31Z</time></trkpt><trkpt lat="40.316039475200576" lon="17.59689932140578"><ele>10.5</ele><time>2026-04-08T15:06:33Z</time></trkpt><trkpt lat="40.31601375596202" lon="17.59705578195032"><ele>11.0</ele><time>2026-04-08T15:06:35Z</time></trkpt><trkpt lat="40.31598629889863" lon="17.597210980671754"><ele>11.0</ele><time>2026-04-08T15:06:37Z</time></trkpt><trkpt lat="40.315971924123716" lon="17.597291488092154"><ele>11.0</ele><time>2026-04-08T15:06:38Z</time></trkpt><trkpt lat="40.31594330888404" lon="17.597448562446363"><ele>11.0</ele><time>2026-04-08T15:06:40Z</time></trkpt><trkpt lat="40.315926028818936" lon="17.59752947453396"><ele>11.0</ele><time>2026-04-08T15:06:41Z</time></trkpt><trkpt lat="40.31591355617698" lon="17.597610521667928"><ele>11.0</ele><time>2026-04-08T15:06:42Z</time></trkpt><trkpt lat="40.3158891776996" lon="17.59776539494267"><ele>11.0</ele><time>2026-04-08T15:06:44Z</time></trkpt><trkpt lat="40.31586895061605" lon="17.597914374959895"><ele>11.0</ele><time>2026-04-08T15:06:46Z</time></trkpt><trkpt lat="40.31583770286376" lon="17.598057909432804"><ele>11.0</ele><time>2026-04-08T15:06:47.999Z</time></trkpt><trkpt lat="40.31580947502891" lon="17.59820741705883"><ele>11.0</ele><time>2026-04-08T15:06:49.999Z</time></trkpt><trkpt lat="40.3157788670217" lon="17.598339372882823"><ele>11.0</ele><time>2026-04-08T15:06:51.999Z</time></trkpt><trkpt lat="40.315754695069685" lon="17.598476118120036"><ele>11.0</ele><time>2026-04-08T15:06:53.999Z</time></trkpt><trkpt lat="40.31573090898282" lon="17.59860254195361"><ele>11.166666666666666</ele><time>2026-04-08T15:06:55.999Z</time></trkpt><trkpt lat="40.31570618840215" lon="17.59872810788079"><ele>11.333333333333332</ele><time>2026-04-08T15:06:57.999Z</time></trkpt><trkpt lat="40.315680354533896" lon="17.5988422083545"><ele>11.5</ele><time>2026-04-08T15:06:59.999Z</time></trkpt><trkpt lat="40.31564904703251" lon="17.598938030346297"><ele>11.666666666666666</ele><time>2026-04-08T15:07:02Z</time></trkpt><trkpt lat="40.31561121119586" lon="17.59903280299202"><ele>11.833333333333334</ele><time>2026-04-08T15:07:04Z</time></trkpt><trkpt lat="40.31556652708951" lon="17.599127948013244"><ele>12.0</ele><time>2026-04-08T15:07:06Z</time></trkpt><trkpt lat="40.31552460086965" lon="17.599246948220593"><ele>12.0</ele><time>2026-04-08T15:07:08Z</time></trkpt><trkpt lat="40.315472324833536" lon="17.599360218801795"><ele>12.0</ele><time>2026-04-08T15:07:10Z</time></trkpt><trkpt lat="40.31541438147363" lon="17.599474974304943"><ele>12.0</ele><time>2026-04-08T15:07:12Z</time></trkpt><trkpt lat="40.31535608069496" lon="17.599593859788065"><ele>12.0</ele><time>2026-04-08T15:07:14Z</time></trkpt><trkpt lat="40.31529782188641" lon="17.5997162363732"><ele>12.0</ele><time>2026-04-08T15:07:16Z</time></trkpt><trkpt lat="40.315238697712104" lon="17.599839039402177"><ele>12.2</ele><time>2026-04-08T15:07:18Z</time></trkpt><trkpt lat="40.31517567465775" lon="17.599970388636724"><ele>12.399999999999999</ele><time>2026-04-08T15:07:20Z</time></trkpt><trkpt lat="40.31510173091498" lon="17.60009130031767"><ele>12.600000000000001</ele><time>2026-04-08T15:07:22Z</time></trkpt><trkpt lat="40.31504063868203" lon="17.600219841271414"><ele>12.8</ele><time>2026-04-08T15:07:24Z</time></trkpt><trkpt lat="40.31500700333895" lon="17.60029061158598"><ele>13.0</ele><time>2026-04-08T15:07:25Z</time></trkpt><trkpt lat="40.31495684478352" lon="17.600425059373784"><ele>13.25</ele><time>2026-04-08T15:07:27Z</time></trkpt><trkpt lat="40.314897679852244" lon="17.600559422973244"><ele>13.5</ele><time>2026-04-08T15:07:29Z</time></trkpt><trkpt lat="40.31483801125101" lon="17.600685806571835"><ele>13.75</ele><time>2026-04-08T15:07:31Z</time></trkpt><trkpt lat="40.3147644303514" lon="17.60080099663915"><ele>14.0</ele><time>2026-04-08T15:07:33Z</time></trkpt><trkpt lat="40.31470230311954" lon="17.600931715312832"><ele>14.2</ele><time>2026-04-08T15:07:35Z</time></trkpt><trkpt lat="40.314650332434425" lon="17.601066145149503"><ele>14.399999999999999</ele><time>2026-04-08T15:07:37Z</time></trkpt><trkpt lat="40.314598871205874" lon="17.601189396617567"><ele>14.6</ele><time>2026-04-08T15:07:39Z</time></trkpt><trkpt lat="40.31453412651493" lon="17.601313358797558"><ele>14.8</ele><time>2026-04-08T15:07:41Z</time></trkpt><trkpt lat="40.31446992525314" lon="17.601418461188022"><ele>15.0</ele><time>2026-04-08T15:07:43Z</time></trkpt><trkpt lat="40.31442391996662" lon="17.60154377116816"><ele>15.0</ele><time>2026-04-08T15:07:45Z</time></trkpt><trkpt lat="40.3143679302049" lon="17.60166608297809"><ele>15.0</ele><time>2026-04-08T15:07:47Z</time></trkpt><trkpt lat="40.31430652823114" lon="17.60178537925929"><ele>15.0</ele><time>2026-04-08T15:07:49Z</time></trkpt><trkpt lat="40.314249525274406" lon="17.60190660042265"><ele>15.0</ele><time>2026-04-08T15:07:51Z</time></trkpt><trkpt lat="40.314196538430195" lon="17.602026515558233"><ele>15.0</ele><time>2026-04-08T15:07:53Z</time></trkpt><trkpt lat="40.314122880464915" lon="17.60213864829962"><ele>15.0</ele><time>2026-04-08T15:07:55Z</time></trkpt><trkpt lat="40.31407066458964" lon="17.602273340780563"><ele>15.0</ele><time>2026-04-08T15:07:57Z</time></trkpt><trkpt lat="40.314001333716334" lon="17.60239088205532"><ele>15.0</ele><time>2026-04-08T15:07:59Z</time></trkpt><trkpt lat="40.31394191929542" lon="17.602514178904535"><ele>15.0</ele><time>2026-04-08T15:08:01Z</time></trkpt><trkpt lat="40.31388247904692" lon="17.602637292250204"><ele>15.0</ele><time>2026-04-08T15:08:03Z</time></trkpt><trkpt lat="40.313826576617025" lon="17.602753083572022"><ele>15.0</ele><time>2026-04-08T15:08:05Z</time></trkpt><trkpt lat="40.31376886789962" lon="17.602872616333773"><ele>15.0</ele><time>2026-04-08T15:08:07Z</time></trkpt><trkpt lat="40.31370908913391" lon="17.602996436748747"><ele>15.0</ele><time>2026-04-08T15:08:09Z</time></trkpt><trkpt lat="40.313649666237346" lon="17.603119520079844"><ele>15.0</ele><time>2026-04-08T15:08:11Z</time></trkpt><trkpt lat="40.31358919194886" lon="17.603244781151048"><ele>14.75</ele><time>2026-04-08T15:08:13Z</time></trkpt><trkpt lat="40.31354479883666" lon="17.60337516446424"><ele>14.5</ele><time>2026-04-08T15:08:15Z</time></trkpt><trkpt lat="40.313469060454565" lon="17.60349361088486"><ele>14.25</ele><time>2026-04-08T15:08:17Z</time></trkpt><trkpt lat="40.31341064420446" lon="17.603614609156203"><ele>14.0</ele><time>2026-04-08T15:08:19Z</time></trkpt><trkpt lat="40.313348804308596" lon="17.60374269882168"><ele>13.799999999999999</ele><time>2026-04-08T15:08:21Z</time></trkpt><trkpt lat="40.313300898611296" lon="17.603876271698127"><ele>13.599999999999998</ele><time>2026-04-08T15:08:23Z</time></trkpt><trkpt lat="40.313243195246464" lon="17.603995032840327"><ele>13.4</ele><time>2026-04-08T15:08:25Z</time></trkpt><trkpt lat="40.313176314355765" lon="17.60409997923479"><ele>13.2</ele><time>2026-04-08T15:08:27Z</time></trkpt><trkpt lat="40.31312812560603" lon="17.604199793128114"><ele>13.0</ele><time>2026-04-08T15:08:29Z</time></trkpt><trkpt lat="40.31307806513247" lon="17.6043034839751"><ele>12.999999999999998</ele><time>2026-04-08T15:08:31Z</time></trkpt><trkpt lat="40.31303455081528" lon="17.604389880200713"><ele>13.0</ele><time>2026-04-08T15:08:33Z</time></trkpt><trkpt lat="40.313094567228895" lon="17.604351266221858"><ele>13.0</ele><time>2026-04-08T15:09:43Z</time></trkpt><trkpt lat="40.31312395821047" lon="17.60424930040388"><ele>13.0</ele><time>2026-04-08T15:09:45Z</time></trkpt><trkpt lat="40.313177077841985" lon="17.604149486740916"><ele>12.999999999999998</ele><time>2026-04-08T15:09:47Z</time></trkpt><trkpt lat="40.313241284879986" lon="17.60403384489492"><ele>13.0</ele><time>2026-04-08T15:09:49Z</time></trkpt><trkpt lat="40.31330664845377" lon="17.60390013820938"><ele>13.0</ele><time>2026-04-08T15:09:51Z</time></trkpt><trkpt lat="40.313364724261355" lon="17.603784200984162"><ele>13.0</ele><time>2026-04-08T15:09:53Z</time></trkpt><trkpt lat="40.31340952009807" lon="17.603671300761963"><ele>13.0</ele><time>2026-04-08T15:09:55Z</time></trkpt><trkpt lat="40.31345974644663" lon="17.603564464452614"><ele>13.0</ele><time>2026-04-08T15:09:57Z</time></trkpt><trkpt lat="40.31350667025415" lon="17.60346664124787"><ele>13.0</ele><time>2026-04-08T15:09:59Z</time></trkpt><trkpt lat="40.313557475222936" lon="17.60336772906913"><ele>13.166666666666666</ele><time>2026-04-08T15:10:01Z</time></trkpt><trkpt lat="40.31361413487146" lon="17.603274715596033"><ele>13.333333333333332</ele><time>2026-04-08T15:10:03Z</time></trkpt><trkpt lat="40.31364797460693" lon="17.603180195842647"><ele>13.5</ele><time>2026-04-08T15:10:05Z</time></trkpt><trkpt lat="40.31370236689765" lon="17.603088566406868"><ele>13.666666666666668</ele><time>2026-04-08T15:10:07Z</time></trkpt><trkpt lat="40.31373999078063" lon="17.60298190643335"><ele>13.833333333333334</ele><time>2026-04-08T15:10:09Z</time></trkpt><trkpt lat="40.31379711702106" lon="17.602895702582256"><ele>14.0</ele><time>2026-04-08T15:10:11Z</time></trkpt><trkpt lat="40.31384810364759" lon="17.6027900933691"><ele>14.000000000000002</ele><time>2026-04-08T15:10:13Z</time></trkpt><trkpt lat="40.31389411546622" lon="17.602688006241085"><ele>14.0</ele><time>2026-04-08T15:10:15Z</time></trkpt><trkpt lat="40.313941810049904" lon="17.602584360852127"><ele>14.0</ele><time>2026-04-08T15:10:17Z</time></trkpt><trkpt lat="40.31400376188577" lon="17.602547282498538"><ele>14.0</ele><time>2026-04-08T15:10:20Z</time></trkpt><trkpt lat="40.314100145311826" lon="17.602611458069294"><ele>14.000000000000002</ele><time>2026-04-08T15:10:23Z</time></trkpt><trkpt lat="40.31418011303189" lon="17.60261885616381"><ele>14.0</ele><time>2026-04-08T15:10:26Z</time></trkpt><trkpt lat="40.314253162620616" lon="17.602637432192065"><ele>14.000000000000002</ele><time>2026-04-08T15:10:29Z</time></trkpt><trkpt lat="40.31433888302847" lon="17.602662549904768"><ele>14.0</ele><time>2026-04-08T15:10:32Z</time></trkpt><trkpt lat="40.31439582712388" lon="17.602702891888388"><ele>14.0</ele><time>2026-04-08T15:10:34Z</time></trkpt><trkpt lat="40.314483261510254" lon="17.602733125862972"><ele>14.0</ele><time>2026-04-08T15:10:38.001Z</time></trkpt><trkpt lat="40.31455532510085" lon="17.60275412325071"><ele>14.000000000000002</ele><time>2026-04-08T15:10:40.001Z</time></trkpt><trkpt lat="40.31464848434844" lon="17.602780836442307"><ele>14.0</ele><time>2026-04-08T15:10:42.001Z</time></trkpt><trkpt lat="40.31471538266527" lon="17.602801552494483"><ele>14.000000000000002</ele><time>2026-04-08T15:10:44.001Z</time></trkpt><trkpt lat="40.31477845512901" lon="17.602830170273702"><ele>14.0</ele><time>2026-04-08T15:10:46.001Z</time></trkpt><trkpt lat="40.31486586922722" lon="17.60287517200815"><ele>14.0</ele><time>2026-04-08T15:10:49.001Z</time></trkpt><trkpt lat="40.314932458722" lon="17.602915644761286"><ele>14.0</ele><time>2026-04-08T15:10:51.001Z</time></trkpt><trkpt lat="40.314967446399464" lon="17.602985921465905"><ele>14.000000000000002</ele><time>2026-04-08T15:10:53.001Z</time></trkpt><trkpt lat="40.31500698404363" lon="17.603078860504716"><ele>14.0</ele><time>2026-04-08T15:10:56.001Z</time></trkpt><trkpt lat="40.315091111727256" lon="17.60310439713982"><ele>14.000000000000002</ele><time>2026-04-08T15:10:59.001Z</time></trkpt><trkpt lat="40.31517841718074" lon="17.60314303508781"><ele>14.0</ele><time>2026-04-08T15:11:03Z</time></trkpt><trkpt lat="40.31526261476368" lon="17.603169502031953"><ele>14.0</ele><time>2026-04-08T15:11:05Z</time></trkpt><trkpt lat="40.3153493317769" lon="17.603204318611596"><ele>14.0</ele><time>2026-04-08T15:11:08Z</time></trkpt><trkpt lat="40.31542660872024" lon="17.603229370383783"><ele>14.000000000000002</ele><time>2026-04-08T15:11:11Z</time></trkpt><trkpt lat="40.315508361725996" lon="17.603260757057864"><ele>14.0</ele><time>2026-04-08T15:11:14Z</time></trkpt><trkpt lat="40.31558429186594" lon="17.603282570066526"><ele>13.833333333333334</ele><time>2026-04-08T15:11:17Z</time></trkpt><trkpt lat="40.3156618897161" lon="17.603308502020003"><ele>13.666666666666668</ele><time>2026-04-08T15:11:20Z</time></trkpt><trkpt lat="40.31574367424844" lon="17.603334828826135"><ele>13.5</ele><time>2026-04-08T15:11:23Z</time></trkpt><trkpt lat="40.31582806348337" lon="17.603367169877803"><ele>13.333333333333332</ele><time>2026-04-08T15:11:26Z</time></trkpt><trkpt lat="40.3159084132136" lon="17.603391144145007"><ele>13.166666666666666</ele><time>2026-04-08T15:11:29Z</time></trkpt><trkpt lat="40.31599656994799" lon="17.603417932613223"><ele>13.0</ele><time>2026-04-08T15:11:32Z</time></trkpt><trkpt lat="40.31607995056091" lon="17.603440758291715"><ele>12.999999999999998</ele><time>2026-04-08T15:11:35Z</time></trkpt><trkpt lat="40.316167813577906" lon="17.603477586208836"><ele>13.0</ele><time>2026-04-08T15:11:38Z</time></trkpt><trkpt lat="40.31624475761577" lon="17.60350310435498"><ele>13.0</ele><time>2026-04-08T15:11:41Z</time></trkpt><trkpt lat="40.31633075865835" lon="17.60353530805438"><ele>13.0</ele><time>2026-04-08T15:11:44Z</time></trkpt><trkpt lat="40.31639425716712" lon="17.60355420432067"><ele>12.999999999999998</ele><time>2026-04-08T15:11:47Z</time></trkpt><trkpt lat="40.316466247777726" lon="17.60357604716414"><ele>13.0</ele><time>2026-04-08T15:11:50Z</time></trkpt><trkpt lat="40.3165211986615" lon="17.60350714044288"><ele>12.999999999999998</ele><time>2026-04-08T15:11:53Z</time></trkpt><trkpt lat="40.31652445009896" lon="17.603412117902472"><ele>13.0</ele><time>2026-04-08T15:11:56Z</time></trkpt><trkpt lat="40.31651774692435" lon="17.603503253496196"><ele>13.0</ele><time>2026-04-08T15:12:20.001Z</time></trkpt><trkpt lat="40.31647678393959" lon="17.603571101613458"><ele>13.0</ele><time>2026-04-08T15:12:24.001Z</time></trkpt><trkpt lat="40.31641015673935" lon="17.603574352253986"><ele>12.999999999999998</ele><time>2026-04-08T15:12:27.001Z</time></trkpt><trkpt lat="40.31633071889614" lon="17.60353960977713"><ele>13.0</ele><time>2026-04-08T15:12:30.001Z</time></trkpt><trkpt lat="40.31624066901228" lon="17.6035080443582"><ele>13.0</ele><time>2026-04-08T15:12:33.001Z</time></trkpt><trkpt lat="40.316178149556265" lon="17.603491900273823"><ele>13.0</ele><time>2026-04-08T15:12:35.001Z</time></trkpt><trkpt lat="40.31611630490819" lon="17.603465692279663"><ele>13.0</ele><time>2026-04-08T15:12:37.001Z</time></trkpt><trkpt lat="40.31605578289736" lon="17.603440856626033"><ele>13.0</ele><time>2026-04-08T15:12:39.001Z</time></trkpt><trkpt lat="40.31598656869024" lon="17.603423006722167"><ele>13.0</ele><time>2026-04-08T15:12:41.001Z</time></trkpt><trkpt lat="40.315923263227376" lon="17.60340417154682"><ele>13.0</ele><time>2026-04-08T15:12:43.001Z</time></trkpt><trkpt lat="40.315832412671604" lon="17.603365721305863"><ele>13.0</ele><time>2026-04-08T15:12:46.001Z</time></trkpt><trkpt lat="40.3157663346266" lon="17.603340536571373"><ele>13.0</ele><time>2026-04-08T15:12:48.001Z</time></trkpt><trkpt lat="40.315675272009" lon="17.603310043508802"><ele>13.0</ele><time>2026-04-08T15:12:51.001Z</time></trkpt><trkpt lat="40.31560459741948" lon="17.603289790137246"><ele>13.0</ele><time>2026-04-08T15:12:53.001Z</time></trkpt><trkpt lat="40.31554622161244" lon="17.603257341760482"><ele>13.0</ele><time>2026-04-08T15:12:55.001Z</time></trkpt><trkpt lat="40.31547352180668" lon="17.60324705004538"><ele>13.0</ele><time>2026-04-08T15:12:57.001Z</time></trkpt><trkpt lat="40.31540857913689" lon="17.60322317058587"><ele>13.0</ele><time>2026-04-08T15:12:59.001Z</time></trkpt><trkpt lat="40.31533835540023" lon="17.603196216544546"><ele>13.0</ele><time>2026-04-08T15:13:01.001Z</time></trkpt><trkpt lat="40.31522642858375" lon="17.6032021849567"><ele>13.166666666666666</ele><time>2026-04-08T15:13:04.001Z</time></trkpt><trkpt lat="40.31515275373289" lon="17.603140750763277"><ele>13.333333333333332</ele><time>2026-04-08T15:13:07Z</time></trkpt><trkpt lat="40.31506096996029" lon="17.603100360818498"><ele>13.5</ele><time>2026-04-08T15:13:10Z</time></trkpt><trkpt lat="40.31498564517422" lon="17.60304871332764"><ele>13.666666666666668</ele><time>2026-04-08T15:13:13Z</time></trkpt><trkpt lat="40.31494918318178" lon="17.60298134160792"><ele>13.833333333333334</ele><time>2026-04-08T15:13:15Z</time></trkpt><trkpt lat="40.31490276466745" lon="17.602909664059016"><ele>14.0</ele><time>2026-04-08T15:13:19Z</time></trkpt><trkpt lat="40.3148379675494" lon="17.602877396182397"><ele>14.000000000000002</ele><time>2026-04-08T15:13:22Z</time></trkpt><trkpt lat="40.314776406345054" lon="17.602839911204576"><ele>14.0</ele><time>2026-04-08T15:13:25Z</time></trkpt><trkpt lat="40.314707841569735" lon="17.6028127896215"><ele>14.0</ele><time>2026-04-08T15:13:28Z</time></trkpt><trkpt lat="40.31462337254083" lon="17.602778902658724"><ele>14.0</ele><time>2026-04-08T15:13:31Z</time></trkpt><trkpt lat="40.31453594458039" lon="17.602754743088767"><ele>14.000000000000002</ele><time>2026-04-08T15:13:34Z</time></trkpt><trkpt lat="40.3144520853784" lon="17.60272889202841"><ele>14.0</ele><time>2026-04-08T15:13:37Z</time></trkpt><trkpt lat="40.31438339904174" lon="17.602688878372817"><ele>14.000000000000002</ele><time>2026-04-08T15:13:40Z</time></trkpt><trkpt lat="40.314301803653755" lon="17.602669608912713"><ele>14.0</ele><time>2026-04-08T15:13:43Z</time></trkpt><trkpt lat="40.314240587175775" lon="17.602649825184358"><ele>14.0</ele><time>2026-04-08T15:13:45Z</time></trkpt><trkpt lat="40.31414993764482" lon="17.602622869427417"><ele>14.0</ele><time>2026-04-08T15:13:48Z</time></trkpt><trkpt lat="40.31406581840466" lon="17.602594713292493"><ele>14.000000000000002</ele><time>2026-04-08T15:13:51Z</time></trkpt><trkpt lat="40.314005912227096" lon="17.602565331432405"><ele>14.0</ele><time>2026-04-08T15:13:56Z</time></trkpt><trkpt lat="40.31393796397265" lon="17.602605972146325"><ele>14.000000000000002</ele><time>2026-04-08T15:14:00Z</time></trkpt><trkpt lat="40.3138920614538" lon="17.602696146505846"><ele>14.0</ele><time>2026-04-08T15:14:03Z</time></trkpt><trkpt lat="40.313852224115074" lon="17.602773022896685"><ele>14.0</ele><time>2026-04-08T15:14:05Z</time></trkpt><trkpt lat="40.31380588358238" lon="17.602853835804442"><ele>14.0</ele><time>2026-04-08T15:14:07Z</time></trkpt><trkpt lat="40.31376575435698" lon="17.60292756898306"><ele>14.000000000000002</ele><time>2026-04-08T15:14:09Z</time></trkpt><trkpt lat="40.31370803081568" lon="17.603031063400845"><ele>14.0</ele><time>2026-04-08T15:14:12Z</time></trkpt><trkpt lat="40.31366254938971" lon="17.603114958540775"><ele>14.000000000000002</ele><time>2026-04-08T15:14:14Z</time></trkpt><trkpt lat="40.313621065271214" lon="17.60320548786921"><ele>14.0</ele><time>2026-04-08T15:14:16Z</time></trkpt><trkpt lat="40.31357998976721" lon="17.60329697472494"><ele>14.0</ele><time>2026-04-08T15:14:18Z</time></trkpt><trkpt lat="40.31353578896399" lon="17.603384218594258"><ele>14.0</ele><time>2026-04-08T15:14:20Z</time></trkpt><trkpt lat="40.313491852338196" lon="17.603473411415408"><ele>14.000000000000002</ele><time>2026-04-08T15:14:22Z</time></trkpt><trkpt lat="40.313450518487535" lon="17.60356363142163"><ele>14.0</ele><time>2026-04-08T15:14:24Z</time></trkpt><trkpt lat="40.31340687819071" lon="17.603647278618293"><ele>13.833333333333334</ele><time>2026-04-08T15:14:26Z</time></trkpt><trkpt lat="40.31336000956145" lon="17.603732975568334"><ele>13.666666666666668</ele><time>2026-04-08T15:14:28Z</time></trkpt><trkpt lat="40.31331774494637" lon="17.603819586495923"><ele>13.5</ele><time>2026-04-08T15:14:30.001Z</time></trkpt><trkpt lat="40.31327584413633" lon="17.60390459662956"><ele>13.333333333333332</ele><time>2026-04-08T15:14:32.001Z</time></trkpt><trkpt lat="40.31323434470986" lon="17.603986129159612"><ele>13.166666666666666</ele><time>2026-04-08T15:14:34.001Z</time></trkpt><trkpt lat="40.31319764731814" lon="17.604070899605315"><ele>13.0</ele><time>2026-04-08T15:14:36.001Z</time></trkpt><trkpt lat="40.313158606476875" lon="17.604155398048746"><ele>12.999999999999998</ele><time>2026-04-08T15:14:38.001Z</time></trkpt><trkpt lat="40.313123110543344" lon="17.60424509065637"><ele>13.0</ele><time>2026-04-08T15:14:40.001Z</time></trkpt><trkpt lat="40.31307764412966" lon="17.604323775126957"><ele>13.0</ele><time>2026-04-08T15:14:42.001Z</time></trkpt><trkpt lat="40.31303962156831" lon="17.604411070081515"><ele>13.0</ele><time>2026-04-08T15:14:44.001Z</time></trkpt><trkpt lat="40.31299321240299" lon="17.604497304785887"><ele>12.999999999999998</ele><time>2026-04-08T15:14:46.001Z</time></trkpt><trkpt lat="40.312948747430056" lon="17.60458909536267"><ele>13.0</ele><time>2026-04-08T15:14:48.001Z</time></trkpt><trkpt lat="40.31290080655707" lon="17.60468586149617"><ele>13.0</ele><time>2026-04-08T15:14:50.001Z</time></trkpt><trkpt lat="40.31285302015608" lon="17.604789211313836"><ele>13.0</ele><time>2026-04-08T15:14:52.001Z</time></trkpt><trkpt lat="40.31280234201648" lon="17.60488733618523"><ele>13.0</ele><time>2026-04-08T15:14:54.001Z</time></trkpt><trkpt lat="40.312752006049195" lon="17.604992321891658"><ele>13.0</ele><time>2026-04-08T15:14:56.001Z</time></trkpt><trkpt lat="40.312702297379715" lon="17.605104964823663"><ele>13.0</ele><time>2026-04-08T15:14:58.001Z</time></trkpt><trkpt lat="40.3126479821537" lon="17.605213682483136"><ele>13.0</ele><time>2026-04-08T15:15:00.001Z</time></trkpt><trkpt lat="40.312597500322575" lon="17.605329197827082"><ele>13.0</ele><time>2026-04-08T15:15:02.001Z</time></trkpt><trkpt lat="40.31255192335694" lon="17.605455797062415"><ele>13.0</ele><time>2026-04-08T15:15:04.001Z</time></trkpt><trkpt lat="40.31249966180173" lon="17.605581865598225"><ele>13.0</ele><time>2026-04-08T15:15:06.001Z</time></trkpt><trkpt lat="40.312444643948446" lon="17.60570982204191"><ele>13.0</ele><time>2026-04-08T15:15:08.001Z</time></trkpt><trkpt lat="40.31239573467791" lon="17.605854642194654"><ele>13.0</ele><time>2026-04-08T15:15:10.001Z</time></trkpt><trkpt lat="40.312345797326756" lon="17.60599777578428"><ele>13.0</ele><time>2026-04-08T15:15:12Z</time></trkpt><trkpt lat="40.312298442041254" lon="17.60614359897034"><ele>13.0</ele><time>2026-04-08T15:15:14Z</time></trkpt><trkpt lat="40.312243072003554" lon="17.60628981991885"><ele>13.0</ele><time>2026-04-08T15:15:16Z</time></trkpt><trkpt lat="40.31221628936111" lon="17.606365243913057"><ele>13.0</ele><time>2026-04-08T15:15:17Z</time></trkpt><trkpt lat="40.312188784741586" lon="17.60644016471902"><ele>12.5</ele><time>2026-04-08T15:15:18Z</time></trkpt><trkpt lat="40.31213209845861" lon="17.606587994058398"><ele>12.0</ele><time>2026-04-08T15:15:20Z</time></trkpt><trkpt lat="40.31207737642338" lon="17.606746941290712"><ele>11.5</ele><time>2026-04-08T15:15:22Z</time></trkpt><trkpt lat="40.31202068379405" lon="17.606879742098318"><ele>11.0</ele><time>2026-04-08T15:15:24Z</time></trkpt><trkpt lat="40.31196759145358" lon="17.607019039383598"><ele>11.0</ele><time>2026-04-08T15:15:26Z</time></trkpt><trkpt lat="40.31190694310699" lon="17.60715312246026"><ele>11.0</ele><time>2026-04-08T15:15:28Z</time></trkpt><trkpt lat="40.31187756399585" lon="17.607231963639176"><ele>11.0</ele><time>2026-04-08T15:15:29Z</time></trkpt><trkpt lat="40.3118359295323" lon="17.607390706955783"><ele>11.0</ele><time>2026-04-08T15:15:31Z</time></trkpt><trkpt lat="40.31178765081072" lon="17.60752028511482"><ele>11.0</ele><time>2026-04-08T15:15:33Z</time></trkpt><trkpt lat="40.31171999253563" lon="17.60765513294796"><ele>11.0</ele><time>2026-04-08T15:15:35Z</time></trkpt><trkpt lat="40.31168053822143" lon="17.607802434184126"><ele>11.0</ele><time>2026-04-08T15:15:37Z</time></trkpt><trkpt lat="40.31162704873286" lon="17.6079457826049"><ele>11.0</ele><time>2026-04-08T15:15:39Z</time></trkpt><trkpt lat="40.31158677794346" lon="17.608097744826015"><ele>11.0</ele><time>2026-04-08T15:15:41Z</time></trkpt><trkpt lat="40.311537980630284" lon="17.608235667804628"><ele>11.4</ele><time>2026-04-08T15:15:43Z</time></trkpt><trkpt lat="40.31152526874728" lon="17.60838766782713"><ele>11.8</ele><time>2026-04-08T15:15:45Z</time></trkpt><trkpt lat="40.31151933103997" lon="17.608534198260298"><ele>12.200000000000001</ele><time>2026-04-08T15:15:47Z</time></trkpt><trkpt lat="40.31150554615679" lon="17.608678225089513"><ele>12.600000000000001</ele><time>2026-04-08T15:15:49Z</time></trkpt><trkpt lat="40.3114684922739" lon="17.608810260995057"><ele>13.0</ele><time>2026-04-08T15:15:51Z</time></trkpt><trkpt lat="40.311440656477195" lon="17.608932819658584"><ele>13.2</ele><time>2026-04-08T15:15:53Z</time></trkpt><trkpt lat="40.311422033375216" lon="17.609063570395506"><ele>13.4</ele><time>2026-04-08T15:15:55Z</time></trkpt><trkpt lat="40.31139395266936" lon="17.60918529009486"><ele>13.599999999999998</ele><time>2026-04-08T15:15:57Z</time></trkpt><trkpt lat="40.311366233119834" lon="17.609306308395986"><ele>13.799999999999999</ele><time>2026-04-08T15:15:59Z</time></trkpt><trkpt lat="40.31134280419885" lon="17.609431241654217"><ele>14.0</ele><time>2026-04-08T15:16:01Z</time></trkpt><trkpt lat="40.31131812020979" lon="17.609556032296993"><ele>13.666666666666668</ele><time>2026-04-08T15:16:03Z</time></trkpt><trkpt lat="40.31128973422934" lon="17.60966359996122"><ele>13.333333333333334</ele><time>2026-04-08T15:16:05Z</time></trkpt><trkpt lat="40.31127939675992" lon="17.60977873547688"><ele>13.0</ele><time>2026-04-08T15:16:07Z</time></trkpt><trkpt lat="40.311259268457995" lon="17.609893487969966"><ele>12.666666666666668</ele><time>2026-04-08T15:16:09Z</time></trkpt><trkpt lat="40.31123872196869" lon="17.609987882705756"><ele>12.333333333333334</ele><time>2026-04-08T15:16:11.001Z</time></trkpt><trkpt lat="40.31121968395191" lon="17.610099122758275"><ele>12.0</ele><time>2026-04-08T15:16:13.001Z</time></trkpt><trkpt lat="40.31120231019116" lon="17.61019424961948"><ele>12.0</ele><time>2026-04-08T15:16:15.001Z</time></trkpt><trkpt lat="40.31118012075395" lon="17.610288486494877"><ele>12.0</ele><time>2026-04-08T15:16:17.001Z</time></trkpt><trkpt lat="40.31115153907663" lon="17.610369701237243"><ele>12.0</ele><time>2026-04-08T15:16:19.001Z</time></trkpt><trkpt lat="40.31112288436535" lon="17.610486327539995"><ele>12.0</ele><time>2026-04-08T15:16:22.001Z</time></trkpt><trkpt lat="40.31109950697229" lon="17.61061077246501"><ele>12.0</ele><time>2026-04-08T15:16:25.001Z</time></trkpt><trkpt lat="40.311082545753834" lon="17.610702313829545"><ele>12.0</ele><time>2026-04-08T15:16:27.001Z</time></trkpt><trkpt lat="40.31110783446067" lon="17.61078604712958"><ele>12.333333333333334</ele><time>2026-04-08T15:16:29.001Z</time></trkpt><trkpt lat="40.31115700956756" lon="17.610883323644426"><ele>12.666666666666668</ele><time>2026-04-08T15:16:32.001Z</time></trkpt><trkpt lat="40.3112042051675" lon="17.610953851015164"><ele>13.0</ele><time>2026-04-08T15:16:35.001Z</time></trkpt><trkpt lat="40.31127557023264" lon="17.611025562259012"><ele>13.333333333333334</ele><time>2026-04-08T15:16:38.001Z</time></trkpt><trkpt lat="40.31133480319544" lon="17.611054486308966"><ele>13.666666666666668</ele><time>2026-04-08T15:16:41.001Z</time></trkpt><trkpt lat="40.311398499189586" lon="17.611071954514703"><ele>14.0</ele><time>2026-04-08T15:16:43.001Z</time></trkpt><trkpt lat="40.31146891268133" lon="17.611086107855066"><ele>14.166666666666668</ele><time>2026-04-08T15:16:46.001Z</time></trkpt><trkpt lat="40.31158811756584" lon="17.611119682909205"><ele>14.333333333333334</ele><time>2026-04-08T15:16:48.001Z</time></trkpt><trkpt lat="40.31166464727622" lon="17.611133308236955"><ele>14.5</ele><time>2026-04-08T15:16:50.001Z</time></trkpt><trkpt lat="40.31175553281263" lon="17.611152326370824"><ele>14.666666666666668</ele><time>2026-04-08T15:16:53.001Z</time></trkpt><trkpt lat="40.3118264664922" lon="17.61114405788935"><ele>14.833333333333334</ele><time>2026-04-08T15:16:55.001Z</time></trkpt><trkpt lat="40.311892423182385" lon="17.611141425430883"><ele>15.0</ele><time>2026-04-08T15:16:57.001Z</time></trkpt><trkpt lat="40.311963572830955" lon="17.611137571357936"><ele>15.0</ele><time>2026-04-08T15:16:59.001Z</time></trkpt><trkpt lat="40.312033540510505" lon="17.61112540558068"><ele>15.0</ele><time>2026-04-08T15:17:01.001Z</time></trkpt><trkpt lat="40.3121129473385" lon="17.611133471897183"><ele>15.0</ele><time>2026-04-08T15:17:05.001Z</time></trkpt><trkpt lat="40.31218793524069" lon="17.611130083021898"><ele>15.0</ele><time>2026-04-08T15:17:08.001Z</time></trkpt><trkpt lat="40.31226865379473" lon="17.6111271807432"><ele>15.0</ele><time>2026-04-08T15:17:10.001Z</time></trkpt><trkpt lat="40.31235602400568" lon="17.611131741534876"><ele>15.0</ele><time>2026-04-08T15:17:12.001Z</time></trkpt><trkpt lat="40.31244774537332" lon="17.611120783779263"><ele>15.166666666666666</ele><time>2026-04-08T15:17:14.001Z</time></trkpt><trkpt lat="40.312520730107195" lon="17.611119182359253"><ele>15.333333333333332</ele><time>2026-04-08T15:17:16.001Z</time></trkpt><trkpt lat="40.312590965765494" lon="17.611116570269367"><ele>15.5</ele><time>2026-04-08T15:17:19Z</time></trkpt><trkpt lat="40.31271906729106" lon="17.611120525852737"><ele>15.666666666666666</ele><time>2026-04-08T15:17:22Z</time></trkpt><trkpt lat="40.31279831007531" lon="17.611121327441996"><ele>15.833333333333332</ele><time>2026-04-08T15:17:24Z</time></trkpt><trkpt lat="40.31289136307397" lon="17.611107971817315"><ele>16.0</ele><time>2026-04-08T15:17:27Z</time></trkpt><trkpt lat="40.31297737219637" lon="17.611111526311728"><ele>15.999999999999998</ele><time>2026-04-08T15:17:30Z</time></trkpt><trkpt lat="40.31305393006037" lon="17.611117299044512"><ele>16.0</ele><time>2026-04-08T15:17:33Z</time></trkpt><trkpt lat="40.313140527371175" lon="17.611113169470975"><ele>16.0</ele><time>2026-04-08T15:17:36Z</time></trkpt><trkpt lat="40.31321572046777" lon="17.611111583442348"><ele>16.0</ele><time>2026-04-08T15:17:39Z</time></trkpt><trkpt lat="40.31328765890674" lon="17.61111500073633"><ele>15.999999999999998</ele><time>2026-04-08T15:17:42Z</time></trkpt><trkpt lat="40.3133680741535" lon="17.611118924755853"><ele>16.0</ele><time>2026-04-08T15:17:44Z</time></trkpt><trkpt lat="40.313459693903056" lon="17.611109344957196"><ele>16.5</ele><time>2026-04-08T15:17:47Z</time></trkpt><trkpt lat="40.3135525844191" lon="17.611103770985412"><ele>17.0</ele><time>2026-04-08T15:17:50Z</time></trkpt><trkpt lat="40.3136438324006" lon="17.61110354666606"><ele>17.5</ele><time>2026-04-08T15:17:53Z</time></trkpt><trkpt lat="40.313730206968" lon="17.611119984834726"><ele>18.0</ele><time>2026-04-08T15:17:56Z</time></trkpt><trkpt lat="40.31379601266982" lon="17.61109750928646"><ele>18.5</ele><time>2026-04-08T15:17:58Z</time></trkpt><trkpt lat="40.31386219630193" lon="17.61109539767887"><ele>19.0</ele><time>2026-04-08T15:18:00Z</time></trkpt><trkpt lat="40.31394369267244" lon="17.611098026393474"><ele>19.666666666666664</ele><time>2026-04-08T15:18:03Z</time></trkpt><trkpt lat="40.31400810462248" lon="17.61109732438238"><ele>20.333333333333332</ele><time>2026-04-08T15:18:05Z</time></trkpt><trkpt lat="40.31409077510132" lon="17.611096421028247"><ele>21.0</ele><time>2026-04-08T15:18:08Z</time></trkpt><trkpt lat="40.314178925741835" lon="17.611099410496912"><ele>21.666666666666668</ele><time>2026-04-08T15:18:11Z</time></trkpt><trkpt lat="40.31426619253327" lon="17.611102305956337"><ele>22.333333333333336</ele><time>2026-04-08T15:18:14Z</time></trkpt><trkpt lat="40.314358298498426" lon="17.611102779940428"><ele>23.0</ele><time>2026-04-08T15:18:17.001Z</time></trkpt><trkpt lat="40.314451509713535" lon="17.61110462868152"><ele>23.0</ele><time>2026-04-08T15:18:20.001Z</time></trkpt><trkpt lat="40.31451629388251" lon="17.611117218778983"><ele>23.0</ele><time>2026-04-08T15:18:22.001Z</time></trkpt><trkpt lat="40.31458106522842" lon="17.611120176839957"><ele>23.0</ele><time>2026-04-08T15:18:24.001Z</time></trkpt><trkpt lat="40.314645068342124" lon="17.611101593794597"><ele>23.0</ele><time>2026-04-08T15:18:26.001Z</time></trkpt><trkpt lat="40.31470967838433" lon="17.61111053433802"><ele>23.0</ele><time>2026-04-08T15:18:28.001Z</time></trkpt><trkpt lat="40.314775477585144" lon="17.611112992806625"><ele>23.0</ele><time>2026-04-08T15:18:30.001Z</time></trkpt><trkpt lat="40.31486653043493" lon="17.61110516134601"><ele>23.0</ele><time>2026-04-08T15:18:33.001Z</time></trkpt><trkpt lat="40.314948665582584" lon="17.611086769097614"><ele>23.142857142857142</ele><time>2026-04-08T15:18:36.001Z</time></trkpt><trkpt lat="40.31502755695577" lon="17.611097938700063"><ele>23.285714285714285</ele><time>2026-04-08T15:18:39.001Z</time></trkpt><trkpt lat="40.31509439764018" lon="17.611085526137515"><ele>23.428571428571427</ele><time>2026-04-08T15:18:42.001Z</time></trkpt><trkpt lat="40.31516584034733" lon="17.611073082630742"><ele>23.57142857142857</ele><time>2026-04-08T15:18:46.001Z</time></trkpt><trkpt lat="40.31522903142414" lon="17.61107733200882"><ele>23.714285714285715</ele><time>2026-04-08T15:18:50.001Z</time></trkpt><trkpt lat="40.31530149266161" lon="17.611073274783084"><ele>23.857142857142854</ele><time>2026-04-08T15:18:55.001Z</time></trkpt><trkpt lat="40.315367753681606" lon="17.611070094828236"><ele>24.0</ele><time>2026-04-08T15:18:59.001Z</time></trkpt><trkpt lat="40.31543244544391" lon="17.61107381326054"><ele>23.999999999999996</ele><time>2026-04-08T15:19:03.001Z</time></trkpt><trkpt lat="40.31551644627659" lon="17.611070170637092"><ele>24.0</ele><time>2026-04-08T15:19:07.001Z</time></trkpt><trkpt lat="40.315576532695104" lon="17.611096075049876"><ele>24.0</ele><time>2026-04-08T15:19:10.001Z</time></trkpt><trkpt lat="40.31563849190457" lon="17.611067556801014"><ele>24.0</ele><time>2026-04-08T15:19:13.001Z</time></trkpt><trkpt lat="40.31571252984824" lon="17.61106761203464"><ele>24.0</ele><time>2026-04-08T15:19:16.001Z</time></trkpt><trkpt lat="40.31578402009466" lon="17.61105773099195"><ele>23.999999999999996</ele><time>2026-04-08T15:19:19.001Z</time></trkpt><trkpt lat="40.315856668280006" lon="17.611052086791158"><ele>24.0</ele><time>2026-04-08T15:19:22.001Z</time></trkpt><trkpt lat="40.315936222753535" lon="17.611059694923576"><ele>24.0</ele><time>2026-04-08T15:19:25Z</time></trkpt><trkpt lat="40.31601305158221" lon="17.611049388598957"><ele>24.0</ele><time>2026-04-08T15:19:28Z</time></trkpt><trkpt lat="40.31608510585782" lon="17.61106666650158"><ele>24.0</ele><time>2026-04-08T15:19:31Z</time></trkpt><trkpt lat="40.31617056981148" lon="17.611059429707783"><ele>24.0</ele><time>2026-04-08T15:19:34Z</time></trkpt><trkpt lat="40.31624984711123" lon="17.61107775812362"><ele>24.0</ele><time>2026-04-08T15:19:37Z</time></trkpt><trkpt lat="40.31632839986487" lon="17.611088302144037"><ele>24.0</ele><time>2026-04-08T15:19:40Z</time></trkpt><trkpt lat="40.31640677307304" lon="17.611077065189296"><ele>24.0</ele><time>2026-04-08T15:19:43Z</time></trkpt><trkpt lat="40.31647694562068" lon="17.61102472347992"><ele>24.0</ele><time>2026-04-08T15:19:46Z</time></trkpt><trkpt lat="40.3165613563918" lon="17.611038947100113"><ele>24.0</ele><time>2026-04-08T15:19:49Z</time></trkpt><trkpt lat="40.31663772847062" lon="17.61105150163461"><ele>24.0</ele><time>2026-04-08T15:19:52Z</time></trkpt><trkpt lat="40.31671940732028" lon="17.611042447174803"><ele>24.0</ele><time>2026-04-08T15:19:55Z</time></trkpt><trkpt lat="40.316805611164526" lon="17.61105507680572"><ele>24.0</ele><time>2026-04-08T15:19:58Z</time></trkpt><trkpt lat="40.3168830722682" lon="17.61105030843738"><ele>24.0</ele><time>2026-04-08T15:20:01Z</time></trkpt><trkpt lat="40.316974337259516" lon="17.611045969322813"><ele>24.0</ele><time>2026-04-08T15:20:04Z</time></trkpt><trkpt lat="40.317066216454535" lon="17.611051498776195"><ele>24.0</ele><time>2026-04-08T15:20:06Z</time></trkpt><trkpt lat="40.317137553328664" lon="17.611058598818484"><ele>24.0</ele><time>2026-04-08T15:20:08Z</time></trkpt><trkpt lat="40.31729666419936" lon="17.6110696143205"><ele>24.0</ele><time>2026-04-08T15:20:11Z</time></trkpt><trkpt lat="40.317393576762484" lon="17.61107287295483"><ele>24.0</ele><time>2026-04-08T15:20:13Z</time></trkpt><trkpt lat="40.31749540617903" lon="17.611060911422836"><ele>24.0</ele><time>2026-04-08T15:20:15Z</time></trkpt><trkpt lat="40.317598596650406" lon="17.61105927447522"><ele>24.0</ele><time>2026-04-08T15:20:17Z</time></trkpt><trkpt lat="40.31770511184631" lon="17.611054077747237"><ele>24.0</ele><time>2026-04-08T15:20:19Z</time></trkpt><trkpt lat="40.31781968613616" lon="17.611055118558728"><ele>24.0</ele><time>2026-04-08T15:20:21Z</time></trkpt><trkpt lat="40.31792039521068" lon="17.61105657556803"><ele>24.0</ele><time>2026-04-08T15:20:23Z</time></trkpt><trkpt lat="40.318022124393025" lon="17.61106162629298"><ele>24.0</ele><time>2026-04-08T15:20:25Z</time></trkpt><trkpt lat="40.318134474811224" lon="17.61104446612713"><ele>24.0</ele><time>2026-04-08T15:20:27Z</time></trkpt><trkpt lat="40.31825198411979" lon="17.611055817973956"><ele>24.0</ele><time>2026-04-08T15:20:29Z</time></trkpt><trkpt lat="40.318315051884866" lon="17.611064780405027"><ele>24.0</ele><time>2026-04-08T15:20:32.001Z</time></trkpt><trkpt lat="40.31834902914889" lon="17.61114971369049"><ele>23.6</ele><time>2026-04-08T15:20:35.001Z</time></trkpt><trkpt lat="40.31835522585689" lon="17.611257429798272"><ele>23.2</ele><time>2026-04-08T15:20:37.001Z</time></trkpt><trkpt lat="40.3183640639796" lon="17.611374256285718"><ele>22.8</ele><time>2026-04-08T15:20:39.001Z</time></trkpt><trkpt lat="40.318376561819704" lon="17.611503987075018"><ele>22.400000000000002</ele><time>2026-04-08T15:20:41.001Z</time></trkpt><trkpt lat="40.3183828718109" lon="17.61164450694977"><ele>22.0</ele><time>2026-04-08T15:20:43.001Z</time></trkpt><trkpt lat="40.31840105426444" lon="17.611779120865968"><ele>22.0</ele><time>2026-04-08T15:20:45.001Z</time></trkpt><trkpt lat="40.318412700623114" lon="17.6119233422425"><ele>22.0</ele><time>2026-04-08T15:20:47.001Z</time></trkpt><trkpt lat="40.3184271947559" lon="17.612064737626525"><ele>22.0</ele><time>2026-04-08T15:20:49.001Z</time></trkpt><trkpt lat="40.318442680784464" lon="17.61220878516914"><ele>22.0</ele><time>2026-04-08T15:20:51.001Z</time></trkpt><trkpt lat="40.3184573399545" lon="17.612353423035362"><ele>22.0</ele><time>2026-04-08T15:20:53.001Z</time></trkpt><trkpt lat="40.31847613685275" lon="17.612504188212736"><ele>22.0</ele><time>2026-04-08T15:20:55.001Z</time></trkpt><trkpt lat="40.31849516568731" lon="17.612659347285792"><ele>22.0</ele><time>2026-04-08T15:20:57.001Z</time></trkpt><trkpt lat="40.31851244965677" lon="17.612817151040456"><ele>22.0</ele><time>2026-04-08T15:20:59.001Z</time></trkpt><trkpt lat="40.31852854305267" lon="17.612974515519937"><ele>22.0</ele><time>2026-04-08T15:21:01.001Z</time></trkpt><trkpt lat="40.318545924548154" lon="17.613138172951906"><ele>22.0</ele><time>2026-04-08T15:21:03.001Z</time></trkpt><trkpt lat="40.31856316909335" lon="17.61330092616097"><ele>22.0</ele><time>2026-04-08T15:21:05.001Z</time></trkpt><trkpt lat="40.318570965584776" lon="17.613384439462564"><ele>22.0</ele><time>2026-04-08T15:21:06.001Z</time></trkpt><trkpt lat="40.318588420553546" lon="17.61354698932376"><ele>22.0</ele><time>2026-04-08T15:21:08.001Z</time></trkpt><trkpt lat="40.318607771257234" lon="17.613710312814135"><ele>22.0</ele><time>2026-04-08T15:21:10.001Z</time></trkpt><trkpt lat="40.31862483725149" lon="17.613873318507917"><ele>22.200000000000003</ele><time>2026-04-08T15:21:12.001Z</time></trkpt><trkpt lat="40.318643170437426" lon="17.614032972125877"><ele>22.4</ele><time>2026-04-08T15:21:14.001Z</time></trkpt><trkpt lat="40.31864492382511" lon="17.614119465509095"><ele>22.6</ele><time>2026-04-08T15:21:15.001Z</time></trkpt><trkpt lat="40.31866696401187" lon="17.614272960466934"><ele>22.799999999999997</ele><time>2026-04-08T15:21:17.001Z</time></trkpt><trkpt lat="40.318688536118366" lon="17.614430071302206"><ele>23.0</ele><time>2026-04-08T15:21:19.001Z</time></trkpt><trkpt lat="40.31869963884796" lon="17.61458937158163"><ele>23.0</ele><time>2026-04-08T15:21:21.001Z</time></trkpt><trkpt lat="40.318713922237855" lon="17.614746276985883"><ele>23.0</ele><time>2026-04-08T15:21:23.001Z</time></trkpt><trkpt lat="40.318724284189784" lon="17.614828284875788"><ele>23.0</ele><time>2026-04-08T15:21:24.001Z</time></trkpt><trkpt lat="40.31874175740627" lon="17.614987267428802"><ele>23.0</ele><time>2026-04-08T15:21:26.001Z</time></trkpt><trkpt lat="40.31875994462954" lon="17.615148031647806"><ele>23.0</ele><time>2026-04-08T15:21:28.001Z</time></trkpt><trkpt lat="40.318778624467384" lon="17.615313448446074"><ele>23.0</ele><time>2026-04-08T15:21:30Z</time></trkpt><trkpt lat="40.31879524419889" lon="17.615474102688626"><ele>23.0</ele><time>2026-04-08T15:21:32Z</time></trkpt><trkpt lat="40.31881460741386" lon="17.615636069137675"><ele>23.0</ele><time>2026-04-08T15:21:34Z</time></trkpt><trkpt lat="40.3188325505071" lon="17.6157974946398"><ele>23.0</ele><time>2026-04-08T15:21:36Z</time></trkpt><trkpt lat="40.318845434681755" lon="17.615957594575377"><ele>23.0</ele><time>2026-04-08T15:21:38Z</time></trkpt><trkpt lat="40.3188541308091" lon="17.616039457032695"><ele>23.0</ele><time>2026-04-08T15:21:39Z</time></trkpt><trkpt lat="40.318863373210746" lon="17.61612130369522"><ele>23.0</ele><time>2026-04-08T15:21:40Z</time></trkpt><trkpt lat="40.318881035272824" lon="17.61628444000961"><ele>23.0</ele><time>2026-04-08T15:21:42Z</time></trkpt><trkpt lat="40.318905504698925" lon="17.616439016849615"><ele>23.0</ele><time>2026-04-08T15:21:44Z</time></trkpt><trkpt lat="40.31891248087713" lon="17.616521738137113"><ele>23.0</ele><time>2026-04-08T15:21:45Z</time></trkpt><trkpt lat="40.31891878810233" lon="17.61660433732474"><ele>23.25</ele><time>2026-04-08T15:21:46Z</time></trkpt><trkpt lat="40.318933610980075" lon="17.61676810471268"><ele>23.5</ele><time>2026-04-08T15:21:48Z</time></trkpt><trkpt lat="40.31894753081497" lon="17.61691871917997"><ele>23.75</ele><time>2026-04-08T15:21:50Z</time></trkpt><trkpt lat="40.31896618167979" lon="17.61706888869812"><ele>24.0</ele><time>2026-04-08T15:21:52Z</time></trkpt><trkpt lat="40.31897478684204" lon="17.617219052398493"><ele>24.0</ele><time>2026-04-08T15:21:54Z</time></trkpt><trkpt lat="40.31899311600804" lon="17.61736408298292"><ele>24.0</ele><time>2026-04-08T15:21:56Z</time></trkpt><trkpt lat="40.31900361601597" lon="17.617511022139766"><ele>24.0</ele><time>2026-04-08T15:21:58Z</time></trkpt><trkpt lat="40.319024427827884" lon="17.617650490748225"><ele>24.0</ele><time>2026-04-08T15:22:00Z</time></trkpt><trkpt lat="40.31903489504245" lon="17.61779261780185"><ele>24.0</ele><time>2026-04-08T15:22:02Z</time></trkpt><trkpt lat="40.319043055097424" lon="17.617929282442322"><ele>24.0</ele><time>2026-04-08T15:22:04Z</time></trkpt><trkpt lat="40.31905780389083" lon="17.618067024899414"><ele>24.0</ele><time>2026-04-08T15:22:06Z</time></trkpt><trkpt lat="40.31906761839761" lon="17.618205540978963"><ele>24.0</ele><time>2026-04-08T15:22:08Z</time></trkpt><trkpt lat="40.31907893172325" lon="17.61834644960507"><ele>24.0</ele><time>2026-04-08T15:22:10Z</time></trkpt><trkpt lat="40.31908937187546" lon="17.618485003642803"><ele>24.0</ele><time>2026-04-08T15:22:12Z</time></trkpt><trkpt lat="40.319100984966596" lon="17.618619651110055"><ele>24.6</ele><time>2026-04-08T15:22:14Z</time></trkpt><trkpt lat="40.31911525053273" lon="17.618758328507138"><ele>25.2</ele><time>2026-04-08T15:22:16Z</time></trkpt><trkpt lat="40.319128577653764" lon="17.618890894219167"><ele>25.800000000000004</ele><time>2026-04-08T15:22:18Z</time></trkpt><trkpt lat="40.31914282681164" lon="17.619030955082298"><ele>26.400000000000002</ele><time>2026-04-08T15:22:20Z</time></trkpt><trkpt lat="40.31915305288177" lon="17.619169911240114"><ele>27.0</ele><time>2026-04-08T15:22:22Z</time></trkpt><trkpt lat="40.31916562052844" lon="17.61931166906596"><ele>27.0</ele><time>2026-04-08T15:22:24Z</time></trkpt><trkpt lat="40.31918096258224" lon="17.61945522849995"><ele>27.000000000000004</ele><time>2026-04-08T15:22:26Z</time></trkpt><trkpt lat="40.319193078393155" lon="17.6195984381172"><ele>27.000000000000004</ele><time>2026-04-08T15:22:28Z</time></trkpt><trkpt lat="40.31920721232974" lon="17.619741014486323"><ele>27.0</ele><time>2026-04-08T15:22:30Z</time></trkpt><trkpt lat="40.31922059483131" lon="17.619886566447004"><ele>27.0</ele><time>2026-04-08T15:22:32Z</time></trkpt><trkpt lat="40.31923516519924" lon="17.62002990165777"><ele>27.0</ele><time>2026-04-08T15:22:34Z</time></trkpt><trkpt lat="40.31924700291512" lon="17.62017446036488"><ele>27.000000000000004</ele><time>2026-04-08T15:22:36Z</time></trkpt><trkpt lat="40.319264475231726" lon="17.620312432961168"><ele>27.000000000000004</ele><time>2026-04-08T15:22:38Z</time></trkpt><trkpt lat="40.31928358767046" lon="17.620447077675596"><ele>27.0</ele><time>2026-04-08T15:22:40Z</time></trkpt><trkpt lat="40.31930833962532" lon="17.62058879102835"><ele>27.0</ele><time>2026-04-08T15:22:42Z</time></trkpt><trkpt lat="40.31934579761481" lon="17.620722248430443"><ele>27.0</ele><time>2026-04-08T15:22:44Z</time></trkpt><trkpt lat="40.3193704536357" lon="17.620863010978717"><ele>27.000000000000004</ele><time>2026-04-08T15:22:46Z</time></trkpt><trkpt lat="40.319403883848615" lon="17.621000393360365"><ele>27.000000000000004</ele><time>2026-04-08T15:22:48Z</time></trkpt><trkpt lat="40.31943936029993" lon="17.6211410580274"><ele>27.0</ele><time>2026-04-08T15:22:50Z</time></trkpt><trkpt lat="40.319476098031515" lon="17.621284035511927"><ele>27.0</ele><time>2026-04-08T15:22:52.001Z</time></trkpt><trkpt lat="40.319513798293784" lon="17.621422562722422"><ele>26.8</ele><time>2026-04-08T15:22:54.001Z</time></trkpt><trkpt lat="40.31955379448223" lon="17.621558781238786"><ele>26.6</ele><time>2026-04-08T15:22:56.001Z</time></trkpt><trkpt lat="40.31960149487766" lon="17.621692707782046"><ele>26.400000000000002</ele><time>2026-04-08T15:22:58.001Z</time></trkpt><trkpt lat="40.319651689515815" lon="17.621833676286855"><ele>26.200000000000003</ele><time>2026-04-08T15:23:00.001Z</time></trkpt><trkpt lat="40.31969276206353" lon="17.621962435618645"><ele>26.0</ele><time>2026-04-08T15:23:02.001Z</time></trkpt><trkpt lat="40.31973939846199" lon="17.622107958282356"><ele>26.75</ele><time>2026-04-08T15:23:04.001Z</time></trkpt><trkpt lat="40.31978509174999" lon="17.62224617053076"><ele>27.5</ele><time>2026-04-08T15:23:06.001Z</time></trkpt><trkpt lat="40.31983395671883" lon="17.62238325922329"><ele>28.25</ele><time>2026-04-08T15:23:08.001Z</time></trkpt><trkpt lat="40.31988159967097" lon="17.62252082822718"><ele>29.0</ele><time>2026-04-08T15:23:10.001Z</time></trkpt><trkpt lat="40.319927808718646" lon="17.622660838385322"><ele>29.0</ele><time>2026-04-08T15:23:12.001Z</time></trkpt><trkpt lat="40.31997420180059" lon="17.62279739863444"><ele>29.0</ele><time>2026-04-08T15:23:14.001Z</time></trkpt><trkpt lat="40.32002119526263" lon="17.622935603130443"><ele>29.0</ele><time>2026-04-08T15:23:16.001Z</time></trkpt><trkpt lat="40.3200669311564" lon="17.623075578259275"><ele>29.0</ele><time>2026-04-08T15:23:18.001Z</time></trkpt><trkpt lat="40.320114554903064" lon="17.623214999629038"><ele>29.0</ele><time>2026-04-08T15:23:20.001Z</time></trkpt><trkpt lat="40.32015776438063" lon="17.623347730453048"><ele>29.0</ele><time>2026-04-08T15:23:22.001Z</time></trkpt><trkpt lat="40.3201991958841" lon="17.623482438980986"><ele>29.0</ele><time>2026-04-08T15:23:24.001Z</time></trkpt><trkpt lat="40.320243312917725" lon="17.62361268019525"><ele>29.0</ele><time>2026-04-08T15:23:26.001Z</time></trkpt><trkpt lat="40.32028738922822" lon="17.62374533245278"><ele>29.0</ele><time>2026-04-08T15:23:28.001Z</time></trkpt><trkpt lat="40.320333292027684" lon="17.6238791954845"><ele>28.75</ele><time>2026-04-08T15:23:30.001Z</time></trkpt><trkpt lat="40.32037795957928" lon="17.62401375631281"><ele>28.5</ele><time>2026-04-08T15:23:32.001Z</time></trkpt><trkpt lat="40.32042437418039" lon="17.62414806248443"><ele>28.25</ele><time>2026-04-08T15:23:34.001Z</time></trkpt><trkpt lat="40.320467899599315" lon="17.624285165342336"><ele>28.0</ele><time>2026-04-08T15:23:36Z</time></trkpt><trkpt lat="40.32051025332322" lon="17.62442186593843"><ele>28.25</ele><time>2026-04-08T15:23:38Z</time></trkpt><trkpt lat="40.32055897962935" lon="17.62456000613241"><ele>28.5</ele><time>2026-04-08T15:23:40Z</time></trkpt><trkpt lat="40.320600698312816" lon="17.624695233966413"><ele>28.75</ele><time>2026-04-08T15:23:42Z</time></trkpt><trkpt lat="40.32064906152342" lon="17.624833979944622"><ele>29.0</ele><time>2026-04-08T15:23:44Z</time></trkpt><trkpt lat="40.32068796954391" lon="17.62497754800888"><ele>29.25</ele><time>2026-04-08T15:23:46Z</time></trkpt><trkpt lat="40.32074009199425" lon="17.62511517809754"><ele>29.5</ele><time>2026-04-08T15:23:48Z</time></trkpt><trkpt lat="40.320785764836785" lon="17.625252922104455"><ele>29.75</ele><time>2026-04-08T15:23:50Z</time></trkpt><trkpt lat="40.32083243482331" lon="17.625389031225097"><ele>30.0</ele><time>2026-04-08T15:23:52Z</time></trkpt><trkpt lat="40.32087596983301" lon="17.62552262375409"><ele>30.0</ele><time>2026-04-08T15:23:54Z</time></trkpt><trkpt lat="40.320922683760955" lon="17.62565903241179"><ele>30.0</ele><time>2026-04-08T15:23:56Z</time></trkpt><trkpt lat="40.32097298025911" lon="17.625794369078967"><ele>30.0</ele><time>2026-04-08T15:23:58Z</time></trkpt><trkpt lat="40.321007802460926" lon="17.62592134595799"><ele>30.0</ele><time>2026-04-08T15:24:00Z</time></trkpt><trkpt lat="40.32106328119162" lon="17.62605270571751"><ele>30.0</ele><time>2026-04-08T15:24:02Z</time></trkpt><trkpt lat="40.32110628019173" lon="17.626188176674248"><ele>30.0</ele><time>2026-04-08T15:24:04Z</time></trkpt><trkpt lat="40.32114854055571" lon="17.626313740730573"><ele>30.0</ele><time>2026-04-08T15:24:06Z</time></trkpt><trkpt lat="40.32118053705465" lon="17.626433842614677"><ele>30.0</ele><time>2026-04-08T15:24:08Z</time></trkpt><trkpt lat="40.321215151341356" lon="17.62656670654835"><ele>30.0</ele><time>2026-04-08T15:24:10Z</time></trkpt><trkpt lat="40.32124839776396" lon="17.626689545687046"><ele>30.0</ele><time>2026-04-08T15:24:12Z</time></trkpt><trkpt lat="40.321268876146476" lon="17.626837947545752"><ele>30.0</ele><time>2026-04-08T15:24:14Z</time></trkpt><trkpt lat="40.3212881469451" lon="17.6269662471476"><ele>30.0</ele><time>2026-04-08T15:24:16Z</time></trkpt><trkpt lat="40.32129789142618" lon="17.6271101654418"><ele>30.0</ele><time>2026-04-08T15:24:18Z</time></trkpt><trkpt lat="40.32129986620654" lon="17.62725371996104"><ele>30.0</ele><time>2026-04-08T15:24:20Z</time></trkpt><trkpt lat="40.32129857375372" lon="17.62740091825643"><ele>30.0</ele><time>2026-04-08T15:24:22Z</time></trkpt><trkpt lat="40.32130343157764" lon="17.627550377431845"><ele>30.0</ele><time>2026-04-08T15:24:24Z</time></trkpt><trkpt lat="40.32130707835918" lon="17.627699591023593"><ele>30.0</ele><time>2026-04-08T15:24:26Z</time></trkpt><trkpt lat="40.32131322932936" lon="17.62786408816859"><ele>30.0</ele><time>2026-04-08T15:24:28Z</time></trkpt><trkpt lat="40.321316502085566" lon="17.628029190960458"><ele>30.0</ele><time>2026-04-08T15:24:30Z</time></trkpt><trkpt lat="40.32131851480407" lon="17.628118685995794"><ele>30.0</ele><time>2026-04-08T15:24:31Z</time></trkpt><trkpt lat="40.32132518603402" lon="17.628202011101763"><ele>29.714285714285715</ele><time>2026-04-08T15:24:32Z</time></trkpt><trkpt lat="40.321328057957" lon="17.628294147792495"><ele>29.428571428571427</ele><time>2026-04-08T15:24:33Z</time></trkpt><trkpt lat="40.32132478667894" lon="17.628389082639575"><ele>29.142857142857142</ele><time>2026-04-08T15:24:34Z</time></trkpt><trkpt lat="40.321324637576" lon="17.628486744541586"><ele>28.857142857142858</ele><time>2026-04-08T15:24:35Z</time></trkpt><trkpt lat="40.32132827457924" lon="17.628585337963745"><ele>28.57142857142857</ele><time>2026-04-08T15:24:36Z</time></trkpt><trkpt lat="40.32133176510792" lon="17.628682182002326"><ele>28.285714285714285</ele><time>2026-04-08T15:24:37Z</time></trkpt><trkpt lat="40.32133272656283" lon="17.628786224047055"><ele>28.0</ele><time>2026-04-08T15:24:38Z</time></trkpt><trkpt lat="40.32133407628771" lon="17.62888269369715"><ele>27.833333333333336</ele><time>2026-04-08T15:24:39Z</time></trkpt><trkpt lat="40.32133750284941" lon="17.62898661043101"><ele>27.666666666666668</ele><time>2026-04-08T15:24:40Z</time></trkpt><trkpt lat="40.32133980711478" lon="17.629083809966055"><ele>27.5</ele><time>2026-04-08T15:24:41Z</time></trkpt><trkpt lat="40.32134538733897" lon="17.62918088520647"><ele>27.333333333333336</ele><time>2026-04-08T15:24:42Z</time></trkpt><trkpt lat="40.3213503182969" lon="17.62928010239835"><ele>27.166666666666668</ele><time>2026-04-08T15:24:43Z</time></trkpt><trkpt lat="40.32135714750471" lon="17.629376335620403"><ele>27.0</ele><time>2026-04-08T15:24:44Z</time></trkpt><trkpt lat="40.32135763602868" lon="17.629475338277388"><ele>26.857142857142858</ele><time>2026-04-08T15:24:45Z</time></trkpt><trkpt lat="40.321345999990925" lon="17.629572942011222"><ele>26.714285714285715</ele><time>2026-04-08T15:24:46Z</time></trkpt><trkpt lat="40.3213479680949" lon="17.629664908019752"><ele>26.57142857142857</ele><time>2026-04-08T15:24:47Z</time></trkpt><trkpt lat="40.32134992697265" lon="17.629756442957234"><ele>26.42857142857143</ele><time>2026-04-08T15:24:48Z</time></trkpt><trkpt lat="40.32135197022839" lon="17.629851920806402"><ele>26.28571428571429</ele><time>2026-04-08T15:24:49Z</time></trkpt><trkpt lat="40.32136501673789" lon="17.629950971081556"><ele>26.142857142857142</ele><time>2026-04-08T15:24:50Z</time></trkpt><trkpt lat="40.3213520336066" lon="17.630049107730628"><ele>26.0</ele><time>2026-04-08T15:24:51Z</time></trkpt><trkpt lat="40.32136302264639" lon="17.630145088716528"><ele>26.0</ele><time>2026-04-08T15:24:52Z</time></trkpt><trkpt lat="40.32136502980525" lon="17.630227938825296"><ele>26.0</ele><time>2026-04-08T15:24:53Z</time></trkpt><trkpt lat="40.32136420221357" lon="17.63034298567475"><ele>26.0</ele><time>2026-04-08T15:24:54Z</time></trkpt><trkpt lat="40.32136540914496" lon="17.630440919996822"><ele>26.0</ele><time>2026-04-08T15:24:55Z</time></trkpt><trkpt lat="40.32136867745608" lon="17.630536305236376"><ele>26.0</ele><time>2026-04-08T15:24:56Z</time></trkpt><trkpt lat="40.32137842131957" lon="17.630621754016378"><ele>26.0</ele><time>2026-04-08T15:24:57Z</time></trkpt><trkpt lat="40.321378145215775" lon="17.630717796987117"><ele>26.0</ele><time>2026-04-08T15:24:58Z</time></trkpt><trkpt lat="40.321322961274056" lon="17.63090442971306"><ele>25.8</ele><time>2026-04-08T15:25:00Z</time></trkpt><trkpt lat="40.321275572546" lon="17.630980367705156"><ele>25.6</ele><time>2026-04-08T15:25:01Z</time></trkpt><trkpt lat="40.32115707956845" lon="17.63109489172466"><ele>25.4</ele><time>2026-04-08T15:25:03Z</time></trkpt><trkpt lat="40.32107631454962" lon="17.63110435394371"><ele>25.2</ele><time>2026-04-08T15:25:04Z</time></trkpt><trkpt lat="40.320997855551134" lon="17.631119602551788"><ele>25.0</ele><time>2026-04-08T15:25:05Z</time></trkpt><trkpt lat="40.32092233811168" lon="17.631153061341607"><ele>24.500000000000004</ele><time>2026-04-08T15:25:06Z</time></trkpt><trkpt lat="40.320843434668255" lon="17.63115845207262"><ele>24.0</ele><time>2026-04-08T15:25:07Z</time></trkpt><trkpt lat="40.32076614665087" lon="17.631171954958276"><ele>23.5</ele><time>2026-04-08T15:25:08Z</time></trkpt><trkpt lat="40.32068730028177" lon="17.631180081982976"><ele>23.0</ele><time>2026-04-08T15:25:09Z</time></trkpt><trkpt lat="40.32060093389433" lon="17.63119660187112"><ele>22.5</ele><time>2026-04-08T15:25:10Z</time></trkpt><trkpt lat="40.32052624371573" lon="17.63121493392762"><ele>22.0</ele><time>2026-04-08T15:25:11Z</time></trkpt><trkpt lat="40.320450299631844" lon="17.63122379652112"><ele>22.0</ele><time>2026-04-08T15:25:12Z</time></trkpt><trkpt lat="40.32037426866424" lon="17.631235088861256"><ele>22.0</ele><time>2026-04-08T15:25:13Z</time></trkpt><trkpt lat="40.320291705173645" lon="17.631252221039343"><ele>22.0</ele><time>2026-04-08T15:25:14Z</time></trkpt><trkpt lat="40.32021323019731" lon="17.631264417494744"><ele>22.0</ele><time>2026-04-08T15:25:15Z</time></trkpt><trkpt lat="40.32013550727803" lon="17.631275089505476"><ele>22.0</ele><time>2026-04-08T15:25:16Z</time></trkpt><trkpt lat="40.320051394287745" lon="17.631292170623613"><ele>22.0</ele><time>2026-04-08T15:25:17Z</time></trkpt><trkpt lat="40.31998164002879" lon="17.631294989486616"><ele>22.0</ele><time>2026-04-08T15:25:18Z</time></trkpt><trkpt lat="40.31990501078609" lon="17.63131204932972"><ele>22.0</ele><time>2026-04-08T15:25:19.001Z</time></trkpt><trkpt lat="40.319823230837166" lon="17.63132646241858"><ele>22.0</ele><time>2026-04-08T15:25:20.001Z</time></trkpt><trkpt lat="40.319751735099445" lon="17.63132039318781"><ele>22.0</ele><time>2026-04-08T15:25:21.001Z</time></trkpt><trkpt lat="40.31967193230489" lon="17.631328953131618"><ele>22.0</ele><time>2026-04-08T15:25:22.001Z</time></trkpt><trkpt lat="40.31959140195121" lon="17.631347000529335"><ele>22.0</ele><time>2026-04-08T15:25:23.001Z</time></trkpt><trkpt lat="40.31951069818438" lon="17.631362000432404"><ele>22.166666666666664</ele><time>2026-04-08T15:25:24.001Z</time></trkpt><trkpt lat="40.31943432358949" lon="17.631376925187578"><ele>22.333333333333332</ele><time>2026-04-08T15:25:25.001Z</time></trkpt><trkpt lat="40.319354157128195" lon="17.631391385178706"><ele>22.5</ele><time>2026-04-08T15:25:26.001Z</time></trkpt><trkpt lat="40.31927656541669" lon="17.63140423224516"><ele>22.666666666666668</ele><time>2026-04-08T15:25:27.001Z</time></trkpt><trkpt lat="40.31919813333058" lon="17.631416777515362"><ele>22.833333333333336</ele><time>2026-04-08T15:25:28.001Z</time></trkpt><trkpt lat="40.31912096469181" lon="17.631427549866242"><ele>23.0</ele><time>2026-04-08T15:25:29.001Z</time></trkpt><trkpt lat="40.319044581737465" lon="17.631433678684733"><ele>23.0</ele><time>2026-04-08T15:25:30.001Z</time></trkpt><trkpt lat="40.318967281530874" lon="17.631446589804227"><ele>23.0</ele><time>2026-04-08T15:25:31.001Z</time></trkpt><trkpt lat="40.31889278635791" lon="17.631453109665483"><ele>23.0</ele><time>2026-04-08T15:25:32.001Z</time></trkpt><trkpt lat="40.318815662167104" lon="17.631460930924494"><ele>23.0</ele><time>2026-04-08T15:25:33.001Z</time></trkpt><trkpt lat="40.318737759716925" lon="17.63147242955386"><ele>23.0</ele><time>2026-04-08T15:25:34.001Z</time></trkpt><trkpt lat="40.31866393488551" lon="17.631473314040537"><ele>23.0</ele><time>2026-04-08T15:25:35.001Z</time></trkpt><trkpt lat="40.318590119629924" lon="17.631477383553975"><ele>22.666666666666668</ele><time>2026-04-08T15:25:36.001Z</time></trkpt><trkpt lat="40.31852411552244" lon="17.6314840252575"><ele>22.333333333333336</ele><time>2026-04-08T15:25:37.001Z</time></trkpt><trkpt lat="40.3184528710879" lon="17.631490896852515"><ele>22.0</ele><time>2026-04-08T15:25:38.001Z</time></trkpt><trkpt lat="40.31838477334667" lon="17.631496720763142"><ele>21.666666666666668</ele><time>2026-04-08T15:25:39.001Z</time></trkpt><trkpt lat="40.31829445723389" lon="17.631501852233846"><ele>21.333333333333332</ele><time>2026-04-08T15:25:40.001Z</time></trkpt><trkpt lat="40.31822892423447" lon="17.631501984243044"><ele>21.0</ele><time>2026-04-08T15:25:41.001Z</time></trkpt><trkpt lat="40.31810243449794" lon="17.6315220152023"><ele>20.666666666666668</ele><time>2026-04-08T15:25:43Z</time></trkpt><trkpt lat="40.31799965786142" lon="17.63151521714599"><ele>20.333333333333332</ele><time>2026-04-08T15:25:45Z</time></trkpt><trkpt lat="40.31792301192475" lon="17.631530069909946"><ele>20.0</ele><time>2026-04-08T15:25:46Z</time></trkpt><trkpt lat="40.31785485990641" lon="17.63153394058596"><ele>19.666666666666664</ele><time>2026-04-08T15:25:47Z</time></trkpt><trkpt lat="40.3177872622472" lon="17.631538083237402"><ele>19.333333333333332</ele><time>2026-04-08T15:25:48Z</time></trkpt><trkpt lat="40.31772102942444" lon="17.631546370950016"><ele>19.0</ele><time>2026-04-08T15:25:49Z</time></trkpt><trkpt lat="40.31765369772193" lon="17.631552061839177"><ele>19.0</ele><time>2026-04-08T15:25:50Z</time></trkpt><trkpt lat="40.3175241789179" lon="17.631559635764148"><ele>19.0</ele><time>2026-04-08T15:25:52Z</time></trkpt><trkpt lat="40.31745566252259" lon="17.63156225414083"><ele>19.0</ele><time>2026-04-08T15:25:53Z</time></trkpt><trkpt lat="40.31738415780205" lon="17.631564459153054"><ele>19.0</ele><time>2026-04-08T15:25:54Z</time></trkpt><trkpt lat="40.31730805022812" lon="17.631556976611844"><ele>19.0</ele><time>2026-04-08T15:25:55Z</time></trkpt><trkpt lat="40.317232026392475" lon="17.6315615669479"><ele>19.0</ele><time>2026-04-08T15:25:56Z</time></trkpt><trkpt lat="40.31715804655838" lon="17.631566033882063"><ele>18.333333333333332</ele><time>2026-04-08T15:25:57Z</time></trkpt><trkpt lat="40.31708196536763" lon="17.631589776174017"><ele>17.666666666666664</ele><time>2026-04-08T15:25:58Z</time></trkpt><trkpt lat="40.317010565264354" lon="17.63159266132483"><ele>17.0</ele><time>2026-04-08T15:25:59Z</time></trkpt><trkpt lat="40.31693901817982" lon="17.63159361031097"><ele>16.333333333333332</ele><time>2026-04-08T15:26:00Z</time></trkpt><trkpt lat="40.31686216706721" lon="17.63160006292233"><ele>15.666666666666666</ele><time>2026-04-08T15:26:01Z</time></trkpt><trkpt lat="40.316775949024965" lon="17.631610628644314"><ele>15.0</ele><time>2026-04-08T15:26:02Z</time></trkpt><trkpt lat="40.31670220560441" lon="17.63161149927526"><ele>15.0</ele><time>2026-04-08T15:26:03Z</time></trkpt><trkpt lat="40.31661913435801" lon="17.631611149472278"><ele>15.0</ele><time>2026-04-08T15:26:04Z</time></trkpt><trkpt lat="40.31653776178001" lon="17.631617285952014"><ele>15.0</ele><time>2026-04-08T15:26:05Z</time></trkpt><trkpt lat="40.31644804882499" lon="17.631623408634525"><ele>15.0</ele><time>2026-04-08T15:26:06Z</time></trkpt><trkpt lat="40.31635686385057" lon="17.631630398015925"><ele>15.0</ele><time>2026-04-08T15:26:07Z</time></trkpt><trkpt lat="40.316270217458545" lon="17.631629136983552"><ele>15.0</ele><time>2026-04-08T15:26:08Z</time></trkpt><trkpt lat="40.31617860079774" lon="17.631638599793583"><ele>14.6</ele><time>2026-04-08T15:26:09Z</time></trkpt><trkpt lat="40.316083734771546" lon="17.631647800126952"><ele>14.2</ele><time>2026-04-08T15:26:10Z</time></trkpt><trkpt lat="40.31598478151086" lon="17.631636782461744"><ele>13.8</ele><time>2026-04-08T15:26:11Z</time></trkpt><trkpt lat="40.31589068566777" lon="17.63165791210027"><ele>13.4</ele><time>2026-04-08T15:26:12Z</time></trkpt><trkpt lat="40.3157959219643" lon="17.631662181754788"><ele>13.0</ele><time>2026-04-08T15:26:13Z</time></trkpt><trkpt lat="40.31569972862156" lon="17.631679815269077"><ele>12.999999999999998</ele><time>2026-04-08T15:26:14Z</time></trkpt><trkpt lat="40.31561243147449" lon="17.631676276831787"><ele>13.0</ele><time>2026-04-08T15:26:15Z</time></trkpt><trkpt lat="40.31551593115477" lon="17.631680253551217"><ele>13.0</ele><time>2026-04-08T15:26:16Z</time></trkpt><trkpt lat="40.31542978198773" lon="17.631692102507767"><ele>13.0</ele><time>2026-04-08T15:26:17Z</time></trkpt><trkpt lat="40.315343289200136" lon="17.631676118327384"><ele>12.999999999999998</ele><time>2026-04-08T15:26:18Z</time></trkpt><trkpt lat="40.315256862396126" lon="17.631674739247437"><ele>13.0</ele><time>2026-04-08T15:26:19Z</time></trkpt><trkpt lat="40.315170688296526" lon="17.631679782856523"><ele>12.666666666666666</ele><time>2026-04-08T15:26:20Z</time></trkpt><trkpt lat="40.315095535651935" lon="17.631691387995943"><ele>12.333333333333332</ele><time>2026-04-08T15:26:21Z</time></trkpt><trkpt lat="40.315015308144154" lon="17.631691266454492"><ele>12.0</ele><time>2026-04-08T15:26:22Z</time></trkpt><trkpt lat="40.31494124882584" lon="17.631700364864624"><ele>11.666666666666666</ele><time>2026-04-08T15:26:23Z</time></trkpt><trkpt lat="40.31486906403379" lon="17.631708211661216"><ele>11.333333333333332</ele><time>2026-04-08T15:26:24Z</time></trkpt><trkpt lat="40.31478952692769" lon="17.631712187780547"><ele>11.0</ele><time>2026-04-08T15:26:25Z</time></trkpt><trkpt lat="40.31471833837099" lon="17.631723781714502"><ele>11.0</ele><time>2026-04-08T15:26:26Z</time></trkpt><trkpt lat="40.31465061119797" lon="17.63173171966755"><ele>11.0</ele><time>2026-04-08T15:26:27Z</time></trkpt><trkpt lat="40.31457672811418" lon="17.63172846544016"><ele>11.0</ele><time>2026-04-08T15:26:28Z</time></trkpt><trkpt lat="40.31451022828932" lon="17.631736209577348"><ele>11.0</ele><time>2026-04-08T15:26:29Z</time></trkpt><trkpt lat="40.31443831472007" lon="17.631740900802757"><ele>11.0</ele><time>2026-04-08T15:26:30Z</time></trkpt><trkpt lat="40.314371497651045" lon="17.631733329205307"><ele>11.0</ele><time>2026-04-08T15:26:31Z</time></trkpt><trkpt lat="40.31429986835885" lon="17.631742837100806"><ele>11.0</ele><time>2026-04-08T15:26:32Z</time></trkpt><trkpt lat="40.31422754641964" lon="17.63174643410145"><ele>11.0</ele><time>2026-04-08T15:26:33Z</time></trkpt><trkpt lat="40.31416013304562" lon="17.631756851944488"><ele>11.0</ele><time>2026-04-08T15:26:34Z</time></trkpt><trkpt lat="40.31407485188682" lon="17.631757599257533"><ele>11.0</ele><time>2026-04-08T15:26:35Z</time></trkpt><trkpt lat="40.31395572633586" lon="17.631763170219106"><ele>11.0</ele><time>2026-04-08T15:26:37Z</time></trkpt><trkpt lat="40.31388205001492" lon="17.631773699020986"><ele>11.0</ele><time>2026-04-08T15:26:38Z</time></trkpt><trkpt lat="40.31380916911685" lon="17.631770483269904"><ele>11.0</ele><time>2026-04-08T15:26:39Z</time></trkpt><trkpt lat="40.31374336600206" lon="17.631764430005557"><ele>10.571428571428571</ele><time>2026-04-08T15:26:40Z</time></trkpt><trkpt lat="40.31367127371145" lon="17.631780335242507"><ele>10.142857142857142</ele><time>2026-04-08T15:26:41Z</time></trkpt><trkpt lat="40.31359832116846" lon="17.631789528348317"><ele>9.714285714285714</ele><time>2026-04-08T15:26:42Z</time></trkpt><trkpt lat="40.313523814632326" lon="17.631794152744796"><ele>9.285714285714285</ele><time>2026-04-08T15:26:43Z</time></trkpt><trkpt lat="40.31345097330784" lon="17.63179777653945"><ele>8.857142857142856</ele><time>2026-04-08T15:26:44Z</time></trkpt><trkpt lat="40.31337686213898" lon="17.63179859895631"><ele>8.428571428571429</ele><time>2026-04-08T15:26:45Z</time></trkpt><trkpt lat="40.31329803350719" lon="17.631815241788765"><ele>8.0</ele><time>2026-04-08T15:26:46Z</time></trkpt><trkpt lat="40.31322919480468" lon="17.631813327797097"><ele>7.999999999999999</ele><time>2026-04-08T15:26:47Z</time></trkpt><trkpt lat="40.31315500678547" lon="17.63182204088692"><ele>8.0</ele><time>2026-04-08T15:26:48Z</time></trkpt><trkpt lat="40.31307329380005" lon="17.631822700929657"><ele>8.0</ele><time>2026-04-08T15:26:49Z</time></trkpt><trkpt lat="40.312936153807605" lon="17.631825297839235"><ele>8.0</ele><time>2026-04-08T15:26:51Z</time></trkpt><trkpt lat="40.31286413503996" lon="17.631826512899988"><ele>7.999999999999999</ele><time>2026-04-08T15:26:52Z</time></trkpt><trkpt lat="40.312791072509164" lon="17.63183575125147"><ele>8.0</ele><time>2026-04-08T15:26:53Z</time></trkpt><trkpt lat="40.3127174123644" lon="17.63182722218777"><ele>7.857142857142857</ele><time>2026-04-08T15:26:54Z</time></trkpt><trkpt lat="40.312650011251066" lon="17.63183047003626"><ele>7.7142857142857135</ele><time>2026-04-08T15:26:55Z</time></trkpt><trkpt lat="40.31257368483325" lon="17.631835468953533"><ele>7.571428571428571</ele><time>2026-04-08T15:26:56Z</time></trkpt><trkpt lat="40.31250485368479" lon="17.63186083001254"><ele>7.428571428571429</ele><time>2026-04-08T15:26:57Z</time></trkpt><trkpt lat="40.31243289904808" lon="17.631865313817315"><ele>7.285714285714286</ele><time>2026-04-08T15:26:58Z</time></trkpt><trkpt lat="40.31235419626089" lon="17.6318487612492"><ele>7.142857142857142</ele><time>2026-04-08T15:26:59Z</time></trkpt><trkpt lat="40.312277928973714" lon="17.631872877498843"><ele>7.0</ele><time>2026-04-08T15:27:00Z</time></trkpt><trkpt lat="40.31220814227105" lon="17.63185759307098"><ele>6.714285714285714</ele><time>2026-04-08T15:27:01Z</time></trkpt><trkpt lat="40.31213841634" lon="17.631881126275406"><ele>6.428571428571429</ele><time>2026-04-08T15:27:02Z</time></trkpt><trkpt lat="40.31206886359332" lon="17.631882620289545"><ele>6.142857142857142</ele><time>2026-04-08T15:27:03Z</time></trkpt><trkpt lat="40.31199469451386" lon="17.631883510090557"><ele>5.857142857142858</ele><time>2026-04-08T15:27:04Z</time></trkpt><trkpt lat="40.311921832988304" lon="17.63188564092475"><ele>5.571428571428571</ele><time>2026-04-08T15:27:05Z</time></trkpt><trkpt lat="40.31184979424359" lon="17.631890598564073"><ele>5.285714285714286</ele><time>2026-04-08T15:27:06Z</time></trkpt><trkpt lat="40.311774887347845" lon="17.631899453151075"><ele>5.0</ele><time>2026-04-08T15:27:07Z</time></trkpt><trkpt lat="40.311701928596236" lon="17.63190754585604"><ele>5.0</ele><time>2026-04-08T15:27:08Z</time></trkpt><trkpt lat="40.311633807097664" lon="17.631910966212203"><ele>5.0</ele><time>2026-04-08T15:27:09Z</time></trkpt><trkpt lat="40.311559372951244" lon="17.63191056481324"><ele>5.0</ele><time>2026-04-08T15:27:10Z</time></trkpt><trkpt lat="40.31149097743501" lon="17.631920531719494"><ele>5.0</ele><time>2026-04-08T15:27:11Z</time></trkpt><trkpt lat="40.31142405153121" lon="17.631923595719776"><ele>5.0</ele><time>2026-04-08T15:27:12Z</time></trkpt><trkpt lat="40.31135484788776" lon="17.631929808697123"><ele>5.0</ele><time>2026-04-08T15:27:13Z</time></trkpt><trkpt lat="40.31128667453721" lon="17.631935643980437"><ele>5.0</ele><time>2026-04-08T15:27:14Z</time></trkpt><trkpt lat="40.311218403532585" lon="17.631942594336742"><ele>4.857142857142857</ele><time>2026-04-08T15:27:15Z</time></trkpt><trkpt lat="40.31115068739969" lon="17.63195173130276"><ele>4.714285714285714</ele><time>2026-04-08T15:27:16Z</time></trkpt><trkpt lat="40.3110844579864" lon="17.631965171128797"><ele>4.571428571428571</ele><time>2026-04-08T15:27:17Z</time></trkpt><trkpt lat="40.31101705033175" lon="17.631975158902627"><ele>4.428571428571429</ele><time>2026-04-08T15:27:18Z</time></trkpt><trkpt lat="40.31094983837762" lon="17.63199100796567"><ele>4.285714285714286</ele><time>2026-04-08T15:27:19Z</time></trkpt><trkpt lat="40.31088628406129" lon="17.632009670964088"><ele>4.142857142857142</ele><time>2026-04-08T15:27:20Z</time></trkpt><trkpt lat="40.310823449553894" lon="17.63203188481212"><ele>4.0</ele><time>2026-04-08T15:27:21Z</time></trkpt><trkpt lat="40.310752799500925" lon="17.63203935628256"><ele>4.0</ele><time>2026-04-08T15:27:22Z</time></trkpt><trkpt lat="40.310686990067104" lon="17.63206386367276"><ele>3.9999999999999996</ele><time>2026-04-08T15:27:23Z</time></trkpt><trkpt lat="40.3106205649336" lon="17.63209021616109"><ele>4.0</ele><time>2026-04-08T15:27:24Z</time></trkpt><trkpt lat="40.31055403852564" lon="17.63211732377807"><ele>4.0</ele><time>2026-04-08T15:27:25Z</time></trkpt><trkpt lat="40.310487485897355" lon="17.63214444215214"><ele>3.9999999999999996</ele><time>2026-04-08T15:27:26Z</time></trkpt><trkpt lat="40.31042259379862" lon="17.63217088384167"><ele>4.0</ele><time>2026-04-08T15:27:27Z</time></trkpt><trkpt lat="40.31035771658768" lon="17.632197704797118"><ele>4.0</ele><time>2026-04-08T15:27:28Z</time></trkpt><trkpt lat="40.31029245992886" lon="17.63222542621941"><ele>3.8571428571428568</ele><time>2026-04-08T15:27:29Z</time></trkpt><trkpt lat="40.31022860518358" lon="17.632252552235308"><ele>3.714285714285714</ele><time>2026-04-08T15:27:30Z</time></trkpt><trkpt lat="40.310163664055054" lon="17.632280139675494"><ele>3.571428571428571</ele><time>2026-04-08T15:27:31Z</time></trkpt><trkpt lat="40.31009917455698" lon="17.632307535272947"><ele>3.4285714285714284</ele><time>2026-04-08T15:27:32Z</time></trkpt><trkpt lat="40.310034816487" lon="17.632334875031137"><ele>3.2857142857142856</ele><time>2026-04-08T15:27:33Z</time></trkpt><trkpt lat="40.309971756083" lon="17.63236166353767"><ele>3.1428571428571423</ele><time>2026-04-08T15:27:34Z</time></trkpt><trkpt lat="40.30990865194769" lon="17.632388470575215"><ele>3.0</ele><time>2026-04-08T15:27:35Z</time></trkpt><trkpt lat="40.3098417685244" lon="17.632416883165366"><ele>2.9999999999999996</ele><time>2026-04-08T15:27:36Z</time></trkpt><trkpt lat="40.30977718353964" lon="17.63244431935712"><ele>3.0</ele><time>2026-04-08T15:27:37Z</time></trkpt><trkpt lat="40.30971413883275" lon="17.632471101167816"><ele>3.0</ele><time>2026-04-08T15:27:38Z</time></trkpt><trkpt lat="40.30965004896053" lon="17.632498326980485"><ele>3.0</ele><time>2026-04-08T15:27:39Z</time></trkpt><trkpt lat="40.30958822209428" lon="17.63252459148352"><ele>3.0</ele><time>2026-04-08T15:27:40Z</time></trkpt><trkpt lat="40.30952585743923" lon="17.632551084427107"><ele>2.9999999999999996</ele><time>2026-04-08T15:27:41Z</time></trkpt><trkpt lat="40.30946324926122" lon="17.632577680794206"><ele>3.0</ele><time>2026-04-08T15:27:42Z</time></trkpt><trkpt lat="40.30940072902963" lon="17.63260423982826"><ele>2.8</ele><time>2026-04-08T15:27:43Z</time></trkpt><trkpt lat="40.30927883975028" lon="17.632656019255187"><ele>2.5999999999999996</ele><time>2026-04-08T15:27:45.001Z</time></trkpt><trkpt lat="40.30915588411875" lon="17.632708733851743"><ele>2.4000000000000004</ele><time>2026-04-08T15:27:47.001Z</time></trkpt><trkpt lat="40.30909450145191" lon="17.63273511536659"><ele>2.2</ele><time>2026-04-08T15:27:48Z</time></trkpt><trkpt lat="40.30903457309059" lon="17.632760871746427"><ele>2.0</ele><time>2026-04-08T15:27:49Z</time></trkpt><trkpt lat="40.30897296096926" lon="17.63278735182287"><ele>1.857142857142857</ele><time>2026-04-08T15:27:50Z</time></trkpt><trkpt lat="40.30885392285548" lon="17.63283851284221"><ele>1.714285714285714</ele><time>2026-04-08T15:27:52Z</time></trkpt><trkpt lat="40.30879875087128" lon="17.632882973403596"><ele>1.5714285714285714</ele><time>2026-04-08T15:27:53Z</time></trkpt><trkpt lat="40.30873607731198" lon="17.632906938077355"><ele>1.4285714285714284</ele><time>2026-04-08T15:27:54Z</time></trkpt><trkpt lat="40.30867599732129" lon="17.632937410574034"><ele>1.2857142857142856</ele><time>2026-04-08T15:27:55Z</time></trkpt><trkpt lat="40.30861160402876" lon="17.632942658219655"><ele>1.1428571428571428</ele><time>2026-04-08T15:27:56Z</time></trkpt><trkpt lat="40.3085506818247" lon="17.632968841814623"><ele>1.0</ele><time>2026-04-08T15:27:57Z</time></trkpt><trkpt lat="40.30849767449374" lon="17.633014234267872"><ele>1.0</ele><time>2026-04-08T15:27:58Z</time></trkpt><trkpt lat="40.308436621841196" lon="17.633036322926532"><ele>1.0</ele><time>2026-04-08T15:27:59Z</time></trkpt><trkpt lat="40.308319082666685" lon="17.633068066616826"><ele>1.0</ele><time>2026-04-08T15:28:01Z</time></trkpt><trkpt lat="40.3082080283644" lon="17.633115335475736"><ele>1.0</ele><time>2026-04-08T15:28:03Z</time></trkpt><trkpt lat="40.308100743585236" lon="17.633182918714013"><ele>1.0</ele><time>2026-04-08T15:28:05Z</time></trkpt><trkpt lat="40.30799263704825" lon="17.63322905269837"><ele>0.8</ele><time>2026-04-08T15:28:07Z</time></trkpt><trkpt lat="40.30787994553448" lon="17.63325380722958"><ele>0.6000000000000001</ele><time>2026-04-08T15:28:09Z</time></trkpt><trkpt lat="40.30777752116785" lon="17.63329648046765"><ele>0.4</ele><time>2026-04-08T15:28:11Z</time></trkpt><trkpt lat="40.30767745208763" lon="17.63333854248405"><ele>0.2</ele><time>2026-04-08T15:28:13Z</time></trkpt><trkpt lat="40.30758352468641" lon="17.63339310866948"><ele>0.0</ele><time>2026-04-08T15:28:15Z</time></trkpt><trkpt lat="40.307490764449675" lon="17.63341693015788"><ele>0.0</ele><time>2026-04-08T15:28:17Z</time></trkpt><trkpt lat="40.30740230313933" lon="17.6334540738714"><ele>0.0</ele><time>2026-04-08T15:28:19Z</time></trkpt><trkpt lat="40.30731542247017" lon="17.633490553934944"><ele>0.0</ele><time>2026-04-08T15:28:21Z</time></trkpt><trkpt lat="40.307244472960754" lon="17.633548457933585"><ele>0.0</ele><time>2026-04-08T15:28:23Z</time></trkpt><trkpt lat="40.30717288336289" lon="17.633577574983896"><ele>0.0</ele><time>2026-04-08T15:28:25Z</time></trkpt><trkpt lat="40.30711472944508" lon="17.633618668469293"><ele>0.0</ele><time>2026-04-08T15:28:27Z</time></trkpt><trkpt lat="40.30704606434834" lon="17.63362731971513"><ele>0.0</ele><time>2026-04-08T15:28:30Z</time></trkpt><trkpt lat="40.307116265405035" lon="17.6336106002791"><ele>0.0</ele><time>2026-04-08T15:28:37Z</time></trkpt><trkpt lat="40.30718212904717" lon="17.633610201439495"><ele>0.0</ele><time>2026-04-08T15:28:41Z</time></trkpt><trkpt lat="40.30723859693387" lon="17.633568875263553"><ele>0.0</ele><time>2026-04-08T15:28:44Z</time></trkpt><trkpt lat="40.30730062771534" lon="17.633553035079725"><ele>0.0</ele><time>2026-04-08T15:28:47Z</time></trkpt><trkpt lat="40.30737347550843" lon="17.633512609488232"><ele>0.0</ele><time>2026-04-08T15:28:51Z</time></trkpt><trkpt lat="40.30744898641251" lon="17.63348123229726"><ele>0.0</ele><time>2026-04-08T15:28:54Z</time></trkpt><trkpt lat="40.30750779435039" lon="17.63344331297809"><ele>0.0</ele><time>2026-04-08T15:28:56Z</time></trkpt><trkpt lat="40.3075773747145" lon="17.633408026414475"><ele>0.0</ele><time>2026-04-08T15:28:58Z</time></trkpt><trkpt lat="40.307660218484656" lon="17.633372495799502"><ele>0.0</ele><time>2026-04-08T15:29:00Z</time></trkpt><trkpt lat="40.30773789141221" lon="17.633341018390453"><ele>0.0</ele><time>2026-04-08T15:29:02Z</time></trkpt><trkpt lat="40.307805522424985" lon="17.633291635017983"><ele>0.0</ele><time>2026-04-08T15:29:04Z</time></trkpt><trkpt lat="40.307814507701615" lon="17.633174520631357"><ele>0.0</ele><time>2026-04-08T15:29:06Z</time></trkpt><trkpt lat="40.307819480526554" lon="17.633043532526255"><ele>0.0</ele><time>2026-04-08T15:29:08Z</time></trkpt><trkpt lat="40.30782333224271" lon="17.63288751852136"><ele>0.0</ele><time>2026-04-08T15:29:10Z</time></trkpt><trkpt lat="40.307841203554496" lon="17.63272745034706"><ele>0.0</ele><time>2026-04-08T15:29:12Z</time></trkpt><trkpt lat="40.30785067176593" lon="17.632644902212107"><ele>0.0</ele><time>2026-04-08T15:29:13Z</time></trkpt><trkpt lat="40.30786391539795" lon="17.63256217112532"><ele>0.0</ele><time>2026-04-08T15:29:14Z</time></trkpt><trkpt lat="40.30787108829635" lon="17.632474687923324"><ele>0.0</ele><time>2026-04-08T15:29:15.001Z</time></trkpt><trkpt lat="40.30787459112003" lon="17.632388417922833"><ele>-0.2</ele><time>2026-04-08T15:29:16.001Z</time></trkpt><trkpt lat="40.3078633979909" lon="17.632243105778976"><ele>-0.4</ele><time>2026-04-08T15:29:18.001Z</time></trkpt><trkpt lat="40.30783983498646" lon="17.632116905347186"><ele>-0.6000000000000001</ele><time>2026-04-08T15:29:20.001Z</time></trkpt><trkpt lat="40.307897200860744" lon="17.631994029983662"><ele>-0.8</ele><time>2026-04-08T15:29:22.001Z</time></trkpt><trkpt lat="40.30795323103171" lon="17.631952336148036"><ele>-1.0</ele><time>2026-04-08T15:29:23.001Z</time></trkpt><trkpt lat="40.30801948435121" lon="17.631945924232358"><ele>-0.9999999999999999</ele><time>2026-04-08T15:29:24.001Z</time></trkpt><trkpt lat="40.3080724458734" lon="17.631887907026712"><ele>-1.0</ele><time>2026-04-08T15:29:25.001Z</time></trkpt><trkpt lat="40.30812666676913" lon="17.631834720292467"><ele>-1.0</ele><time>2026-04-08T15:29:26.001Z</time></trkpt><trkpt lat="40.30817629238226" lon="17.631774002748735"><ele>-1.0</ele><time>2026-04-08T15:29:27.001Z</time></trkpt><trkpt lat="40.308176753731416" lon="17.63166943747074"><ele>-0.9999999999999999</ele><time>2026-04-08T15:29:28.001Z</time></trkpt><trkpt lat="40.30815605615831" lon="17.631517993412444"><ele>-1.0</ele><time>2026-04-08T15:29:30.001Z</time></trkpt><trkpt lat="40.30813671527621" lon="17.631365505732248"><ele>-0.8</ele><time>2026-04-08T15:29:32.001Z</time></trkpt><trkpt lat="40.30812176679107" lon="17.631198306292113"><ele>-0.6000000000000001</ele><time>2026-04-08T15:29:34.001Z</time></trkpt><trkpt lat="40.308113733524436" lon="17.631060849617477"><ele>-0.4</ele><time>2026-04-08T15:29:36.001Z</time></trkpt><trkpt lat="40.30809258051326" lon="17.630941087325205"><ele>-0.2</ele><time>2026-04-08T15:29:38.001Z</time></trkpt><trkpt lat="40.308092406243894" lon="17.630801563467998"><ele>0.0</ele><time>2026-04-08T15:29:40.001Z</time></trkpt><trkpt lat="40.30813062422127" lon="17.630658666987944"><ele>0.0</ele><time>2026-04-08T15:29:42.001Z</time></trkpt><trkpt lat="40.30816343909802" lon="17.630586796784357"><ele>0.0</ele><time>2026-04-08T15:29:43.001Z</time></trkpt><trkpt lat="40.30821819383706" lon="17.63045202891033"><ele>0.0</ele><time>2026-04-08T15:29:45.001Z</time></trkpt><trkpt lat="40.30824051008903" lon="17.630304951866805"><ele>0.0</ele><time>2026-04-08T15:29:47.001Z</time></trkpt><trkpt lat="40.308246388613796" lon="17.63016583452983"><ele>0.0</ele><time>2026-04-08T15:29:49.001Z</time></trkpt><trkpt lat="40.30825415867071" lon="17.63003439290188"><ele>0.0</ele><time>2026-04-08T15:29:51.001Z</time></trkpt><trkpt lat="40.308268623186" lon="17.62990628883132"><ele>0.0</ele><time>2026-04-08T15:29:53.001Z</time></trkpt><trkpt lat="40.30827085463314" lon="17.629786061157304"><ele>0.0</ele><time>2026-04-08T15:29:55Z</time></trkpt><trkpt lat="40.3082749839383" lon="17.629666389983445"><ele>0.0</ele><time>2026-04-08T15:29:57Z</time></trkpt><trkpt lat="40.30828367893233" lon="17.629546748732402"><ele>0.0</ele><time>2026-04-08T15:29:59Z</time></trkpt><trkpt lat="40.30829615952773" lon="17.629424689080523"><ele>0.2</ele><time>2026-04-08T15:30:01Z</time></trkpt><trkpt lat="40.308296128326944" lon="17.6293015670043"><ele>0.4</ele><time>2026-04-08T15:30:03Z</time></trkpt><trkpt lat="40.30830459521797" lon="17.629170620556717"><ele>0.6000000000000001</ele><time>2026-04-08T15:30:05Z</time></trkpt><trkpt lat="40.30832199751975" lon="17.62898628803837"><ele>0.8</ele><time>2026-04-08T15:30:08Z</time></trkpt><trkpt lat="40.30833418584591" lon="17.62885884682032"><ele>1.0</ele><time>2026-04-08T15:30:10Z</time></trkpt><trkpt lat="40.308347771626075" lon="17.628730275425575"><ele>1.0</ele><time>2026-04-08T15:30:12Z</time></trkpt><trkpt lat="40.308354597043746" lon="17.62860248890782"><ele>1.0</ele><time>2026-04-08T15:30:14Z</time></trkpt><trkpt lat="40.30837274690361" lon="17.62847540966136"><ele>1.0</ele><time>2026-04-08T15:30:16Z</time></trkpt><trkpt lat="40.30838671058883" lon="17.628351301898206"><ele>1.0</ele><time>2026-04-08T15:30:18Z</time></trkpt><trkpt lat="40.30840595860428" lon="17.62822725734968"><ele>1.0</ele><time>2026-04-08T15:30:20Z</time></trkpt><trkpt lat="40.30842282697341" lon="17.62810381614195"><ele>1.0</ele><time>2026-04-08T15:30:22Z</time></trkpt><trkpt lat="40.30843833288917" lon="17.62797680407003"><ele>1.0</ele><time>2026-04-08T15:30:24Z</time></trkpt><trkpt lat="40.30845389165923" lon="17.627854734897983"><ele>1.0</ele><time>2026-04-08T15:30:26Z</time></trkpt><trkpt lat="40.30847404104778" lon="17.62773372877985"><ele>1.0</ele><time>2026-04-08T15:30:28Z</time></trkpt><trkpt lat="40.30847760957051" lon="17.62761794989898"><ele>1.0</ele><time>2026-04-08T15:30:30Z</time></trkpt><trkpt lat="40.30849346224787" lon="17.627496544878078"><ele>1.25</ele><time>2026-04-08T15:30:32Z</time></trkpt><trkpt lat="40.30850743607142" lon="17.62736436127663"><ele>1.5</ele><time>2026-04-08T15:30:34Z</time></trkpt><trkpt lat="40.30849803679169" lon="17.62725275134145"><ele>1.75</ele><time>2026-04-08T15:30:38Z</time></trkpt><trkpt lat="40.308564142077515" lon="17.62702205413471"><ele>2.0</ele><time>2026-04-08T15:30:40Z</time></trkpt><trkpt lat="40.30856638158284" lon="17.626912583806295"><ele>1.9999999999999998</ele><time>2026-04-08T15:30:42Z</time></trkpt><trkpt lat="40.30856484926646" lon="17.626789398215795"><ele>2.0</ele><time>2026-04-08T15:30:44Z</time></trkpt><trkpt lat="40.30858537442113" lon="17.62667530590643"><ele>2.0</ele><time>2026-04-08T15:30:46Z</time></trkpt><trkpt lat="40.30860203564905" lon="17.62656571100653"><ele>2.0</ele><time>2026-04-08T15:30:48Z</time></trkpt><trkpt lat="40.30862540428107" lon="17.626462445277827"><ele>1.9999999999999998</ele><time>2026-04-08T15:30:50Z</time></trkpt><trkpt lat="40.30863589226676" lon="17.62635314956734"><ele>2.0</ele><time>2026-04-08T15:30:52Z</time></trkpt><trkpt lat="40.30864578177335" lon="17.626236937699307"><ele>1.9999999999999998</ele><time>2026-04-08T15:30:54Z</time></trkpt><trkpt lat="40.30865468871356" lon="17.62612283737949"><ele>2.0</ele><time>2026-04-08T15:30:56Z</time></trkpt><trkpt lat="40.308675385740855" lon="17.626011763314946"><ele>2.0</ele><time>2026-04-08T15:30:58Z</time></trkpt><trkpt lat="40.308682527323505" lon="17.625891298358514"><ele>2.0</ele><time>2026-04-08T15:31:00Z</time></trkpt><trkpt lat="40.3086799424515" lon="17.62578258730673"><ele>1.9999999999999998</ele><time>2026-04-08T15:31:02Z</time></trkpt><trkpt lat="40.30866187202998" lon="17.62567604732878"><ele>2.0</ele><time>2026-04-08T15:31:04Z</time></trkpt><trkpt lat="40.30865794821298" lon="17.62556437056389"><ele>2.0</ele><time>2026-04-08T15:31:06Z</time></trkpt><trkpt lat="40.30864685266092" lon="17.625458977853782"><ele>1.9999999999999998</ele><time>2026-04-08T15:31:08Z</time></trkpt><trkpt lat="40.30864207063158" lon="17.625348178244288"><ele>2.0</ele><time>2026-04-08T15:31:10Z</time></trkpt><trkpt lat="40.308639747347684" lon="17.625255080633863"><ele>2.0</ele><time>2026-04-08T15:31:12Z</time></trkpt><trkpt lat="40.30864643077748" lon="17.625171239312422"><ele>1.9999999999999998</ele><time>2026-04-08T15:31:14Z</time></trkpt><trkpt lat="40.308652472422324" lon="17.625077776632647"><ele>2.0</ele><time>2026-04-08T15:31:16Z</time></trkpt><trkpt lat="40.30867436713428" lon="17.62498876608739"><ele>2.0</ele><time>2026-04-08T15:31:18Z</time></trkpt><trkpt lat="40.308675613705994" lon="17.624892328818632"><ele>2.142857142857143</ele><time>2026-04-08T15:31:20Z</time></trkpt><trkpt lat="40.308684814891365" lon="17.624791152974428"><ele>2.2857142857142856</ele><time>2026-04-08T15:31:22Z</time></trkpt><trkpt lat="40.308686039653956" lon="17.624699589735425"><ele>2.4285714285714284</ele><time>2026-04-08T15:31:24Z</time></trkpt><trkpt lat="40.308684766588286" lon="17.624603752021752"><ele>2.571428571428571</ele><time>2026-04-08T15:31:26Z</time></trkpt><trkpt lat="40.308686309975144" lon="17.624506221747893"><ele>2.7142857142857144</ele><time>2026-04-08T15:31:28Z</time></trkpt><trkpt lat="40.30869731539076" lon="17.624416056778635"><ele>2.8571428571428568</ele><time>2026-04-08T15:31:30.001Z</time></trkpt><trkpt lat="40.30870069271121" lon="17.624323915733676"><ele>3.0</ele><time>2026-04-08T15:31:32.001Z</time></trkpt><trkpt lat="40.308707154649895" lon="17.62421925122188"><ele>3.2</ele><time>2026-04-08T15:31:34.001Z</time></trkpt><trkpt lat="40.30871742031875" lon="17.62406783348757"><ele>3.4</ele><time>2026-04-08T15:31:37.001Z</time></trkpt><trkpt lat="40.30873620039632" lon="17.623961272969858"><ele>3.6000000000000005</ele><time>2026-04-08T15:31:39.001Z</time></trkpt><trkpt lat="40.30873837923343" lon="17.623832494775442"><ele>3.8000000000000003</ele><time>2026-04-08T15:31:42.001Z</time></trkpt><trkpt lat="40.308748080696525" lon="17.623713087902583"><ele>4.0</ele><time>2026-04-08T15:31:44.001Z</time></trkpt><trkpt lat="40.308783562812806" lon="17.623596798337704"><ele>4.166666666666666</ele><time>2026-04-08T15:31:46.001Z</time></trkpt><trkpt lat="40.308789746676716" lon="17.62348188980981"><ele>4.333333333333333</ele><time>2026-04-08T15:31:48.001Z</time></trkpt><trkpt lat="40.30879580290785" lon="17.623367023024663"><ele>4.5</ele><time>2026-04-08T15:31:50.001Z</time></trkpt><trkpt lat="40.3087870697855" lon="17.623253599411047"><ele>4.666666666666667</ele><time>2026-04-08T15:31:52.001Z</time></trkpt><trkpt lat="40.308805743292226" lon="17.623158644675783"><ele>4.833333333333334</ele><time>2026-04-08T15:31:54.001Z</time></trkpt><trkpt lat="40.3088113962696" lon="17.62304014254335"><ele>5.0</ele><time>2026-04-08T15:31:56.001Z</time></trkpt><trkpt lat="40.308816891143714" lon="17.622924953897716"><ele>4.833333333333334</ele><time>2026-04-08T15:31:58.001Z</time></trkpt><trkpt lat="40.30882427285213" lon="17.622813488409427"><ele>4.666666666666667</ele><time>2026-04-08T15:32:00.001Z</time></trkpt><trkpt lat="40.30883157093397" lon="17.62270019692587"><ele>4.5</ele><time>2026-04-08T15:32:02.001Z</time></trkpt><trkpt lat="40.30882568505116" lon="17.62258507934474"><ele>4.333333333333333</ele><time>2026-04-08T15:32:04Z</time></trkpt><trkpt lat="40.30884180962199" lon="17.62247148897514"><ele>4.166666666666666</ele><time>2026-04-08T15:32:06Z</time></trkpt><trkpt lat="40.308838147786716" lon="17.622358330134333"><ele>4.0</ele><time>2026-04-08T15:32:08Z</time></trkpt><trkpt lat="40.30884011978213" lon="17.62225165215814"><ele>4.0</ele><time>2026-04-08T15:32:10Z</time></trkpt><trkpt lat="40.30882952713532" lon="17.622168153360203"><ele>3.9999999999999996</ele><time>2026-04-08T15:32:12Z</time></trkpt><trkpt lat="40.30880425272331" lon="17.6220671252612"><ele>4.0</ele><time>2026-04-08T15:32:14Z</time></trkpt><trkpt lat="40.308787922543466" lon="17.62198630317326"><ele>4.0</ele><time>2026-04-08T15:32:16Z</time></trkpt><trkpt lat="40.3087765857647" lon="17.621879076479022"><ele>3.9999999999999996</ele><time>2026-04-08T15:32:19Z</time></trkpt><trkpt lat="40.3087723094522" lon="17.62177647262025"><ele>4.0</ele><time>2026-04-08T15:32:22Z</time></trkpt><trkpt lat="40.30877592880605" lon="17.621684170605647"><ele>4.0</ele><time>2026-04-08T15:32:24Z</time></trkpt><trkpt lat="40.30877456986755" lon="17.621575054936596"><ele>4.0</ele><time>2026-04-08T15:32:26Z</time></trkpt><trkpt lat="40.30878342469894" lon="17.62144462563131"><ele>4.0</ele><time>2026-04-08T15:32:29Z</time></trkpt><trkpt lat="40.30880561876126" lon="17.62135035347546"><ele>4.0</ele><time>2026-04-08T15:32:32Z</time></trkpt><trkpt lat="40.30884892742188" lon="17.621191908873083"><ele>4.0</ele><time>2026-04-08T15:32:35Z</time></trkpt><trkpt lat="40.30889327937333" lon="17.621087938269547"><ele>4.0</ele><time>2026-04-08T15:32:37Z</time></trkpt><trkpt lat="40.30892990059584" lon="17.620995541635835"><ele>3.9999999999999996</ele><time>2026-04-08T15:32:39Z</time></trkpt><trkpt lat="40.30897432239703" lon="17.620920435632737"><ele>4.0</ele><time>2026-04-08T15:32:42Z</time></trkpt><trkpt lat="40.30900630137053" lon="17.62084891255095"><ele>4.0</ele><time>2026-04-08T15:32:43Z</time></trkpt><trkpt lat="40.309048425726914" lon="17.620750261650983"><ele>4.0</ele><time>2026-04-08T15:32:45Z</time></trkpt><trkpt lat="40.30909060542534" lon="17.62065955707574"><ele>3.9999999999999996</ele><time>2026-04-08T15:32:47Z</time></trkpt><trkpt lat="40.30912229911148" lon="17.62056346016507"><ele>4.0</ele><time>2026-04-08T15:32:49Z</time></trkpt><trkpt lat="40.30914642769483" lon="17.620458464354368"><ele>3.9999999999999996</ele><time>2026-04-08T15:32:51Z</time></trkpt><trkpt lat="40.309172465971734" lon="17.620352273224658"><ele>4.0</ele><time>2026-04-08T15:32:53Z</time></trkpt><trkpt lat="40.30920207341709" lon="17.62025417317308"><ele>4.0</ele><time>2026-04-08T15:32:55Z</time></trkpt><trkpt lat="40.30923084936293" lon="17.620156401276187"><ele>4.0</ele><time>2026-04-08T15:32:57Z</time></trkpt><trkpt lat="40.30925767313598" lon="17.620064393211184"><ele>3.9999999999999996</ele><time>2026-04-08T15:32:59Z</time></trkpt><trkpt lat="40.309283995280225" lon="17.619966050563853"><ele>4.0</ele><time>2026-04-08T15:33:01Z</time></trkpt><trkpt lat="40.309311789612266" lon="17.619857962302145"><ele>4.166666666666666</ele><time>2026-04-08T15:33:03Z</time></trkpt><trkpt lat="40.30934170987046" lon="17.619749925167906"><ele>4.333333333333333</ele><time>2026-04-08T15:33:05Z</time></trkpt><trkpt lat="40.30936583763067" lon="17.619639953597385"><ele>4.5</ele><time>2026-04-08T15:33:07Z</time></trkpt><trkpt lat="40.309384116659196" lon="17.619540223052372"><ele>4.666666666666667</ele><time>2026-04-08T15:33:09Z</time></trkpt><trkpt lat="40.309412156475844" lon="17.619457379401684"><ele>4.833333333333334</ele><time>2026-04-08T15:33:11Z</time></trkpt><trkpt lat="40.309442444689026" lon="17.619356056018983"><ele>5.0</ele><time>2026-04-08T15:33:14Z</time></trkpt><trkpt lat="40.30947538866289" lon="17.619266152225382"><ele>5.333333333333334</ele><time>2026-04-08T15:33:17Z</time></trkpt><trkpt lat="40.309503369071855" lon="17.619183129573553"><ele>5.666666666666667</ele><time>2026-04-08T15:33:20Z</time></trkpt><trkpt lat="40.309517962800996" lon="17.619095503677922"><ele>6.0</ele><time>2026-04-08T15:33:23Z</time></trkpt><trkpt lat="40.30953424994752" lon="17.618996428693034"><ele>6.333333333333334</ele><time>2026-04-08T15:33:26Z</time></trkpt><trkpt lat="40.309573507187906" lon="17.618903502142704"><ele>6.666666666666667</ele><time>2026-04-08T15:33:29Z</time></trkpt><trkpt lat="40.30961084029769" lon="17.61882051826258"><ele>7.0</ele><time>2026-04-08T15:33:32.001Z</time></trkpt><trkpt lat="40.30961384358304" lon="17.618703919284897"><ele>7.0</ele><time>2026-04-08T15:33:35.001Z</time></trkpt><trkpt lat="40.309667152041165" lon="17.618655831448454"><ele>7.0</ele><time>2026-04-08T15:33:38.001Z</time></trkpt><trkpt lat="40.309716184067575" lon="17.618586427981615"><ele>7.0</ele><time>2026-04-08T15:33:41.001Z</time></trkpt><trkpt lat="40.30975748797978" lon="17.61851876831145"><ele>7.0</ele><time>2026-04-08T15:33:44.001Z</time></trkpt><trkpt lat="40.3097875155161" lon="17.61844305993542"><ele>7.0</ele><time>2026-04-08T15:33:47.001Z</time></trkpt><trkpt lat="40.309807525372435" lon="17.61835518656964"><ele>7.0</ele><time>2026-04-08T15:33:50.001Z</time></trkpt><trkpt lat="40.30981605472355" lon="17.618251765970243"><ele>7.0</ele><time>2026-04-08T15:33:53.001Z</time></trkpt><trkpt lat="40.3098269240891" lon="17.618149175111917"><ele>7.428571428571429</ele><time>2026-04-08T15:33:56.001Z</time></trkpt><trkpt lat="40.30983255020652" lon="17.618050957201987"><ele>7.857142857142858</ele><time>2026-04-08T15:33:59.001Z</time></trkpt><trkpt lat="40.309819478625535" lon="17.617957073738644"><ele>8.285714285714285</ele><time>2026-04-08T15:34:02.001Z</time></trkpt><trkpt lat="40.30981205950991" lon="17.61786750655367"><ele>8.714285714285715</ele><time>2026-04-08T15:34:06Z</time></trkpt><trkpt lat="40.30980173117706" lon="17.617764458508802"><ele>9.142857142857142</ele><time>2026-04-08T15:34:10Z</time></trkpt><trkpt lat="40.30979651205277" lon="17.617662172369783"><ele>9.571428571428571</ele><time>2026-04-08T15:34:14Z</time></trkpt><trkpt lat="40.30979409940094" lon="17.617573691958505"><ele>10.0</ele><time>2026-04-08T15:34:17Z</time></trkpt><trkpt lat="40.30979420587346" lon="17.617471148128292"><ele>10.166666666666668</ele><time>2026-04-08T15:34:20Z</time></trkpt><trkpt lat="40.30978381809997" lon="17.61736849272429"><ele>10.333333333333334</ele><time>2026-04-08T15:34:23Z</time></trkpt><trkpt lat="40.309785979523184" lon="17.6172502912759"><ele>10.5</ele><time>2026-04-08T15:34:26Z</time></trkpt><trkpt lat="40.30979718399784" lon="17.617116506997302"><ele>10.666666666666666</ele><time>2026-04-08T15:34:28Z</time></trkpt><trkpt lat="40.30980203431584" lon="17.61701973822238"><ele>10.833333333333332</ele><time>2026-04-08T15:34:30Z</time></trkpt><trkpt lat="40.30981020372709" lon="17.616912338462576"><ele>11.0</ele><time>2026-04-08T15:34:33Z</time></trkpt><trkpt lat="40.30983236869161" lon="17.616809868861157"><ele>11.166666666666666</ele><time>2026-04-08T15:34:36Z</time></trkpt><trkpt lat="40.30986665861444" lon="17.616716962938693"><ele>11.333333333333332</ele><time>2026-04-08T15:34:39Z</time></trkpt><trkpt lat="40.30989596609175" lon="17.616608715496508"><ele>11.5</ele><time>2026-04-08T15:34:42Z</time></trkpt><trkpt lat="40.30992736019975" lon="17.616497797916466"><ele>11.666666666666666</ele><time>2026-04-08T15:34:45Z</time></trkpt><trkpt lat="40.30995254411025" lon="17.61638777750531"><ele>11.833333333333334</ele><time>2026-04-08T15:34:48Z</time></trkpt><trkpt lat="40.30998147546311" lon="17.61628587649745"><ele>12.0</ele><time>2026-04-08T15:34:51Z</time></trkpt><trkpt lat="40.3100053473596" lon="17.61620314840009"><ele>12.0</ele><time>2026-04-08T15:34:54Z</time></trkpt><trkpt lat="40.31003304887639" lon="17.616120252851655"><ele>12.0</ele><time>2026-04-08T15:34:56Z</time></trkpt><trkpt lat="40.310063303947786" lon="17.616043015557945"><ele>12.0</ele><time>2026-04-08T15:34:59Z</time></trkpt><trkpt lat="40.31009096609745" lon="17.61593629528133"><ele>12.0</ele><time>2026-04-08T15:35:02Z</time></trkpt><trkpt lat="40.31011854297068" lon="17.6158272689864"><ele>12.0</ele><time>2026-04-08T15:35:04Z</time></trkpt><trkpt lat="40.310150134088275" lon="17.615733488160956"><ele>12.0</ele><time>2026-04-08T15:35:08Z</time></trkpt><trkpt lat="40.31018103139846" lon="17.615621763034063"><ele>11.999999999999998</ele><time>2026-04-08T15:35:12Z</time></trkpt><trkpt lat="40.31020292969169" lon="17.615536506433333"><ele>12.0</ele><time>2026-04-08T15:35:14Z</time></trkpt><trkpt lat="40.31022765827344" lon="17.61541931436744"><ele>12.0</ele><time>2026-04-08T15:35:17Z</time></trkpt><trkpt lat="40.31024220755179" lon="17.615318621722967"><ele>12.0</ele><time>2026-04-08T15:35:20Z</time></trkpt><trkpt lat="40.310254504609844" lon="17.61523668952684"><ele>12.0</ele><time>2026-04-08T15:35:22Z</time></trkpt><trkpt lat="40.3102684024276" lon="17.615151381157414"><ele>11.999999999999998</ele><time>2026-04-08T15:35:24Z</time></trkpt><trkpt lat="40.31026475514541" lon="17.615062551363263"><ele>12.0</ele><time>2026-04-08T15:35:26Z</time></trkpt><trkpt lat="40.310279781583894" lon="17.614969715685252"><ele>11.999999999999998</ele><time>2026-04-08T15:35:28Z</time></trkpt><trkpt lat="40.310284507332995" lon="17.614876907667142"><ele>12.0</ele><time>2026-04-08T15:35:30Z</time></trkpt><trkpt lat="40.310277387808036" lon="17.61478111975518"><ele>12.0</ele><time>2026-04-08T15:35:32Z</time></trkpt><trkpt lat="40.310285088130655" lon="17.614689362639062"><ele>12.0</ele><time>2026-04-08T15:35:34Z</time></trkpt><trkpt lat="40.31028351857098" lon="17.614591071126817"><ele>12.0</ele><time>2026-04-08T15:35:36Z</time></trkpt><trkpt lat="40.3102926860943" lon="17.614485555648123"><ele>11.999999999999998</ele><time>2026-04-08T15:35:38Z</time></trkpt><trkpt lat="40.310308882051785" lon="17.614400520369898"><ele>12.0</ele><time>2026-04-08T15:35:40Z</time></trkpt><trkpt lat="40.310318002690806" lon="17.61430734078746"><ele>11.857142857142856</ele><time>2026-04-08T15:35:42Z</time></trkpt><trkpt lat="40.310322439482846" lon="17.614218253757066"><ele>11.714285714285714</ele><time>2026-04-08T15:35:44Z</time></trkpt><trkpt lat="40.31031555824545" lon="17.614118039802307"><ele>11.571428571428571</ele><time>2026-04-08T15:35:46Z</time></trkpt><trkpt lat="40.31032916276711" lon="17.61403149957624"><ele>11.428571428571427</ele><time>2026-04-08T15:35:48Z</time></trkpt><trkpt lat="40.31032397787248" lon="17.61393830574796"><ele>11.285714285714285</ele><time>2026-04-08T15:35:50Z</time></trkpt><trkpt lat="40.310337185514" lon="17.613846574554074"><ele>11.142857142857142</ele><time>2026-04-08T15:35:52Z</time></trkpt><trkpt lat="40.31032999393651" lon="17.613762427810656"><ele>11.0</ele><time>2026-04-08T15:35:54Z</time></trkpt><trkpt lat="40.310350913180464" lon="17.613644234426133"><ele>11.0</ele><time>2026-04-08T15:35:57Z</time></trkpt><trkpt lat="40.31036997668377" lon="17.613524226512823"><ele>11.0</ele><time>2026-04-08T15:36:00Z</time></trkpt><trkpt lat="40.31039501381807" lon="17.613406822841764"><ele>11.0</ele><time>2026-04-08T15:36:03Z</time></trkpt><trkpt lat="40.310439961989985" lon="17.61330752686529"><ele>11.0</ele><time>2026-04-08T15:36:06Z</time></trkpt><trkpt lat="40.31044738550072" lon="17.613187722451464"><ele>11.0</ele><time>2026-04-08T15:36:09Z</time></trkpt><trkpt lat="40.31049466543218" lon="17.61308473940896"><ele>11.0</ele><time>2026-04-08T15:36:12Z</time></trkpt><trkpt lat="40.310498046476965" lon="17.613001457818815"><ele>11.0</ele><time>2026-04-08T15:36:14Z</time></trkpt><trkpt lat="40.31050659178786" lon="17.612887450383546"><ele>11.0</ele><time>2026-04-08T15:36:17Z</time></trkpt><trkpt lat="40.31053752717744" lon="17.612776250048956"><ele>11.0</ele><time>2026-04-08T15:36:20Z</time></trkpt><trkpt lat="40.31056777025181" lon="17.612658728327222"><ele>11.0</ele><time>2026-04-08T15:36:23Z</time></trkpt><trkpt lat="40.31058590959915" lon="17.612578048814544"><ele>11.0</ele><time>2026-04-08T15:36:25Z</time></trkpt><trkpt lat="40.31062039814502" lon="17.612458774611405"><ele>11.5</ele><time>2026-04-08T15:36:28Z</time></trkpt><trkpt lat="40.31066877635615" lon="17.612359523176337"><ele>12.0</ele><time>2026-04-08T15:36:31Z</time></trkpt><trkpt lat="40.31067504666458" lon="17.612247560207045"><ele>12.5</ele><time>2026-04-08T15:36:34Z</time></trkpt><trkpt lat="40.31068863049116" lon="17.612145610457564"><ele>13.0</ele><time>2026-04-08T15:36:37Z</time></trkpt><trkpt lat="40.31071085207059" lon="17.612058672934328"><ele>13.500000000000002</ele><time>2026-04-08T15:36:41Z</time></trkpt><trkpt lat="40.310738027684046" lon="17.61197553347448"><ele>14.0</ele><time>2026-04-08T15:36:44Z</time></trkpt><trkpt lat="40.31075356372935" lon="17.61188253373115"><ele>14.166666666666668</ele><time>2026-04-08T15:36:47Z</time></trkpt><trkpt lat="40.31077538784374" lon="17.611790559089382"><ele>14.333333333333334</ele><time>2026-04-08T15:36:50Z</time></trkpt><trkpt lat="40.310786292748986" lon="17.61169554218173"><ele>14.5</ele><time>2026-04-08T15:36:54Z</time></trkpt><trkpt lat="40.310828213118974" lon="17.611595445519878"><ele>14.666666666666668</ele><time>2026-04-08T15:36:58Z</time></trkpt><trkpt lat="40.31084184287098" lon="17.611493392811237"><ele>14.833333333333334</ele><time>2026-04-08T15:37:15Z</time></trkpt><trkpt lat="40.31085583983046" lon="17.61138246384917"><ele>15.0</ele><time>2026-04-08T15:37:18Z</time></trkpt><trkpt lat="40.310878491039375" lon="17.611302625254613"><ele>15.0</ele><time>2026-04-08T15:37:20Z</time></trkpt><trkpt lat="40.31090411319116" lon="17.611217255386848"><ele>15.0</ele><time>2026-04-08T15:37:22Z</time></trkpt><trkpt lat="40.310927403921426" lon="17.611126035162055"><ele>15.0</ele><time>2026-04-08T15:37:24Z</time></trkpt><trkpt lat="40.3109528604607" lon="17.61103609005395"><ele>15.0</ele><time>2026-04-08T15:37:26Z</time></trkpt><trkpt lat="40.31098284190444" lon="17.610945932985143"><ele>15.0</ele><time>2026-04-08T15:37:28Z</time></trkpt><trkpt lat="40.31100358234536" lon="17.610848151384218"><ele>15.0</ele><time>2026-04-08T15:37:30Z</time></trkpt><trkpt lat="40.31103587183092" lon="17.610737392125085"><ele>14.8</ele><time>2026-04-08T15:37:32Z</time></trkpt><trkpt lat="40.311055710595426" lon="17.61061962295218"><ele>14.6</ele><time>2026-04-08T15:37:34Z</time></trkpt><trkpt lat="40.311091873617094" lon="17.610503838957886"><ele>14.399999999999999</ele><time>2026-04-08T15:37:36Z</time></trkpt><trkpt lat="40.311160182658774" lon="17.610341478190662"><ele>14.2</ele><time>2026-04-08T15:37:39Z</time></trkpt><trkpt lat="40.311198098635934" lon="17.610238654221966"><ele>14.0</ele><time>2026-04-08T15:37:41Z</time></trkpt><trkpt lat="40.311230906902296" lon="17.61012712980542"><ele>14.000000000000002</ele><time>2026-04-08T15:37:43Z</time></trkpt><trkpt lat="40.31124647967668" lon="17.610025958590594"><ele>14.0</ele><time>2026-04-08T15:37:46Z</time></trkpt><trkpt lat="40.31118691131378" lon="17.610072414439575"><ele>14.0</ele><time>2026-04-08T15:37:49Z</time></trkpt><trkpt lat="40.311179306481364" lon="17.61016297111101"><ele>14.0</ele><time>2026-04-08T15:37:51Z</time></trkpt><trkpt lat="40.311164510016845" lon="17.61026867417845"><ele>14.000000000000002</ele><time>2026-04-08T15:37:53Z</time></trkpt><trkpt lat="40.31114216876359" lon="17.610376410338702"><ele>14.0</ele><time>2026-04-08T15:37:55Z</time></trkpt><trkpt lat="40.3111173644447" lon="17.610469819123214"><ele>14.0</ele><time>2026-04-08T15:37:57Z</time></trkpt><trkpt lat="40.31102320751452" lon="17.610482016754602"><ele>13.999999999999998</ele><time>2026-04-08T15:38:00Z</time></trkpt><trkpt lat="40.31092691336152" lon="17.61045382667153"><ele>13.999999999999998</ele><time>2026-04-08T15:38:02Z</time></trkpt><trkpt lat="40.31083662915723" lon="17.610426929807883"><ele>14.0</ele><time>2026-04-08T15:38:04Z</time></trkpt><trkpt lat="40.310741659107315" lon="17.610406299253647"><ele>14.0</ele><time>2026-04-08T15:38:06Z</time></trkpt><trkpt lat="40.31062747999635" lon="17.610385850640753"><ele>14.2</ele><time>2026-04-08T15:38:08Z</time></trkpt><trkpt lat="40.31051982116338" lon="17.610361019900257"><ele>14.399999999999999</ele><time>2026-04-08T15:38:10Z</time></trkpt><trkpt lat="40.31042692348442" lon="17.610342452638932"><ele>14.6</ele><time>2026-04-08T15:38:12Z</time></trkpt><trkpt lat="40.31033854454369" lon="17.610329315011626"><ele>14.8</ele><time>2026-04-08T15:38:14Z</time></trkpt><trkpt lat="40.310229917403724" lon="17.610314937960066"><ele>15.0</ele><time>2026-04-08T15:38:16Z</time></trkpt><trkpt lat="40.310109264933" lon="17.61029189371589"><ele>14.6</ele><time>2026-04-08T15:38:18Z</time></trkpt><trkpt lat="40.310013162653675" lon="17.61027187128702"><ele>14.2</ele><time>2026-04-08T15:38:20Z</time></trkpt><trkpt lat="40.309910829394774" lon="17.610252080154922"><ele>13.8</ele><time>2026-04-08T15:38:22Z</time></trkpt><trkpt lat="40.30979152224649" lon="17.61022489244114"><ele>13.4</ele><time>2026-04-08T15:38:24Z</time></trkpt><trkpt lat="40.30967507357784" lon="17.610202708988318"><ele>13.0</ele><time>2026-04-08T15:38:26Z</time></trkpt><trkpt lat="40.30962181968906" lon="17.610137446780744"><ele>12.833333333333332</ele><time>2026-04-08T15:38:27Z</time></trkpt><trkpt lat="40.30955917028765" lon="17.61012309142856"><ele>12.666666666666666</ele><time>2026-04-08T15:38:28Z</time></trkpt><trkpt lat="40.309496470247545" lon="17.610108724443375"><ele>12.5</ele><time>2026-04-08T15:38:29Z</time></trkpt><trkpt lat="40.30942974989625" lon="17.61009677603031"><ele>12.333333333333332</ele><time>2026-04-08T15:38:30Z</time></trkpt><trkpt lat="40.30931461167568" lon="17.61007613076666"><ele>12.166666666666666</ele><time>2026-04-08T15:38:32Z</time></trkpt><trkpt lat="40.309203329764046" lon="17.610056176994554"><ele>12.0</ele><time>2026-04-08T15:38:34Z</time></trkpt><trkpt lat="40.30910033858984" lon="17.6100377098015"><ele>12.0</ele><time>2026-04-08T15:38:36Z</time></trkpt><trkpt lat="40.308993310812376" lon="17.610018518821658"><ele>12.0</ele><time>2026-04-08T15:38:38Z</time></trkpt><trkpt lat="40.308889430233435" lon="17.609999892175644"><ele>12.0</ele><time>2026-04-08T15:38:40Z</time></trkpt><trkpt lat="40.308824638372116" lon="17.610009440179592"><ele>12.0</ele><time>2026-04-08T15:38:41Z</time></trkpt><trkpt lat="40.30876074153106" lon="17.61000062992185"><ele>12.0</ele><time>2026-04-08T15:38:42Z</time></trkpt><trkpt lat="40.308694310996685" lon="17.609988369603418"><ele>12.0</ele><time>2026-04-08T15:38:43Z</time></trkpt><trkpt lat="40.30862775922458" lon="17.609971028752756"><ele>11.714285714285714</ele><time>2026-04-08T15:38:44Z</time></trkpt><trkpt lat="40.308565244894325" lon="17.609951564535237"><ele>11.428571428571429</ele><time>2026-04-08T15:38:45Z</time></trkpt><trkpt lat="40.30850268754673" lon="17.60994144296893"><ele>11.142857142857142</ele><time>2026-04-08T15:38:46Z</time></trkpt><trkpt lat="40.308433464592795" lon="17.609929068790475"><ele>10.857142857142858</ele><time>2026-04-08T15:38:47Z</time></trkpt><trkpt lat="40.308370647856634" lon="17.609913461135434"><ele>10.571428571428571</ele><time>2026-04-08T15:38:48Z</time></trkpt><trkpt lat="40.30830802770426" lon="17.609899182769517"><ele>10.285714285714285</ele><time>2026-04-08T15:38:49Z</time></trkpt><trkpt lat="40.3082395857062" lon="17.609971298222057"><ele>10.0</ele><time>2026-04-08T15:38:51Z</time></trkpt><trkpt lat="40.30825082801512" lon="17.610123398343877"><ele>10.0</ele><time>2026-04-08T15:38:53Z</time></trkpt><trkpt lat="40.30822781003271" lon="17.61027763161858"><ele>10.0</ele><time>2026-04-08T15:38:55Z</time></trkpt><trkpt lat="40.30821570596293" lon="17.61035895137408"><ele>10.0</ele><time>2026-04-08T15:38:56Z</time></trkpt><trkpt lat="40.30820497282153" lon="17.610441739307646"><ele>10.0</ele><time>2026-04-08T15:38:57Z</time></trkpt><trkpt lat="40.30819617829671" lon="17.610524795220623"><ele>10.0</ele><time>2026-04-08T15:38:58Z</time></trkpt><trkpt lat="40.30818494705563" lon="17.61060839067812"><ele>10.0</ele><time>2026-04-08T15:38:59Z</time></trkpt><trkpt lat="40.30817593256165" lon="17.610691436868102"><ele>10.0</ele><time>2026-04-08T15:39:00Z</time></trkpt><trkpt lat="40.30816534581749" lon="17.61077331238816"><ele>10.0</ele><time>2026-04-08T15:39:01Z</time></trkpt><trkpt lat="40.308153195148236" lon="17.610858296328466"><ele>10.0</ele><time>2026-04-08T15:39:02Z</time></trkpt><trkpt lat="40.30814627906279" lon="17.610943555290532"><ele>10.0</ele><time>2026-04-08T15:39:03Z</time></trkpt><trkpt lat="40.30813748767536" lon="17.611029152367596"><ele>10.0</ele><time>2026-04-08T15:39:04Z</time></trkpt><trkpt lat="40.30811301840217" lon="17.611187004997312"><ele>10.0</ele><time>2026-04-08T15:39:06Z</time></trkpt><trkpt lat="40.30811030051126" lon="17.61134251233654"><ele>10.0</ele><time>2026-04-08T15:39:08Z</time></trkpt><trkpt lat="40.308057960130235" lon="17.611473904216627"><ele>9.4</ele><time>2026-04-08T15:39:10Z</time></trkpt><trkpt lat="40.308039279779756" lon="17.61162030965459"><ele>8.8</ele><time>2026-04-08T15:39:12Z</time></trkpt><trkpt lat="40.30802947890563" lon="17.61175758366105"><ele>8.2</ele><time>2026-04-08T15:39:14Z</time></trkpt><trkpt lat="40.308016315537884" lon="17.61188109399373"><ele>7.6</ele><time>2026-04-08T15:39:16Z</time></trkpt><trkpt lat="40.30799845507992" lon="17.612009766143736"><ele>7.0</ele><time>2026-04-08T15:39:18Z</time></trkpt><trkpt lat="40.30798027229178" lon="17.612141051415687"><ele>7.000000000000001</ele><time>2026-04-08T15:39:20Z</time></trkpt><trkpt lat="40.307963109068154" lon="17.612264975211538"><ele>7.0</ele><time>2026-04-08T15:39:22Z</time></trkpt><trkpt lat="40.30794697870149" lon="17.61238005673655"><ele>7.0</ele><time>2026-04-08T15:39:24Z</time></trkpt><trkpt lat="40.307933298185304" lon="17.612477246696823"><ele>7.0</ele><time>2026-04-08T15:39:26Z</time></trkpt><trkpt lat="40.307919054826215" lon="17.61257843513975"><ele>7.000000000000001</ele><time>2026-04-08T15:39:28Z</time></trkpt><trkpt lat="40.30791742204323" lon="17.612694841356596"><ele>7.0</ele><time>2026-04-08T15:39:30Z</time></trkpt><trkpt lat="40.307904863069446" lon="17.612813979287424"><ele>7.166666666666667</ele><time>2026-04-08T15:39:32Z</time></trkpt><trkpt lat="40.307876353455626" lon="17.612933330885493"><ele>7.333333333333334</ele><time>2026-04-08T15:39:34Z</time></trkpt><trkpt lat="40.30787746700386" lon="17.613049110681853"><ele>7.5</ele><time>2026-04-08T15:39:36Z</time></trkpt><trkpt lat="40.307844723392385" lon="17.613154341959667"><ele>7.666666666666666</ele><time>2026-04-08T15:39:38Z</time></trkpt><trkpt lat="40.30785401189076" lon="17.613259287450493"><ele>7.833333333333333</ele><time>2026-04-08T15:39:40Z</time></trkpt><trkpt lat="40.30776443275232" lon="17.613278969259696"><ele>8.0</ele><time>2026-04-08T15:39:43Z</time></trkpt><trkpt lat="40.307695059161155" lon="17.613245358511314"><ele>7.999999999999999</ele><time>2026-04-08T15:39:45Z</time></trkpt><trkpt lat="40.307618299962634" lon="17.613225091611376"><ele>8.0</ele><time>2026-04-08T15:39:47Z</time></trkpt><trkpt lat="40.30754674419154" lon="17.61321588385898"><ele>8.0</ele><time>2026-04-08T15:39:49Z</time></trkpt><trkpt lat="40.307479320430076" lon="17.613210944817588"><ele>8.0</ele><time>2026-04-08T15:39:52Z</time></trkpt><trkpt lat="40.30740759659654" lon="17.613193330310914"><ele>7.999999999999999</ele><time>2026-04-08T15:39:56Z</time></trkpt><trkpt lat="40.30732920410758" lon="17.61318626652147"><ele>8.0</ele><time>2026-04-08T15:40:00Z</time></trkpt><trkpt lat="40.30723671591044" lon="17.613166046852168"><ele>7.999999999999999</ele><time>2026-04-08T15:40:03Z</time></trkpt><trkpt lat="40.30716239429298" lon="17.613150160473943"><ele>8.0</ele><time>2026-04-08T15:40:05Z</time></trkpt><trkpt lat="40.307076492313655" lon="17.613145622173885"><ele>8.0</ele><time>2026-04-08T15:40:07Z</time></trkpt><trkpt lat="40.30699650924178" lon="17.613129224931207"><ele>8.0</ele><time>2026-04-08T15:40:09Z</time></trkpt><trkpt lat="40.30690583169548" lon="17.613112717154674"><ele>7.999999999999999</ele><time>2026-04-08T15:40:11Z</time></trkpt><trkpt lat="40.306814784294595" lon="17.613101325124127"><ele>8.0</ele><time>2026-04-08T15:40:13Z</time></trkpt><trkpt lat="40.30672557031" lon="17.613084109177674"><ele>8.0</ele><time>2026-04-08T15:40:15Z</time></trkpt><trkpt lat="40.30663326910735" lon="17.613068066401436"><ele>8.0</ele><time>2026-04-08T15:40:17Z</time></trkpt><trkpt lat="40.30654412465751" lon="17.613052089507956"><ele>8.0</ele><time>2026-04-08T15:40:19Z</time></trkpt><trkpt lat="40.30645042186767" lon="17.613034580322495"><ele>8.0</ele><time>2026-04-08T15:40:21Z</time></trkpt><trkpt lat="40.306357963557545" lon="17.613013634775236"><ele>8.0</ele><time>2026-04-08T15:40:23Z</time></trkpt><trkpt lat="40.306271872068024" lon="17.612997741989908"><ele>8.333333333333332</ele><time>2026-04-08T15:40:25Z</time></trkpt><trkpt lat="40.30618282257414" lon="17.612984445370817"><ele>8.666666666666666</ele><time>2026-04-08T15:40:27Z</time></trkpt><trkpt lat="40.30609605110455" lon="17.612968228537692"><ele>9.0</ele><time>2026-04-08T15:40:29Z</time></trkpt><trkpt lat="40.306009707317166" lon="17.612953807271808"><ele>9.333333333333334</ele><time>2026-04-08T15:40:31Z</time></trkpt><trkpt lat="40.30592364904997" lon="17.61293681314833"><ele>9.666666666666668</ele><time>2026-04-08T15:40:33Z</time></trkpt><trkpt lat="40.30584027261985" lon="17.612921209211823"><ele>10.0</ele><time>2026-04-08T15:40:35Z</time></trkpt><trkpt lat="40.305758269846386" lon="17.612906626118072"><ele>10.0</ele><time>2026-04-08T15:40:37Z</time></trkpt><trkpt lat="40.30567145626934" lon="17.612890959081227"><ele>10.0</ele><time>2026-04-08T15:40:39Z</time></trkpt><trkpt lat="40.30558889268108" lon="17.612875760577058"><ele>10.0</ele><time>2026-04-08T15:40:41Z</time></trkpt><trkpt lat="40.30550026722825" lon="17.612870578767645"><ele>10.0</ele><time>2026-04-08T15:40:43Z</time></trkpt><trkpt lat="40.30540751549462" lon="17.61283652472053"><ele>10.0</ele><time>2026-04-08T15:40:45Z</time></trkpt><trkpt lat="40.30531952989969" lon="17.61281763627762"><ele>10.0</ele><time>2026-04-08T15:40:47Z</time></trkpt><trkpt lat="40.30523641820474" lon="17.61280183467891"><ele>10.0</ele><time>2026-04-08T15:40:49Z</time></trkpt><trkpt lat="40.30514001221868" lon="17.612797228191635"><ele>10.0</ele><time>2026-04-08T15:40:51Z</time></trkpt><trkpt lat="40.30504653701713" lon="17.612776630613592"><ele>10.0</ele><time>2026-04-08T15:40:53Z</time></trkpt><trkpt lat="40.30495361268071" lon="17.61275821532439"><ele>10.0</ele><time>2026-04-08T15:40:55Z</time></trkpt><trkpt lat="40.30488892051317" lon="17.612750150475893"><ele>10.0</ele><time>2026-04-08T15:40:58Z</time></trkpt><trkpt lat="40.30481290450588" lon="17.612737414650624"><ele>10.0</ele><time>2026-04-08T15:40:59Z</time></trkpt><trkpt lat="40.304724913737836" lon="17.61272641361026"><ele>10.0</ele><time>2026-04-08T15:41:01Z</time></trkpt><trkpt lat="40.30463331085388" lon="17.61270899865438"><ele>10.0</ele><time>2026-04-08T15:41:02Z</time></trkpt><trkpt lat="40.304525792929496" lon="17.612689902011315"><ele>10.0</ele><time>2026-04-08T15:41:04Z</time></trkpt><trkpt lat="40.304426045052686" lon="17.612644419799928"><ele>10.0</ele><time>2026-04-08T15:41:06Z</time></trkpt><trkpt lat="40.30432612777205" lon="17.612625843921283"><ele>10.0</ele><time>2026-04-08T15:41:08Z</time></trkpt><trkpt lat="40.30422661176356" lon="17.61260734264161"><ele>10.0</ele><time>2026-04-08T15:41:10Z</time></trkpt><trkpt lat="40.304134238892956" lon="17.612591425109006"><ele>10.0</ele><time>2026-04-08T15:41:12Z</time></trkpt><trkpt lat="40.304049027784835" lon="17.61257723230516"><ele>10.0</ele><time>2026-04-08T15:41:14Z</time></trkpt><trkpt lat="40.303958632889426" lon="17.61256217606675"><ele>10.0</ele><time>2026-04-08T15:41:17Z</time></trkpt><trkpt lat="40.30382522230415" lon="17.612538002063552"><ele>10.0</ele><time>2026-04-08T15:41:19Z</time></trkpt><trkpt lat="40.303747140303955" lon="17.612522454470994"><ele>9.4</ele><time>2026-04-08T15:41:21Z</time></trkpt><trkpt lat="40.3036739667887" lon="17.61250788429451"><ele>8.8</ele><time>2026-04-08T15:41:23Z</time></trkpt><trkpt lat="40.30366820417435" lon="17.612389416813578"><ele>8.2</ele><time>2026-04-08T15:41:27Z</time></trkpt><trkpt lat="40.303671097569605" lon="17.612246588952612"><ele>7.6</ele><time>2026-04-08T15:41:29Z</time></trkpt><trkpt lat="40.303690775632504" lon="17.612126879836485"><ele>7.0</ele><time>2026-04-08T15:41:31Z</time></trkpt><trkpt lat="40.30372089440532" lon="17.612017172976767"><ele>6.8</ele><time>2026-04-08T15:41:33Z</time></trkpt><trkpt lat="40.30373999811492" lon="17.611906470755915"><ele>6.6</ele><time>2026-04-08T15:41:35Z</time></trkpt><trkpt lat="40.3037586464219" lon="17.61178359637244"><ele>6.3999999999999995</ele><time>2026-04-08T15:41:37Z</time></trkpt><trkpt lat="40.30374560413696" lon="17.611627618257092"><ele>6.199999999999999</ele><time>2026-04-08T15:41:40Z</time></trkpt><trkpt lat="40.30376529618514" lon="17.61149556182164"><ele>6.0</ele><time>2026-04-08T15:41:42Z</time></trkpt><trkpt lat="40.30378519754032" lon="17.6113866954967"><ele>6.0</ele><time>2026-04-08T15:41:44Z</time></trkpt><trkpt lat="40.30379172378303" lon="17.611266344413988"><ele>6.0</ele><time>2026-04-08T15:41:46Z</time></trkpt><trkpt lat="40.303810483300076" lon="17.61114838233479"><ele>6.0</ele><time>2026-04-08T15:41:48Z</time></trkpt><trkpt lat="40.303823261632175" lon="17.611037219349548"><ele>6.0</ele><time>2026-04-08T15:41:50Z</time></trkpt><trkpt lat="40.303830725684826" lon="17.610920665855094"><ele>6.0</ele><time>2026-04-08T15:41:52Z</time></trkpt><trkpt lat="40.303842372218654" lon="17.610806713455027"><ele>6.0</ele><time>2026-04-08T15:41:54Z</time></trkpt><trkpt lat="40.303856143531796" lon="17.610695399313926"><ele>6.25</ele><time>2026-04-08T15:41:56Z</time></trkpt><trkpt lat="40.303865547068646" lon="17.610589731657484"><ele>6.5</ele><time>2026-04-08T15:41:58Z</time></trkpt><trkpt lat="40.303868482995206" lon="17.61048610004917"><ele>6.75</ele><time>2026-04-08T15:42:00Z</time></trkpt><trkpt lat="40.30386356707483" lon="17.610402491763608"><ele>7.0</ele><time>2026-04-08T15:42:02Z</time></trkpt><trkpt lat="40.30415457044789" lon="17.610279827261202"><ele>7.000000000000001</ele><time>2026-04-08T15:43:12Z</time></trkpt><trkpt lat="40.30422765351914" lon="17.61024292788318"><ele>7.0</ele><time>2026-04-08T15:43:15Z</time></trkpt><trkpt lat="40.3042849543391" lon="17.610169856186943"><ele>7.0</ele><time>2026-04-08T15:43:18Z</time></trkpt><trkpt lat="40.30427142491612" lon="17.61004628126774"><ele>7.0</ele><time>2026-04-08T15:43:21Z</time></trkpt><trkpt lat="40.30424714535428" lon="17.609957017720244"><ele>7.000000000000001</ele><time>2026-04-08T15:43:23Z</time></trkpt><trkpt lat="40.304232570115175" lon="17.60987169573055"><ele>7.0</ele><time>2026-04-08T15:43:25Z</time></trkpt><trkpt lat="40.30422259249691" lon="17.60977765239225"><ele>7.0</ele><time>2026-04-08T15:43:27Z</time></trkpt><trkpt lat="40.30420512081333" lon="17.609684538654815"><ele>7.0</ele><time>2026-04-08T15:43:29Z</time></trkpt><trkpt lat="40.30418793151578" lon="17.609585677378455"><ele>7.0</ele><time>2026-04-08T15:43:31Z</time></trkpt><trkpt lat="40.30416891394125" lon="17.609492582471834"><ele>7.0</ele><time>2026-04-08T15:43:33Z</time></trkpt><trkpt lat="40.30415729217463" lon="17.60940274281123"><ele>7.0</ele><time>2026-04-08T15:43:35Z</time></trkpt><trkpt lat="40.304129255368984" lon="17.609319187265132"><ele>7.0</ele><time>2026-04-08T15:43:37Z</time></trkpt><trkpt lat="40.30411341373858" lon="17.60922967782132"><ele>7.0</ele><time>2026-04-08T15:43:39Z</time></trkpt><trkpt lat="40.3041166184778" lon="17.60913961168043"><ele>6.857142857142857</ele><time>2026-04-08T15:43:41Z</time></trkpt><trkpt lat="40.30409565822298" lon="17.609052928327543"><ele>6.714285714285714</ele><time>2026-04-08T15:43:43Z</time></trkpt><trkpt lat="40.30407377719584" lon="17.608964257062734"><ele>6.571428571428571</ele><time>2026-04-08T15:43:45Z</time></trkpt><trkpt lat="40.30405767801581" lon="17.60887283344761"><ele>6.428571428571429</ele><time>2026-04-08T15:43:47Z</time></trkpt><trkpt lat="40.30404836150529" lon="17.608776067013135"><ele>6.285714285714286</ele><time>2026-04-08T15:43:49Z</time></trkpt><trkpt lat="40.30402642515879" lon="17.608676765593803"><ele>6.142857142857142</ele><time>2026-04-08T15:43:51Z</time></trkpt><trkpt lat="40.30400840037128" lon="17.608574855643322"><ele>6.0</ele><time>2026-04-08T15:43:53Z</time></trkpt><trkpt lat="40.30398530569475" lon="17.608474079608502"><ele>6.333333333333333</ele><time>2026-04-08T15:43:55Z</time></trkpt><trkpt lat="40.303961909447324" lon="17.60836907046236"><ele>6.666666666666666</ele><time>2026-04-08T15:43:57Z</time></trkpt><trkpt lat="40.30394483228913" lon="17.6082624370503"><ele>7.0</ele><time>2026-04-08T15:43:59Z</time></trkpt><trkpt lat="40.30392453700188" lon="17.60816021517077"><ele>7.333333333333333</ele><time>2026-04-08T15:44:01Z</time></trkpt><trkpt lat="40.30390838304117" lon="17.608052515846712"><ele>7.666666666666666</ele><time>2026-04-08T15:44:03Z</time></trkpt><trkpt lat="40.30389205312552" lon="17.607946321606082"><ele>8.0</ele><time>2026-04-08T15:44:05Z</time></trkpt><trkpt lat="40.30386515658769" lon="17.60783804282848"><ele>7.833333333333333</ele><time>2026-04-08T15:44:07Z</time></trkpt><trkpt lat="40.30385089609683" lon="17.607721638785677"><ele>7.666666666666666</ele><time>2026-04-08T15:44:09Z</time></trkpt><trkpt lat="40.30382567729953" lon="17.60761069773861"><ele>7.5</ele><time>2026-04-08T15:44:11Z</time></trkpt><trkpt lat="40.303803000527935" lon="17.607499966090604"><ele>7.333333333333334</ele><time>2026-04-08T15:44:13Z</time></trkpt><trkpt lat="40.30377507481205" lon="17.607396761659484"><ele>7.166666666666667</ele><time>2026-04-08T15:44:15Z</time></trkpt><trkpt lat="40.303702234934626" lon="17.60732629626172"><ele>7.0</ele><time>2026-04-08T15:44:17Z</time></trkpt><trkpt lat="40.30361871552437" lon="17.607309223145858"><ele>7.0</ele><time>2026-04-08T15:44:19Z</time></trkpt><trkpt lat="40.30352895338757" lon="17.607307928085074"><ele>6.999999999999999</ele><time>2026-04-08T15:44:21Z</time></trkpt><trkpt lat="40.303474152094125" lon="17.607216032006633"><ele>6.999999999999999</ele><time>2026-04-08T15:44:23Z</time></trkpt><trkpt lat="40.30346060612077" lon="17.607088609727683"><ele>7.0</ele><time>2026-04-08T15:44:25Z</time></trkpt><trkpt lat="40.30345143694339" lon="17.606964571523903"><ele>7.0</ele><time>2026-04-08T15:44:27Z</time></trkpt><trkpt lat="40.30344613374386" lon="17.606834667595095"><ele>6.8</ele><time>2026-04-08T15:44:29Z</time></trkpt><trkpt lat="40.30343019682707" lon="17.606701320158827"><ele>6.6</ele><time>2026-04-08T15:44:31Z</time></trkpt><trkpt lat="40.303418070978395" lon="17.606567881973145"><ele>6.3999999999999995</ele><time>2026-04-08T15:44:33Z</time></trkpt><trkpt lat="40.303402533618495" lon="17.606463599592946"><ele>6.199999999999999</ele><time>2026-04-08T15:44:35Z</time></trkpt><trkpt lat="40.30340047435354" lon="17.6063605415494"><ele>6.0</ele><time>2026-04-08T15:44:36Z</time></trkpt><trkpt lat="40.30339247667002" lon="17.606207228838624"><ele>5.8</ele><time>2026-04-08T15:44:38Z</time></trkpt><trkpt lat="40.30338499359263" lon="17.60608007226722"><ele>5.6</ele><time>2026-04-08T15:44:40Z</time></trkpt><trkpt lat="40.30336993510118" lon="17.605935484839453"><ele>5.4</ele><time>2026-04-08T15:44:42Z</time></trkpt><trkpt lat="40.30335619594278" lon="17.605792004130596"><ele>5.2</ele><time>2026-04-08T15:44:44Z</time></trkpt><trkpt lat="40.30334441220818" lon="17.60564319580389"><ele>5.0</ele><time>2026-04-08T15:44:46Z</time></trkpt><trkpt lat="40.30333084817061" lon="17.605495399547557"><ele>5.0</ele><time>2026-04-08T15:44:48Z</time></trkpt><trkpt lat="40.303319702748986" lon="17.60534649716321"><ele>5.0</ele><time>2026-04-08T15:44:50Z</time></trkpt><trkpt lat="40.3033069346662" lon="17.60519993000929"><ele>5.0</ele><time>2026-04-08T15:44:52Z</time></trkpt><trkpt lat="40.30329712625936" lon="17.605047625987286"><ele>5.0</ele><time>2026-04-08T15:44:54Z</time></trkpt><trkpt lat="40.303283129292666" lon="17.604901689303283"><ele>5.0</ele><time>2026-04-08T15:44:56Z</time></trkpt><trkpt lat="40.30327074228951" lon="17.604749385206176"><ele>5.0</ele><time>2026-04-08T15:44:58Z</time></trkpt><trkpt lat="40.3032544364054" lon="17.604597122050944"><ele>5.0</ele><time>2026-04-08T15:45:00Z</time></trkpt><trkpt lat="40.30324137878294" lon="17.604439800996367"><ele>5.0</ele><time>2026-04-08T15:45:02Z</time></trkpt><trkpt lat="40.30323669742093" lon="17.604348786649965"><ele>5.0</ele><time>2026-04-08T15:45:03Z</time></trkpt><trkpt lat="40.3032336788656" lon="17.604203899559195"><ele>5.2</ele><time>2026-04-08T15:45:05Z</time></trkpt><trkpt lat="40.30321467915599" lon="17.604120217419993"><ele>5.4</ele><time>2026-04-08T15:45:06Z</time></trkpt><trkpt lat="40.303212626786966" lon="17.604034643171502"><ele>5.6</ele><time>2026-04-08T15:45:07Z</time></trkpt><trkpt lat="40.30320649695165" lon="17.60389204243989"><ele>5.8</ele><time>2026-04-08T15:45:09Z</time></trkpt><trkpt lat="40.30318038792704" lon="17.603746456320554"><ele>6.0</ele><time>2026-04-08T15:45:11Z</time></trkpt><trkpt lat="40.30316892828417" lon="17.603591027685646"><ele>6.0</ele><time>2026-04-08T15:45:13Z</time></trkpt><trkpt lat="40.30312594410698" lon="17.603430535765664"><ele>6.0</ele><time>2026-04-08T15:45:15Z</time></trkpt><trkpt lat="40.30313905337105" lon="17.603324054405324"><ele>6.0</ele><time>2026-04-08T15:45:17Z</time></trkpt><trkpt lat="40.30312829319622" lon="17.603241701718776"><ele>6.0</ele><time>2026-04-08T15:45:18Z</time></trkpt><trkpt lat="40.303116362713695" lon="17.603102043463608"><ele>6.0</ele><time>2026-04-08T15:45:20Z</time></trkpt><trkpt lat="40.303102375915635" lon="17.60296851854337"><ele>6.0</ele><time>2026-04-08T15:45:22Z</time></trkpt><trkpt lat="40.30307302649873" lon="17.602838071001244"><ele>6.0</ele><time>2026-04-08T15:45:24Z</time></trkpt><trkpt lat="40.303073051393554" lon="17.602702111783806"><ele>6.0</ele><time>2026-04-08T15:45:26Z</time></trkpt><trkpt lat="40.30306829766995" lon="17.60257957257756"><ele>6.0</ele><time>2026-04-08T15:45:28Z</time></trkpt><trkpt lat="40.303052907769214" lon="17.602460007572503"><ele>6.0</ele><time>2026-04-08T15:45:30Z</time></trkpt><trkpt lat="40.30303877673539" lon="17.602334794618724"><ele>6.199999999999999</ele><time>2026-04-08T15:45:32Z</time></trkpt><trkpt lat="40.30302466150915" lon="17.6022072500202"><ele>6.3999999999999995</ele><time>2026-04-08T15:45:34Z</time></trkpt><trkpt lat="40.303013192745304" lon="17.602079636711462"><ele>6.6</ele><time>2026-04-08T15:45:36Z</time></trkpt><trkpt lat="40.303005042895684" lon="17.601948207699266"><ele>6.8</ele><time>2026-04-08T15:45:38Z</time></trkpt><trkpt lat="40.302982822211085" lon="17.601830215446597"><ele>7.0</ele><time>2026-04-08T15:45:40Z</time></trkpt><trkpt lat="40.302981152196345" lon="17.601710025317825"><ele>7.166666666666667</ele><time>2026-04-08T15:45:42Z</time></trkpt><trkpt lat="40.30297224995379" lon="17.601594527679946"><ele>7.333333333333334</ele><time>2026-04-08T15:45:44Z</time></trkpt><trkpt lat="40.3029619414884" lon="17.60148287263372"><ele>7.5</ele><time>2026-04-08T15:45:46Z</time></trkpt><trkpt lat="40.3029514911904" lon="17.60137047947417"><ele>7.666666666666666</ele><time>2026-04-08T15:45:48Z</time></trkpt><trkpt lat="40.30293986057748" lon="17.601252523796692"><ele>7.833333333333333</ele><time>2026-04-08T15:45:50Z</time></trkpt><trkpt lat="40.302935371349015" lon="17.601140673837"><ele>8.0</ele><time>2026-04-08T15:45:52Z</time></trkpt><trkpt lat="40.30293129615562" lon="17.60102022871957"><ele>7.999999999999999</ele><time>2026-04-08T15:45:54Z</time></trkpt><trkpt lat="40.30296214108648" lon="17.600915411436524"><ele>8.0</ele><time>2026-04-08T15:45:56Z</time></trkpt><trkpt lat="40.303041495297265" lon="17.60085219354219"><ele>8.0</ele><time>2026-04-08T15:45:58Z</time></trkpt><trkpt lat="40.30311670537808" lon="17.600806842708018"><ele>8.0</ele><time>2026-04-08T15:46:00Z</time></trkpt><trkpt lat="40.30317112164374" lon="17.60073919666563"><ele>7.999999999999999</ele><time>2026-04-08T15:46:02Z</time></trkpt><trkpt lat="40.30320291445088" lon="17.600651170747195"><ele>8.0</ele><time>2026-04-08T15:46:04Z</time></trkpt><trkpt lat="40.30321978367946" lon="17.600525263196662"><ele>7.999999999999999</ele><time>2026-04-08T15:46:07Z</time></trkpt><trkpt lat="40.30321511560224" lon="17.600404686739655"><ele>8.0</ele><time>2026-04-08T15:46:10Z</time></trkpt><trkpt lat="40.30320942567932" lon="17.60031485945032"><ele>8.0</ele><time>2026-04-08T15:46:12Z</time></trkpt><trkpt lat="40.30321137701957" lon="17.60019325584462"><ele>8.0</ele><time>2026-04-08T15:46:15Z</time></trkpt><trkpt lat="40.303217515358426" lon="17.600108710322925"><ele>7.999999999999999</ele><time>2026-04-08T15:46:17Z</time></trkpt><trkpt lat="40.30322239118691" lon="17.60002094722195"><ele>8.0</ele><time>2026-04-08T15:46:20Z</time></trkpt><trkpt lat="40.303229422090624" lon="17.599921105948212"><ele>8.200000000000001</ele><time>2026-04-08T15:46:23Z</time></trkpt><trkpt lat="40.30323332370637" lon="17.599815437598817"><ele>8.4</ele><time>2026-04-08T15:46:26Z</time></trkpt><trkpt lat="40.303256264201615" lon="17.59964546740518"><ele>8.600000000000001</ele><time>2026-04-08T15:46:29Z</time></trkpt><trkpt lat="40.303250775449946" lon="17.599535712139325"><ele>8.8</ele><time>2026-04-08T15:46:31Z</time></trkpt><trkpt lat="40.30326825864248" lon="17.599419490363744"><ele>9.0</ele><time>2026-04-08T15:46:33Z</time></trkpt><trkpt lat="40.30327662662994" lon="17.599328450813935"><ele>9.0</ele><time>2026-04-08T15:46:36Z</time></trkpt><trkpt lat="40.30329154104951" lon="17.599214338767418"><ele>9.0</ele><time>2026-04-08T15:46:38Z</time></trkpt><trkpt lat="40.303296471889176" lon="17.599068781607887"><ele>9.0</ele><time>2026-04-08T15:46:41Z</time></trkpt><trkpt lat="40.303294229408976" lon="17.59898313592691"><ele>9.0</ele><time>2026-04-08T15:46:42Z</time></trkpt><trkpt lat="40.3032987111544" lon="17.59883532953827"><ele>9.0</ele><time>2026-04-08T15:46:44Z</time></trkpt><trkpt lat="40.30330218090858" lon="17.598704603071095"><ele>8.6</ele><time>2026-04-08T15:46:46Z</time></trkpt><trkpt lat="40.30330986708684" lon="17.59856806470455"><ele>8.2</ele><time>2026-04-08T15:46:48Z</time></trkpt><trkpt lat="40.30332427082681" lon="17.598448301279106"><ele>7.799999999999999</ele><time>2026-04-08T15:46:50Z</time></trkpt><trkpt lat="40.303337255052206" lon="17.598338187033963"><ele>7.3999999999999995</ele><time>2026-04-08T15:46:52Z</time></trkpt><trkpt lat="40.30333515178497" lon="17.598224030513503"><ele>7.0</ele><time>2026-04-08T15:46:54Z</time></trkpt><trkpt lat="40.30334454685255" lon="17.598117819455712"><ele>7.0</ele><time>2026-04-08T15:46:56Z</time></trkpt><trkpt lat="40.30334979582119" lon="17.59803475850075"><ele>7.0</ele><time>2026-04-08T15:46:58Z</time></trkpt><trkpt lat="40.30334189602642" lon="17.597949728120852"><ele>7.0</ele><time>2026-04-08T15:47:00Z</time></trkpt><trkpt lat="40.30335763805436" lon="17.59786218291819"><ele>7.0</ele><time>2026-04-08T15:47:02Z</time></trkpt><trkpt lat="40.30337245166364" lon="17.597770589758145"><ele>7.0</ele><time>2026-04-08T15:47:04Z</time></trkpt><trkpt lat="40.30342026738433" lon="17.59769246202216"><ele>7.0</ele><time>2026-04-08T15:47:06Z</time></trkpt><trkpt lat="40.30349858669602" lon="17.597663229156097"><ele>7.0</ele><time>2026-04-08T15:47:08Z</time></trkpt><trkpt lat="40.30357943849128" lon="17.597656688897576"><ele>6.833333333333334</ele><time>2026-04-08T15:47:10Z</time></trkpt><trkpt lat="40.30366513368688" lon="17.597658435998184"><ele>6.666666666666667</ele><time>2026-04-08T15:47:12Z</time></trkpt><trkpt lat="40.30374718877902" lon="17.59766736399999"><ele>6.5</ele><time>2026-04-08T15:47:14Z</time></trkpt><trkpt lat="40.3038330439996" lon="17.597675324500276"><ele>6.333333333333334</ele><time>2026-04-08T15:47:16Z</time></trkpt><trkpt lat="40.303923347730006" lon="17.59767856295913"><ele>6.166666666666667</ele><time>2026-04-08T15:47:18Z</time></trkpt><trkpt lat="40.304016483905535" lon="17.597697578108935"><ele>6.0</ele><time>2026-04-08T15:47:20Z</time></trkpt><trkpt lat="40.3041118527721" lon="17.5976929947487"><ele>6.0</ele><time>2026-04-08T15:47:22Z</time></trkpt><trkpt lat="40.30420819333832" lon="17.597695781814625"><ele>6.0</ele><time>2026-04-08T15:47:24Z</time></trkpt><trkpt lat="40.30430058605892" lon="17.597702267997256"><ele>6.0</ele><time>2026-04-08T15:47:26Z</time></trkpt><trkpt lat="40.304398915034994" lon="17.59770258457952"><ele>6.0</ele><time>2026-04-08T15:47:28Z</time></trkpt><trkpt lat="40.30449134218378" lon="17.59771102933076"><ele>6.0</ele><time>2026-04-08T15:47:30Z</time></trkpt><trkpt lat="40.30457227070516" lon="17.59771051285702"><ele>6.0</ele><time>2026-04-08T15:47:32Z</time></trkpt><trkpt lat="40.30465479530324" lon="17.597721797235728"><ele>6.0</ele><time>2026-04-08T15:47:34Z</time></trkpt><trkpt lat="40.304749579009865" lon="17.597727086840496"><ele>6.0</ele><time>2026-04-08T15:47:36Z</time></trkpt><trkpt lat="40.3048543604221" lon="17.597733871411215"><ele>6.0</ele><time>2026-04-08T15:47:38Z</time></trkpt><trkpt lat="40.30497591594055" lon="17.597741180269278"><ele>6.0</ele><time>2026-04-08T15:47:40Z</time></trkpt><trkpt lat="40.305090541448244" lon="17.59774645671402"><ele>6.199999999999999</ele><time>2026-04-08T15:47:42Z</time></trkpt><trkpt lat="40.30519313404282" lon="17.59775140142435"><ele>6.3999999999999995</ele><time>2026-04-08T15:47:44Z</time></trkpt><trkpt lat="40.30528266908707" lon="17.597755983898345"><ele>6.6</ele><time>2026-04-08T15:47:46Z</time></trkpt><trkpt lat="40.30538080296437" lon="17.597753840847457"><ele>6.8</ele><time>2026-04-08T15:47:48Z</time></trkpt><trkpt lat="40.305477912045895" lon="17.597773382129816"><ele>7.0</ele><time>2026-04-08T15:47:50Z</time></trkpt><trkpt lat="40.305574156991455" lon="17.597768075414407"><ele>7.0</ele><time>2026-04-08T15:47:52Z</time></trkpt><trkpt lat="40.30566684022889" lon="17.597775973164566"><ele>7.0</ele><time>2026-04-08T15:47:54Z</time></trkpt><trkpt lat="40.30575350677071" lon="17.597773510702012"><ele>7.0</ele><time>2026-04-08T15:47:56Z</time></trkpt><trkpt lat="40.30582907406122" lon="17.59752361075445"><ele>7.0</ele><time>2026-04-08T15:47:59Z</time></trkpt><trkpt lat="40.305846828416975" lon="17.59738769411713"><ele>7.0</ele><time>2026-04-08T15:48:01Z</time></trkpt><trkpt lat="40.30584195975484" lon="17.597246187012686"><ele>7.0</ele><time>2026-04-08T15:48:03Z</time></trkpt><trkpt lat="40.30585415386867" lon="17.597092828653036"><ele>7.0</ele><time>2026-04-08T15:48:05Z</time></trkpt><trkpt lat="40.305861332013464" lon="17.596946021536642"><ele>7.0</ele><time>2026-04-08T15:48:07Z</time></trkpt><trkpt lat="40.30587155143941" lon="17.59679439935429"><ele>7.0</ele><time>2026-04-08T15:48:09Z</time></trkpt><trkpt lat="40.305880483387895" lon="17.5966521054321"><ele>7.0</ele><time>2026-04-08T15:48:11Z</time></trkpt><trkpt lat="40.30590133294548" lon="17.59649960061946"><ele>7.0</ele><time>2026-04-08T15:48:13Z</time></trkpt><trkpt lat="40.305934857127774" lon="17.59635194416419"><ele>7.0</ele><time>2026-04-08T15:48:15Z</time></trkpt><trkpt lat="40.305963404338904" lon="17.596209450351253"><ele>7.5</ele><time>2026-04-08T15:48:17Z</time></trkpt><trkpt lat="40.30599472646511" lon="17.596063645076544"><ele>8.0</ele><time>2026-04-08T15:48:19Z</time></trkpt><trkpt lat="40.3060194080038" lon="17.595928605800214"><ele>8.5</ele><time>2026-04-08T15:48:21Z</time></trkpt><trkpt lat="40.30605326069837" lon="17.59577643741753"><ele>9.0</ele><time>2026-04-08T15:48:23Z</time></trkpt><trkpt lat="40.3060863503539" lon="17.595633235766886"><ele>9.0</ele><time>2026-04-08T15:48:25Z</time></trkpt><trkpt lat="40.306114154895184" lon="17.595490436536465"><ele>9.0</ele><time>2026-04-08T15:48:27Z</time></trkpt><trkpt lat="40.30614354136817" lon="17.595351293409365"><ele>9.0</ele><time>2026-04-08T15:48:29Z</time></trkpt><trkpt lat="40.30617859551405" lon="17.59519933486046"><ele>9.0</ele><time>2026-04-08T15:48:31Z</time></trkpt><trkpt lat="40.30620845353963" lon="17.595074209808843"><ele>9.0</ele><time>2026-04-08T15:48:33Z</time></trkpt><trkpt lat="40.306214450035995" lon="17.59494026383063"><ele>8.6</ele><time>2026-04-08T15:48:35Z</time></trkpt><trkpt lat="40.3062050502925" lon="17.59480346276611"><ele>8.2</ele><time>2026-04-08T15:48:37Z</time></trkpt><trkpt lat="40.30617463174349" lon="17.59467612911447"><ele>7.799999999999999</ele><time>2026-04-08T15:48:39Z</time></trkpt><trkpt lat="40.30613334618013" lon="17.594556441614742"><ele>7.3999999999999995</ele><time>2026-04-08T15:48:41Z</time></trkpt><trkpt lat="40.30609775200091" lon="17.594428033262503"><ele>7.0</ele><time>2026-04-08T15:48:43Z</time></trkpt><trkpt lat="40.30606715995843" lon="17.59429989168805"><ele>7.0</ele><time>2026-04-08T15:48:45Z</time></trkpt><trkpt lat="40.30604881958277" lon="17.594171306243595"><ele>6.999999999999999</ele><time>2026-04-08T15:48:47Z</time></trkpt><trkpt lat="40.30603944142482" lon="17.59403076804799"><ele>6.999999999999999</ele><time>2026-04-08T15:48:49Z</time></trkpt><trkpt lat="40.30602824877757" lon="17.59389642933655"><ele>7.0</ele><time>2026-04-08T15:48:51Z</time></trkpt><trkpt lat="40.306017064461784" lon="17.59376361236288"><ele>7.0</ele><time>2026-04-08T15:48:53Z</time></trkpt><trkpt lat="40.30600900215798" lon="17.593634226331723"><ele>7.199999999999999</ele><time>2026-04-08T15:48:55Z</time></trkpt><trkpt lat="40.3059974505574" lon="17.593505821015704"><ele>7.3999999999999995</ele><time>2026-04-08T15:48:57Z</time></trkpt><trkpt lat="40.3059846052934" lon="17.59337823871738"><ele>7.6000000000000005</ele><time>2026-04-08T15:48:59Z</time></trkpt><trkpt lat="40.30597164969143" lon="17.593257971225025"><ele>7.800000000000001</ele><time>2026-04-08T15:49:01Z</time></trkpt><trkpt lat="40.3059552593501" lon="17.593145161351273"><ele>8.0</ele><time>2026-04-08T15:49:03Z</time></trkpt><trkpt lat="40.30593990785859" lon="17.593027961067712"><ele>7.999999999999999</ele><time>2026-04-08T15:49:05Z</time></trkpt><trkpt lat="40.305920179226085" lon="17.592922194090182"><ele>8.0</ele><time>2026-04-08T15:49:07Z</time></trkpt><trkpt lat="40.30589186115693" lon="17.592807030770604"><ele>8.0</ele><time>2026-04-08T15:49:09Z</time></trkpt><trkpt lat="40.30585805194097" lon="17.59270391575682"><ele>8.0</ele><time>2026-04-08T15:49:11Z</time></trkpt><trkpt lat="40.30583646580094" lon="17.592584749956043"><ele>7.999999999999999</ele><time>2026-04-08T15:49:13Z</time></trkpt><trkpt lat="40.30582640605932" lon="17.592461545837864"><ele>8.0</ele><time>2026-04-08T15:49:15Z</time></trkpt><trkpt lat="40.30582721176547" lon="17.59233720246308"><ele>7.800000000000001</ele><time>2026-04-08T15:49:17Z</time></trkpt><trkpt lat="40.305832554379336" lon="17.592216112774306"><ele>7.6000000000000005</ele><time>2026-04-08T15:49:19Z</time></trkpt><trkpt lat="40.30583687299745" lon="17.5920967773043"><ele>7.3999999999999995</ele><time>2026-04-08T15:49:21Z</time></trkpt><trkpt lat="40.30583854098325" lon="17.591977933092274"><ele>7.199999999999999</ele><time>2026-04-08T15:49:23Z</time></trkpt><trkpt lat="40.30584354338071" lon="17.591860407032748"><ele>7.0</ele><time>2026-04-08T15:49:25Z</time></trkpt><trkpt lat="40.30584679982142" lon="17.591741735126124"><ele>7.0</ele><time>2026-04-08T15:49:27Z</time></trkpt><trkpt lat="40.305851865242346" lon="17.591621332095134"><ele>6.999999999999999</ele><time>2026-04-08T15:49:29Z</time></trkpt><trkpt lat="40.30585563675626" lon="17.591500742960513"><ele>6.999999999999999</ele><time>2026-04-08T15:49:31Z</time></trkpt><trkpt lat="40.30585793640657" lon="17.59137884957164"><ele>7.0</ele><time>2026-04-08T15:49:33Z</time></trkpt><trkpt lat="40.30585414200637" lon="17.591260208671056"><ele>7.0</ele><time>2026-04-08T15:49:35Z</time></trkpt><trkpt lat="40.30585136434831" lon="17.591136541174578"><ele>7.0</ele><time>2026-04-08T15:49:37Z</time></trkpt><trkpt lat="40.30584436630483" lon="17.59101645032358"><ele>6.999999999999999</ele><time>2026-04-08T15:49:39Z</time></trkpt><trkpt lat="40.305836413260025" lon="17.590893153702616"><ele>6.999999999999999</ele><time>2026-04-08T15:49:41Z</time></trkpt><trkpt lat="40.3058216095014" lon="17.59077082348776"><ele>7.0</ele><time>2026-04-08T15:49:43Z</time></trkpt><trkpt lat="40.30580980874219" lon="17.59064857956414"><ele>7.0</ele><time>2026-04-08T15:49:45Z</time></trkpt><trkpt lat="40.30580136299097" lon="17.590522103068185"><ele>7.0</ele><time>2026-04-08T15:49:47Z</time></trkpt><trkpt lat="40.30578915999962" lon="17.59039504729005"><ele>6.999999999999999</ele><time>2026-04-08T15:49:49Z</time></trkpt><trkpt lat="40.30577536108816" lon="17.590271298231862"><ele>6.999999999999999</ele><time>2026-04-08T15:49:51Z</time></trkpt><trkpt lat="40.30576472361522" lon="17.590149940818247"><ele>7.0</ele><time>2026-04-08T15:49:53Z</time></trkpt><trkpt lat="40.3057510896338" lon="17.590030174635224"><ele>7.0</ele><time>2026-04-08T15:49:55Z</time></trkpt><trkpt lat="40.30573804630199" lon="17.589907822098628"><ele>7.0</ele><time>2026-04-08T15:49:57Z</time></trkpt><trkpt lat="40.305726199494536" lon="17.58978745516524"><ele>6.999999999999999</ele><time>2026-04-08T15:49:59Z</time></trkpt><trkpt lat="40.30571523544949" lon="17.589664549055318"><ele>6.999999999999999</ele><time>2026-04-08T15:50:01Z</time></trkpt><trkpt lat="40.30570455227381" lon="17.589542188814224"><ele>7.0</ele><time>2026-04-08T15:50:03Z</time></trkpt><trkpt lat="40.30569214743022" lon="17.589420951980788"><ele>7.0</ele><time>2026-04-08T15:50:05Z</time></trkpt><trkpt lat="40.30568467724377" lon="17.589301960445063"><ele>7.333333333333334</ele><time>2026-04-08T15:50:07Z</time></trkpt><trkpt lat="40.30568633170926" lon="17.589192771941978"><ele>7.666666666666667</ele><time>2026-04-08T15:50:09Z</time></trkpt><trkpt lat="40.30568283234082" lon="17.58908755874311"><ele>8.0</ele><time>2026-04-08T15:50:11Z</time></trkpt><trkpt lat="40.30566895125236" lon="17.58899334043572"><ele>8.333333333333334</ele><time>2026-04-08T15:50:13Z</time></trkpt><trkpt lat="40.305654470697824" lon="17.58890506921781"><ele>8.666666666666666</ele><time>2026-04-08T15:50:15Z</time></trkpt><trkpt lat="40.30564908142184" lon="17.588816759206388"><ele>9.0</ele><time>2026-04-08T15:50:17Z</time></trkpt><trkpt lat="40.305648165322474" lon="17.588715145617865"><ele>9.000000000000002</ele><time>2026-04-08T15:50:19Z</time></trkpt><trkpt lat="40.3056519434687" lon="17.58862365496065"><ele>9.0</ele><time>2026-04-08T15:50:21Z</time></trkpt><trkpt lat="40.30566117004937" lon="17.588528376940594"><ele>9.0</ele><time>2026-04-08T15:50:23Z</time></trkpt><trkpt lat="40.305671188698646" lon="17.588441057070746"><ele>9.0</ele><time>2026-04-08T15:50:25Z</time></trkpt><trkpt lat="40.305702971441406" lon="17.588335124516355"><ele>9.0</ele><time>2026-04-08T15:50:28Z</time></trkpt><trkpt lat="40.305745510253075" lon="17.588259445940658"><ele>9.000000000000002</ele><time>2026-04-08T15:50:30Z</time></trkpt><trkpt lat="40.30579246357264" lon="17.58818747178713"><ele>9.0</ele><time>2026-04-08T15:50:32Z</time></trkpt><trkpt lat="40.305836725922234" lon="17.588113909780102"><ele>9.000000000000002</ele><time>2026-04-08T15:50:34Z</time></trkpt><trkpt lat="40.30588162937339" lon="17.588034642316835"><ele>9.0</ele><time>2026-04-08T15:50:36Z</time></trkpt><trkpt lat="40.30592818795673" lon="17.587959514975122"><ele>9.0</ele><time>2026-04-08T15:50:38Z</time></trkpt><trkpt lat="40.30593693291262" lon="17.587864125075203"><ele>9.0</ele><time>2026-04-08T15:50:40Z</time></trkpt><trkpt lat="40.30593491212217" lon="17.587762916901564"><ele>9.0</ele><time>2026-04-08T15:50:42Z</time></trkpt><trkpt lat="40.30595109815059" lon="17.587669728850404"><ele>9.000000000000002</ele><time>2026-04-08T15:50:44Z</time></trkpt><trkpt lat="40.30596076376265" lon="17.587572070942684"><ele>9.0</ele><time>2026-04-08T15:50:46Z</time></trkpt><trkpt lat="40.30595919934589" lon="17.587483750882033"><ele>9.166666666666666</ele><time>2026-04-08T15:50:49Z</time></trkpt><trkpt lat="40.30597215501065" lon="17.58740214796345"><ele>9.333333333333334</ele><time>2026-04-08T15:50:50Z</time></trkpt><trkpt lat="40.30599544768292" lon="17.5873097795535"><ele>9.5</ele><time>2026-04-08T15:50:52Z</time></trkpt><trkpt lat="40.30602074033028" lon="17.58721286351483"><ele>9.666666666666668</ele><time>2026-04-08T15:50:54Z</time></trkpt><trkpt lat="40.30605786086779" lon="17.58712417677877"><ele>9.833333333333334</ele><time>2026-04-08T15:50:56Z</time></trkpt><trkpt lat="40.30610099959315" lon="17.587042450266633"><ele>10.0</ele><time>2026-04-08T15:50:59Z</time></trkpt><trkpt lat="40.306160750324715" lon="17.586886787580763"><ele>10.0</ele><time>2026-04-08T15:51:01Z</time></trkpt><trkpt lat="40.30617050944034" lon="17.586794315852586"><ele>10.0</ele><time>2026-04-08T15:51:03Z</time></trkpt><trkpt lat="40.30617804780102" lon="17.58669952023276"><ele>10.0</ele><time>2026-04-08T15:51:05Z</time></trkpt><trkpt lat="40.30616129407718" lon="17.586611755988837"><ele>10.0</ele><time>2026-04-08T15:51:07Z</time></trkpt><trkpt lat="40.30607257515232" lon="17.58654613061596"><ele>10.0</ele><time>2026-04-08T15:51:10Z</time></trkpt><trkpt lat="40.30599734713025" lon="17.58655211126003"><ele>10.0</ele><time>2026-04-08T15:51:12Z</time></trkpt><trkpt lat="40.30590720878061" lon="17.586534285523566"><ele>10.0</ele><time>2026-04-08T15:51:15Z</time></trkpt><trkpt lat="40.30583269481429" lon="17.586527702740664"><ele>10.0</ele><time>2026-04-08T15:51:17Z</time></trkpt><trkpt lat="40.305763769719995" lon="17.586550756742017"><ele>10.0</ele><time>2026-04-08T15:51:19Z</time></trkpt><trkpt lat="40.305850056341555" lon="17.58654321795418"><ele>10.0</ele><time>2026-04-08T15:51:45Z</time></trkpt><trkpt lat="40.30592822049724" lon="17.586530310854734"><ele>10.0</ele><time>2026-04-08T15:51:48Z</time></trkpt><trkpt lat="40.30600493112249" lon="17.58653111038647"><ele>10.0</ele><time>2026-04-08T15:51:51Z</time></trkpt><trkpt lat="40.306087932389985" lon="17.58653527556714"><ele>10.0</ele><time>2026-04-08T15:51:54Z</time></trkpt><trkpt lat="40.30614166674828" lon="17.586490635601265"><ele>10.0</ele><time>2026-04-08T15:51:58Z</time></trkpt><trkpt lat="40.30609863030328" lon="17.586404530495184"><ele>10.0</ele><time>2026-04-08T15:52:03Z</time></trkpt><trkpt lat="40.30606917824348" lon="17.586319703788902"><ele>10.0</ele><time>2026-04-08T15:52:07Z</time></trkpt><trkpt lat="40.30610627613203" lon="17.586240888429145"><ele>10.0</ele><time>2026-04-08T15:52:11Z</time></trkpt><trkpt lat="40.30611112606325" lon="17.586134267992826"><ele>10.0</ele><time>2026-04-08T15:52:17Z</time></trkpt><trkpt lat="40.30610835941253" lon="17.586051462876444"><ele>10.0</ele><time>2026-04-08T15:52:27Z</time></trkpt><trkpt lat="40.306116434180694" lon="17.58596788531803"><ele>10.0</ele><time>2026-04-08T15:52:34Z</time></trkpt><trkpt lat="40.30611017776722" lon="17.58588050976879"><ele>10.0</ele><time>2026-04-08T15:52:39Z</time></trkpt><trkpt lat="40.306115936972134" lon="17.585792302197447"><ele>10.0</ele><time>2026-04-08T15:52:44Z</time></trkpt><trkpt lat="40.30609520764873" lon="17.58570523500079"><ele>10.0</ele><time>2026-04-08T15:52:49Z</time></trkpt><trkpt lat="40.30604041758109" lon="17.58566336121589"><ele>10.0</ele><time>2026-04-08T15:52:53Z</time></trkpt><trkpt lat="40.306059424036" lon="17.585578760073847"><ele>10.0</ele><time>2026-04-08T15:52:59Z</time></trkpt><trkpt lat="40.30612373952739" lon="17.585529212179114"><ele>10.0</ele><time>2026-04-08T15:53:05Z</time></trkpt><trkpt lat="40.30612639669509" lon="17.58543251940113"><ele>10.0</ele><time>2026-04-08T15:53:12Z</time></trkpt><trkpt lat="40.3060627413868" lon="17.585416065524655"><ele>10.0</ele><time>2026-04-08T15:53:17Z</time></trkpt><trkpt lat="40.30603663331123" lon="17.58533938753727"><ele>10.0</ele><time>2026-04-08T15:53:23Z</time></trkpt><trkpt lat="40.30599572290806" lon="17.585253999905085"><ele>10.0</ele><time>2026-04-08T15:53:29Z</time></trkpt><trkpt lat="40.30599660872813" lon="17.585170104370942"><ele>10.0</ele><time>2026-04-08T15:53:34Z</time></trkpt><trkpt lat="40.30593749795901" lon="17.585117405323196"><ele>10.0</ele><time>2026-04-08T15:53:40Z</time></trkpt><trkpt lat="40.305906574314626" lon="17.585033231328214"><ele>10.0</ele><time>2026-04-08T15:53:46Z</time></trkpt><trkpt lat="40.30586824627954" lon="17.58496730482247"><ele>10.0</ele><time>2026-04-08T15:53:51Z</time></trkpt><trkpt lat="40.30583553419481" lon="17.5848919988763"><ele>10.0</ele><time>2026-04-08T15:53:57Z</time></trkpt><trkpt lat="40.30577447089831" lon="17.58483584119515"><ele>10.0</ele><time>2026-04-08T15:54:03Z</time></trkpt><trkpt lat="40.30577293388329" lon="17.58474996922435"><ele>10.0</ele><time>2026-04-08T15:54:08Z</time></trkpt><trkpt lat="40.30573196253973" lon="17.584680660798426"><ele>10.0</ele><time>2026-04-08T15:54:14Z</time></trkpt><trkpt lat="40.30569081074655" lon="17.58461029307015"><ele>10.0</ele><time>2026-04-08T15:54:20Z</time></trkpt><trkpt lat="40.305637124744116" lon="17.584549994073466"><ele>10.0</ele><time>2026-04-08T15:54:56Z</time></trkpt><trkpt lat="40.305573661028404" lon="17.58456078861272"><ele>10.0</ele><time>2026-04-08T15:55:03Z</time></trkpt><trkpt lat="40.30545692652173" lon="17.584574680458612"><ele>10.0</ele><time>2026-04-08T15:55:44Z</time></trkpt><trkpt lat="40.305401393024944" lon="17.584531431067095"><ele>10.0</ele><time>2026-04-08T15:55:59Z</time></trkpt><trkpt lat="40.305393552505116" lon="17.584447370847776"><ele>10.0</ele><time>2026-04-08T15:56:05Z</time></trkpt><trkpt lat="40.30534167590487" lon="17.58438035882105"><ele>10.0</ele><time>2026-04-08T15:56:18Z</time></trkpt><trkpt lat="40.30527124199107" lon="17.58435548790584"><ele>10.0</ele><time>2026-04-08T15:56:24Z</time></trkpt><trkpt lat="40.305238961121304" lon="17.584435069927114"><ele>10.142857142857142</ele><time>2026-04-08T15:56:30Z</time></trkpt><trkpt lat="40.305169281689686" lon="17.584440150890913"><ele>10.285714285714286</ele><time>2026-04-08T15:56:38Z</time></trkpt><trkpt lat="40.30509177231202" lon="17.584435435092622"><ele>10.428571428571429</ele><time>2026-04-08T15:56:41Z</time></trkpt><trkpt lat="40.3050419162064" lon="17.58437297616324"><ele>10.571428571428571</ele><time>2026-04-08T15:56:44Z</time></trkpt><trkpt lat="40.30502534611938" lon="17.584269257360656"><ele>10.714285714285714</ele><time>2026-04-08T15:56:48Z</time></trkpt><trkpt lat="40.30502644315874" lon="17.58418587494291"><ele>10.857142857142858</ele><time>2026-04-08T15:56:50Z</time></trkpt><trkpt lat="40.30503717074378" lon="17.584083286025592"><ele>11.0</ele><time>2026-04-08T15:56:53Z</time></trkpt><trkpt lat="40.305011617292315" lon="17.583964055224826"><ele>11.0</ele><time>2026-04-08T15:56:56Z</time></trkpt><trkpt lat="40.30499948913383" lon="17.583878970297594"><ele>11.0</ele><time>2026-04-08T15:56:58Z</time></trkpt><trkpt lat="40.30499861496041" lon="17.58379326629147"><ele>11.0</ele><time>2026-04-08T15:57:00Z</time></trkpt><trkpt lat="40.30503231926851" lon="17.583692227195385"><ele>11.0</ele><time>2026-04-08T15:57:03Z</time></trkpt><trkpt lat="40.305105424671765" lon="17.58368726721593"><ele>11.0</ele><time>2026-04-08T15:57:06Z</time></trkpt><trkpt lat="40.30518122395744" lon="17.583687389820653"><ele>11.0</ele><time>2026-04-08T15:57:09Z</time></trkpt><trkpt lat="40.305271277779084" lon="17.583679831089608"><ele>11.0</ele><time>2026-04-08T15:57:11Z</time></trkpt><trkpt lat="40.305349438434064" lon="17.5836846457991"><ele>11.0</ele><time>2026-04-08T15:57:13Z</time></trkpt><trkpt lat="40.30543474488771" lon="17.583688210752246"><ele>11.0</ele><time>2026-04-08T15:57:15Z</time></trkpt><trkpt lat="40.305533431338255" lon="17.583692915900052"><ele>11.0</ele><time>2026-04-08T15:57:17Z</time></trkpt><trkpt lat="40.30563626828686" lon="17.583688433783962"><ele>11.0</ele><time>2026-04-08T15:57:19Z</time></trkpt><trkpt lat="40.305742612170626" lon="17.583691587681543"><ele>11.0</ele><time>2026-04-08T15:57:21Z</time></trkpt><trkpt lat="40.305849827843424" lon="17.58368440513623"><ele>11.0</ele><time>2026-04-08T15:57:23Z</time></trkpt><trkpt lat="40.30595915343876" lon="17.583674347075085"><ele>11.0</ele><time>2026-04-08T15:57:25Z</time></trkpt><trkpt lat="40.3060675540375" lon="17.58364465628645"><ele>11.0</ele><time>2026-04-08T15:57:27Z</time></trkpt><trkpt lat="40.306173578648995" lon="17.583609941930394"><ele>11.0</ele><time>2026-04-08T15:57:29Z</time></trkpt><trkpt lat="40.306257799399795" lon="17.583527627505312"><ele>11.0</ele><time>2026-04-08T15:57:31Z</time></trkpt><trkpt lat="40.30626859888757" lon="17.5833783437831"><ele>11.0</ele><time>2026-04-08T15:57:33Z</time></trkpt><trkpt lat="40.306250711955606" lon="17.5832973202658"><ele>11.0</ele><time>2026-04-08T15:57:34Z</time></trkpt><trkpt lat="40.306223813649545" lon="17.583143591845317"><ele>11.0</ele><time>2026-04-08T15:57:36Z</time></trkpt><trkpt lat="40.306211801845805" lon="17.58297455507382"><ele>11.0</ele><time>2026-04-08T15:57:38Z</time></trkpt><trkpt lat="40.30620630842875" lon="17.5828887642236"><ele>11.0</ele><time>2026-04-08T15:57:39Z</time></trkpt><trkpt lat="40.306203330458025" lon="17.58280224961922"><ele>11.0</ele><time>2026-04-08T15:57:40Z</time></trkpt><trkpt lat="40.30618434222973" lon="17.582713414584166"><ele>11.0</ele><time>2026-04-08T15:57:41Z</time></trkpt><trkpt lat="40.30614636300198" lon="17.58258894655004"><ele>11.0</ele><time>2026-04-08T15:57:43Z</time></trkpt><trkpt lat="40.30611796505034" lon="17.58247133787964"><ele>11.0</ele><time>2026-04-08T15:57:46Z</time></trkpt><trkpt lat="40.30609320631754" lon="17.58235242186362"><ele>11.0</ele><time>2026-04-08T15:57:49Z</time></trkpt><trkpt lat="40.3061300536755" lon="17.582269676700772"><ele>11.0</ele><time>2026-04-08T15:57:51Z</time></trkpt><trkpt lat="40.30614507339052" lon="17.582146476551518"><ele>11.0</ele><time>2026-04-08T15:57:54Z</time></trkpt><trkpt lat="40.30611914816309" lon="17.58205191680345"><ele>11.0</ele><time>2026-04-08T15:57:56Z</time></trkpt><trkpt lat="40.306100665026854" lon="17.58194651674874"><ele>11.0</ele><time>2026-04-08T15:57:58Z</time></trkpt><trkpt lat="40.3060827645512" lon="17.581840411064395"><ele>11.0</ele><time>2026-04-08T15:58:00Z</time></trkpt><trkpt lat="40.30606461922582" lon="17.5817400689608"><ele>11.0</ele><time>2026-04-08T15:58:02Z</time></trkpt><trkpt lat="40.30604795097825" lon="17.581648054390065"><ele>11.142857142857142</ele><time>2026-04-08T15:58:04Z</time></trkpt><trkpt lat="40.30602073602829" lon="17.581533754204976"><ele>11.285714285714285</ele><time>2026-04-08T15:58:07Z</time></trkpt><trkpt lat="40.306006155488994" lon="17.581448428247164"><ele>11.428571428571427</ele><time>2026-04-08T15:58:09Z</time></trkpt><trkpt lat="40.30599393480777" lon="17.581357703731552"><ele>11.571428571428571</ele><time>2026-04-08T15:58:11Z</time></trkpt><trkpt lat="40.30597685780484" lon="17.581269163196676"><ele>11.714285714285714</ele><time>2026-04-08T15:58:13Z</time></trkpt><trkpt lat="40.305960726636236" lon="17.581181543307117"><ele>11.857142857142856</ele><time>2026-04-08T15:58:15Z</time></trkpt><trkpt lat="40.30594690987062" lon="17.581086538538383"><ele>12.0</ele><time>2026-04-08T15:58:17Z</time></trkpt><trkpt lat="40.305926291519015" lon="17.580992003467355"><ele>12.166666666666666</ele><time>2026-04-08T15:58:19Z</time></trkpt><trkpt lat="40.30590970459537" lon="17.5808892993934"><ele>12.333333333333332</ele><time>2026-04-08T15:58:21Z</time></trkpt><trkpt lat="40.305889198037164" lon="17.580789611296183"><ele>12.5</ele><time>2026-04-08T15:58:23Z</time></trkpt><trkpt lat="40.305865875507415" lon="17.580695835080242"><ele>12.666666666666666</ele><time>2026-04-08T15:58:25Z</time></trkpt><trkpt lat="40.30583866788537" lon="17.58058406253065"><ele>12.833333333333332</ele><time>2026-04-08T15:58:28Z</time></trkpt><trkpt lat="40.30582276710962" lon="17.580481383840716"><ele>13.0</ele><time>2026-04-08T15:58:31Z</time></trkpt><trkpt lat="40.305802696881635" lon="17.58038432633218"><ele>12.833333333333332</ele><time>2026-04-08T15:58:34Z</time></trkpt><trkpt lat="40.30576672700905" lon="17.58030944697788"><ele>12.666666666666666</ele><time>2026-04-08T15:58:37Z</time></trkpt><trkpt lat="40.3056986375001" lon="17.58028219685362"><ele>12.5</ele><time>2026-04-08T15:58:40Z</time></trkpt><trkpt lat="40.3056173536878" lon="17.580276180898338"><ele>12.333333333333332</ele><time>2026-04-08T15:58:43Z</time></trkpt><trkpt lat="40.305544269207715" lon="17.580275256320366"><ele>12.166666666666666</ele><time>2026-04-08T15:58:45Z</time></trkpt><trkpt lat="40.30547241243928" lon="17.58027824626192"><ele>12.0</ele><time>2026-04-08T15:58:47Z</time></trkpt><trkpt lat="40.30538417062632" lon="17.580276629235918"><ele>12.0</ele><time>2026-04-08T15:58:49Z</time></trkpt><trkpt lat="40.305280292095475" lon="17.580269090466597"><ele>12.0</ele><time>2026-04-08T15:58:51Z</time></trkpt><trkpt lat="40.30516562118241" lon="17.580265090213224"><ele>12.0</ele><time>2026-04-08T15:58:53Z</time></trkpt><trkpt lat="40.30510105998051" lon="17.580275316756452"><ele>12.0</ele><time>2026-04-08T15:58:54Z</time></trkpt><trkpt lat="40.30503402368965" lon="17.58027871806074"><ele>12.0</ele><time>2026-04-08T15:58:55Z</time></trkpt><trkpt lat="40.304962312193325" lon="17.580278428107505"><ele>12.0</ele><time>2026-04-08T15:58:56Z</time></trkpt><trkpt lat="40.304894230679416" lon="17.580273493158764"><ele>12.0</ele><time>2026-04-08T15:58:57Z</time></trkpt><trkpt lat="40.30482733395677" lon="17.580271937203356"><ele>12.0</ele><time>2026-04-08T15:58:58Z</time></trkpt><trkpt lat="40.304737451944625" lon="17.580241465031552"><ele>12.0</ele><time>2026-04-08T15:59:00Z</time></trkpt><trkpt lat="40.304698102476806" lon="17.580116116310982"><ele>12.0</ele><time>2026-04-08T15:59:02Z</time></trkpt><trkpt lat="40.304598367123226" lon="17.580093732712992"><ele>12.0</ele><time>2026-04-08T15:59:04Z</time></trkpt><trkpt lat="40.304480151420655" lon="17.58007103036063"><ele>11.6</ele><time>2026-04-08T15:59:06Z</time></trkpt><trkpt lat="40.30437493964569" lon="17.579998669908726"><ele>11.2</ele><time>2026-04-08T15:59:08Z</time></trkpt><trkpt lat="40.30433564111039" lon="17.579865458809564"><ele>10.8</ele><time>2026-04-08T15:59:10Z</time></trkpt><trkpt lat="40.30432406455895" lon="17.57973153830039"><ele>10.4</ele><time>2026-04-08T15:59:12Z</time></trkpt><trkpt lat="40.30429826834597" lon="17.57958338841719"><ele>10.0</ele><time>2026-04-08T15:59:14Z</time></trkpt><trkpt lat="40.304284962085354" lon="17.579501271931708"><ele>9.857142857142858</ele><time>2026-04-08T15:59:15Z</time></trkpt><trkpt lat="40.30427023461907" lon="17.579415384190526"><ele>9.714285714285715</ele><time>2026-04-08T15:59:16Z</time></trkpt><trkpt lat="40.30425513996593" lon="17.579326777380565"><ele>9.571428571428573</ele><time>2026-04-08T15:59:17Z</time></trkpt><trkpt lat="40.30423751259598" lon="17.57923373845073"><ele>9.428571428571429</ele><time>2026-04-08T15:59:18Z</time></trkpt><trkpt lat="40.30421862633275" lon="17.579138705560187"><ele>9.285714285714286</ele><time>2026-04-08T15:59:19Z</time></trkpt><trkpt lat="40.30420106431553" lon="17.579047876751854"><ele>9.142857142857144</ele><time>2026-04-08T15:59:20Z</time></trkpt><trkpt lat="40.30418541283182" lon="17.578961429825355"><ele>9.0</ele><time>2026-04-08T15:59:21Z</time></trkpt><trkpt lat="40.30416976164317" lon="17.578875877192008"><ele>9.0</ele><time>2026-04-08T15:59:22Z</time></trkpt><trkpt lat="40.304143230568904" lon="17.578720019452515"><ele>9.0</ele><time>2026-04-08T15:59:24Z</time></trkpt><trkpt lat="40.304116112336885" lon="17.578565407752443"><ele>9.0</ele><time>2026-04-08T15:59:26Z</time></trkpt><trkpt lat="40.30408722032558" lon="17.57841755395287"><ele>9.0</ele><time>2026-04-08T15:59:28Z</time></trkpt><trkpt lat="40.30406925203844" lon="17.578291524476047"><ele>8.8</ele><time>2026-04-08T15:59:30Z</time></trkpt><trkpt lat="40.30405192137696" lon="17.57817115175567"><ele>8.600000000000001</ele><time>2026-04-08T15:59:32Z</time></trkpt><trkpt lat="40.30402208151571" lon="17.578026599491658"><ele>8.4</ele><time>2026-04-08T15:59:34Z</time></trkpt><trkpt lat="40.303995921818874" lon="17.577873621238467"><ele>8.200000000000001</ele><time>2026-04-08T15:59:36Z</time></trkpt><trkpt lat="40.30397228719881" lon="17.57773202228023"><ele>8.0</ele><time>2026-04-08T15:59:38Z</time></trkpt><trkpt lat="40.30395999663808" lon="17.57760221805318"><ele>8.0</ele><time>2026-04-08T15:59:40Z</time></trkpt><trkpt lat="40.30396789991176" lon="17.577473385701495"><ele>8.0</ele><time>2026-04-08T15:59:42Z</time></trkpt><trkpt lat="40.303978357009264" lon="17.57732392868306"><ele>8.0</ele><time>2026-04-08T15:59:44Z</time></trkpt><trkpt lat="40.303977053582074" lon="17.577178299294264"><ele>8.0</ele><time>2026-04-08T15:59:46Z</time></trkpt><trkpt lat="40.30398660209297" lon="17.577061398455083"><ele>8.0</ele><time>2026-04-08T15:59:48Z</time></trkpt><trkpt lat="40.303986756128886" lon="17.576939017349925"><ele>8.0</ele><time>2026-04-08T15:59:50Z</time></trkpt><trkpt lat="40.303989498939764" lon="17.576809095655847"><ele>8.0</ele><time>2026-04-08T15:59:52Z</time></trkpt><trkpt lat="40.30399256416406" lon="17.57667849330803"><ele>8.0</ele><time>2026-04-08T15:59:54Z</time></trkpt><trkpt lat="40.30396258096566" lon="17.576556465455653"><ele>8.0</ele><time>2026-04-08T15:59:56Z</time></trkpt><trkpt lat="40.30392964071437" lon="17.5764314638768"><ele>8.0</ele><time>2026-04-08T15:59:58Z</time></trkpt><trkpt lat="40.30393733242859" lon="17.57628306288831"><ele>8.0</ele><time>2026-04-08T16:00:00Z</time></trkpt><trkpt lat="40.30395331743355" lon="17.57620300773779"><ele>8.0</ele><time>2026-04-08T16:00:01Z</time></trkpt><trkpt lat="40.30397065620605" lon="17.576052159985217"><ele>8.0</ele><time>2026-04-08T16:00:03Z</time></trkpt><trkpt lat="40.30397744129473" lon="17.575924491718766"><ele>8.0</ele><time>2026-04-08T16:00:05Z</time></trkpt><trkpt lat="40.30395994100993" lon="17.5758032005798"><ele>8.0</ele><time>2026-04-08T16:00:07Z</time></trkpt><trkpt lat="40.30396302087137" lon="17.575665399231834"><ele>7.800000000000001</ele><time>2026-04-08T16:00:09Z</time></trkpt><trkpt lat="40.3039700426981" lon="17.57550957599012"><ele>7.6000000000000005</ele><time>2026-04-08T16:00:11Z</time></trkpt><trkpt lat="40.30398249374495" lon="17.57536764236079"><ele>7.3999999999999995</ele><time>2026-04-08T16:00:13Z</time></trkpt><trkpt lat="40.30399197517524" lon="17.575245031404705"><ele>7.199999999999999</ele><time>2026-04-08T16:00:15Z</time></trkpt><trkpt lat="40.303990022865996" lon="17.575131880011362"><ele>7.0</ele><time>2026-04-08T16:00:17Z</time></trkpt><trkpt lat="40.304005787439394" lon="17.574997610286232"><ele>7.000000000000001</ele><time>2026-04-08T16:00:19Z</time></trkpt><trkpt lat="40.3040156903232" lon="17.574858476181678"><ele>7.0</ele><time>2026-04-08T16:00:21Z</time></trkpt><trkpt lat="40.30402536420234" lon="17.574753874527435"><ele>7.0</ele><time>2026-04-08T16:00:23Z</time></trkpt><trkpt lat="40.304005760037704" lon="17.57464283201207"><ele>7.0</ele><time>2026-04-08T16:00:26Z</time></trkpt><trkpt lat="40.3040112796397" lon="17.574560360129958"><ele>7.000000000000001</ele><time>2026-04-08T16:00:28Z</time></trkpt><trkpt lat="40.304021320798206" lon="17.574459343103488"><ele>7.0</ele><time>2026-04-08T16:00:30Z</time></trkpt><trkpt lat="40.30404008091948" lon="17.574357119084755"><ele>7.142857142857142</ele><time>2026-04-08T16:00:32Z</time></trkpt><trkpt lat="40.304049257029824" lon="17.57426709079193"><ele>7.285714285714286</ele><time>2026-04-08T16:00:34Z</time></trkpt><trkpt lat="40.30403416411025" lon="17.574185159308207"><ele>7.428571428571429</ele><time>2026-04-08T16:00:36Z</time></trkpt><trkpt lat="40.30403286496041" lon="17.574091411140703"><ele>7.571428571428571</ele><time>2026-04-08T16:00:39Z</time></trkpt><trkpt lat="40.3040361826558" lon="17.574006032344226"><ele>7.7142857142857135</ele><time>2026-04-08T16:00:42Z</time></trkpt><trkpt lat="40.30403675692021" lon="17.57387953533099"><ele>7.857142857142857</ele><time>2026-04-08T16:00:45Z</time></trkpt><trkpt lat="40.30404461867697" lon="17.573780005224226"><ele>8.0</ele><time>2026-04-08T16:00:47Z</time></trkpt><trkpt lat="40.30404754453176" lon="17.573690791940866"><ele>8.0</ele><time>2026-04-08T16:00:49Z</time></trkpt><trkpt lat="40.30404021826336" lon="17.573589284035673"><ele>10.0</ele><time>2026-04-08T16:00:52Z</time></trkpt><trkpt lat="40.304045064827086" lon="17.57349833582114"><ele>10.0</ele><time>2026-04-08T16:00:56Z</time></trkpt></trkseg><trkseg><trkpt lat="40.29915510168245" lon="17.561154760122484"><ele>8.2</ele><time>2026-04-08T16:09:27.002Z</time></trkpt></trkseg></trk></gpx>